<?xml version="1.0" encoding="UTF-8" standalone="no" ?>
<gpx xmlns="http://www.topografix.com/GPX/1/1" xmlns:xsi="http://www.w3.org/2001/XMLSchema-instance" xsi:schemaLocation="http://www.topografix.com/GPX/1/1 http://www.topografix.com/GPX/1/1/gpx.xsd" version="1.1" creator="VisuGPX - https://www.visugpx.com">
  <metadata>
    <name>Oisans  Trièves - Etape 1 à Etape 7  De Bourg d'Oisans Bourg d'Oisans</name>
    <desc><![CDATA[Fusion des 7 étapes de TOP cyclo Trièves ]]></desc>
  </metadata>
  <wpt lat="45.05506" lon="6.02986">
    <ele>725</ele>
    <name><![CDATA[TO - Bourg d'Oisans / La Mure]]></name>
  </wpt>
  <wpt lat="44.90652" lon="5.78493">
    <ele>884</ele>
    <name><![CDATA[TO - La Mure / St Etienne]]></name>
  </wpt>
  <wpt lat="44.69428" lon="5.94024">
    <ele>1283</ele>
    <name><![CDATA[TO - St Etienne / Mens]]></name>
  </wpt>
  <wpt lat="44.8169" lon="5.75047">
    <ele>778</ele>
    <name><![CDATA[TO - Mens / Gresse]]></name>
  </wpt>
  <wpt lat="44.90227" lon="5.56743">
    <ele>1198</ele>
    <name><![CDATA[TO - Mens / Chatillon]]></name>
  </wpt>
  <wpt lat="44.69447" lon="5.48558">
    <ele>576</ele>
    <name><![CDATA[TO - Chatillon / Mens]]></name>
  </wpt>
  <wpt lat="44.81688" lon="5.75041">
    <ele>777</ele>
    <name><![CDATA[TO - Mens / Bourg d'Ois]]></name>
  </wpt>
  <trk>
    <name><![CDATA[20180318114343-lkuZh]]></name>
    <trkseg>
      <trkpt lat="44.69447" lon="5.48558">
        <ele>572.2</ele>
        <time>2017-12-15T19:01:15Z</time>
      </trkpt>
      <trkpt lat="44.69431" lon="5.48556">
        <ele>569.6</ele>
        <time>2017-12-15T19:01:20Z</time>
      </trkpt>
      <trkpt lat="44.69437" lon="5.48637">
        <ele>568.1</ele>
        <time>2017-12-15T19:01:28Z</time>
      </trkpt>
      <trkpt lat="44.69445" lon="5.48744">
        <ele>567.3</ele>
        <time>2017-12-15T19:01:41Z</time>
      </trkpt>
      <trkpt lat="44.69449" lon="5.48852">
        <ele>565.2</ele>
        <time>2017-12-15T19:02:01Z</time>
      </trkpt>
      <trkpt lat="44.69449" lon="5.489">
        <ele>565.7</ele>
        <time>2017-12-15T19:02:04Z</time>
      </trkpt>
      <trkpt lat="44.69445" lon="5.48942">
        <ele>566</ele>
        <time>2017-12-15T19:02:23Z</time>
      </trkpt>
      <trkpt lat="44.69438" lon="5.48984">
        <ele>567.7</ele>
        <time>2017-12-15T19:02:32Z</time>
      </trkpt>
      <trkpt lat="44.69431" lon="5.4901">
        <ele>568.3</ele>
        <time>2017-12-15T19:02:35Z</time>
      </trkpt>
      <trkpt lat="44.69416" lon="5.49041">
        <ele>567.9</ele>
        <time>2017-12-15T19:02:51Z</time>
      </trkpt>
      <trkpt lat="44.69404" lon="5.49055">
        <ele>567.1</ele>
        <time>2017-12-15T19:02:56Z</time>
      </trkpt>
      <trkpt lat="44.69387" lon="5.49067">
        <ele>565.6</ele>
        <time>2017-12-15T19:03:15Z</time>
      </trkpt>
      <trkpt lat="44.69377" lon="5.49072">
        <ele>564.6</ele>
        <time>2017-12-15T19:03:24Z</time>
      </trkpt>
      <trkpt lat="44.69368" lon="5.49073">
        <ele>563.5</ele>
        <time>2017-12-15T19:03:38Z</time>
      </trkpt>
      <trkpt lat="44.69342" lon="5.49071">
        <ele>561.2</ele>
        <time>2017-12-15T19:03:51Z</time>
      </trkpt>
      <trkpt lat="44.69309" lon="5.49059">
        <ele>557.4</ele>
        <time>2017-12-15T19:03:58Z</time>
      </trkpt>
      <trkpt lat="44.69283" lon="5.49054">
        <ele>559.4</ele>
        <time>2017-12-15T19:04:03Z</time>
      </trkpt>
      <trkpt lat="44.69267" lon="5.49056">
        <ele>560.4</ele>
        <time>2017-12-15T19:04:20Z</time>
      </trkpt>
      <trkpt lat="44.69255" lon="5.49062">
        <ele>560.8</ele>
        <time>2017-12-15T19:04:37Z</time>
      </trkpt>
      <trkpt lat="44.69239" lon="5.49071">
        <ele>561.6</ele>
        <time>2017-12-15T19:04:46Z</time>
      </trkpt>
      <trkpt lat="44.69231" lon="5.49075">
        <ele>561.9</ele>
        <time>2017-12-15T19:04:51Z</time>
      </trkpt>
      <trkpt lat="44.69216" lon="5.491">
        <ele>562.5</ele>
        <time>2017-12-15T19:05:05Z</time>
      </trkpt>
      <trkpt lat="44.69204" lon="5.49125">
        <ele>563.3</ele>
        <time>2017-12-15T19:05:25Z</time>
      </trkpt>
      <trkpt lat="44.69194" lon="5.49153">
        <ele>563.5</ele>
        <time>2017-12-15T19:05:33Z</time>
      </trkpt>
      <trkpt lat="44.69184" lon="5.49203">
        <ele>563.4</ele>
        <time>2017-12-15T19:05:53Z</time>
      </trkpt>
      <trkpt lat="44.69162" lon="5.49372">
        <ele>566.4</ele>
        <time>2017-12-15T19:06:04Z</time>
      </trkpt>
      <trkpt lat="44.69153" lon="5.49428">
        <ele>567.3</ele>
        <time>2017-12-15T19:06:23Z</time>
      </trkpt>
      <trkpt lat="44.69145" lon="5.49459">
        <ele>567.6</ele>
        <time>2017-12-15T19:06:36Z</time>
      </trkpt>
      <trkpt lat="44.69116" lon="5.49535">
        <ele>568.6</ele>
        <time>2017-12-15T19:06:44Z</time>
      </trkpt>
      <trkpt lat="44.6908" lon="5.49635">
        <ele>570.2</ele>
        <time>2017-12-15T19:06:59Z</time>
      </trkpt>
      <trkpt lat="44.6906" lon="5.49699">
        <ele>571.4</ele>
        <time>2017-12-15T19:07:03Z</time>
      </trkpt>
      <trkpt lat="44.69038" lon="5.49773">
        <ele>572.9</ele>
        <time>2017-12-15T19:07:23Z</time>
      </trkpt>
      <trkpt lat="44.68994" lon="5.49869">
        <ele>576.4</ele>
        <time>2017-12-15T19:07:27Z</time>
      </trkpt>
      <trkpt lat="44.68977" lon="5.49902">
        <ele>577.1</ele>
        <time>2017-12-15T19:07:47Z</time>
      </trkpt>
      <trkpt lat="44.68964" lon="5.49921">
        <ele>577.8</ele>
        <time>2017-12-15T19:08:01Z</time>
      </trkpt>
      <trkpt lat="44.68927" lon="5.49971">
        <ele>579.9</ele>
        <time>2017-12-15T19:08:13Z</time>
      </trkpt>
      <trkpt lat="44.68909" lon="5.49994">
        <ele>580.3</ele>
        <time>2017-12-15T19:08:32Z</time>
      </trkpt>
      <trkpt lat="44.68877" lon="5.50057">
        <ele>581.6</ele>
        <time>2017-12-15T19:08:34Z</time>
      </trkpt>
      <trkpt lat="44.68843" lon="5.50128">
        <ele>582.4</ele>
        <time>2017-12-15T19:08:53Z</time>
      </trkpt>
      <trkpt lat="44.68829" lon="5.50152">
        <ele>582.5</ele>
        <time>2017-12-15T19:09:03Z</time>
      </trkpt>
      <trkpt lat="44.68799" lon="5.50195">
        <ele>582.7</ele>
        <time>2017-12-15T19:09:07Z</time>
      </trkpt>
      <trkpt lat="44.68768" lon="5.50239">
        <ele>584.7</ele>
        <time>2017-12-15T19:09:12Z</time>
      </trkpt>
      <trkpt lat="44.68748" lon="5.50279">
        <ele>587.2</ele>
        <time>2017-12-15T19:09:19Z</time>
      </trkpt>
      <trkpt lat="44.68714" lon="5.50371">
        <ele>593.7</ele>
        <time>2017-12-15T19:09:29Z</time>
      </trkpt>
      <trkpt lat="44.68711" lon="5.50401">
        <ele>595.9</ele>
        <time>2017-12-15T19:09:45Z</time>
      </trkpt>
      <trkpt lat="44.68713" lon="5.5042">
        <ele>597</ele>
        <time>2017-12-15T19:09:49Z</time>
      </trkpt>
      <trkpt lat="44.68719" lon="5.50443">
        <ele>597.8</ele>
        <time>2017-12-15T19:10:08Z</time>
      </trkpt>
      <trkpt lat="44.68736" lon="5.50483">
        <ele>596.7</ele>
        <time>2017-12-15T19:10:14Z</time>
      </trkpt>
      <trkpt lat="44.68756" lon="5.5052">
        <ele>594.7</ele>
        <time>2017-12-15T19:10:16Z</time>
      </trkpt>
      <trkpt lat="44.68789" lon="5.50586">
        <ele>594</ele>
        <time>2017-12-15T19:10:25Z</time>
      </trkpt>
      <trkpt lat="44.68795" lon="5.50608">
        <ele>594.2</ele>
        <time>2017-12-15T19:10:38Z</time>
      </trkpt>
      <trkpt lat="44.68796" lon="5.50625">
        <ele>594.4</ele>
        <time>2017-12-15T19:10:46Z</time>
      </trkpt>
      <trkpt lat="44.6879" lon="5.5068">
        <ele>597</ele>
        <time>2017-12-15T19:11:00Z</time>
      </trkpt>
      <trkpt lat="44.68796" lon="5.50731">
        <ele>595.9</ele>
        <time>2017-12-15T19:11:09Z</time>
      </trkpt>
      <trkpt lat="44.68804" lon="5.50775">
        <ele>594.6</ele>
        <time>2017-12-15T19:11:11Z</time>
      </trkpt>
      <trkpt lat="44.68807" lon="5.50808">
        <ele>595.6</ele>
        <time>2017-12-15T19:11:14Z</time>
      </trkpt>
      <trkpt lat="44.68808" lon="5.50849">
        <ele>597.2</ele>
        <time>2017-12-15T19:11:31Z</time>
      </trkpt>
      <trkpt lat="44.68813" lon="5.50884">
        <ele>597.5</ele>
        <time>2017-12-15T19:11:39Z</time>
      </trkpt>
      <trkpt lat="44.68828" lon="5.50956">
        <ele>595.4</ele>
        <time>2017-12-15T19:11:56Z</time>
      </trkpt>
      <trkpt lat="44.68833" lon="5.50984">
        <ele>592.8</ele>
        <time>2017-12-15T19:11:59Z</time>
      </trkpt>
      <trkpt lat="44.68829" lon="5.51008">
        <ele>593.5</ele>
        <time>2017-12-15T19:12:15Z</time>
      </trkpt>
      <trkpt lat="44.68815" lon="5.51045">
        <ele>594.9</ele>
        <time>2017-12-15T19:12:31Z</time>
      </trkpt>
      <trkpt lat="44.6879" lon="5.51113">
        <ele>596.1</ele>
        <time>2017-12-15T19:12:36Z</time>
      </trkpt>
      <trkpt lat="44.68778" lon="5.51145">
        <ele>597</ele>
        <time>2017-12-15T19:12:44Z</time>
      </trkpt>
      <trkpt lat="44.68769" lon="5.51161">
        <ele>599.6</ele>
        <time>2017-12-15T19:12:47Z</time>
      </trkpt>
      <trkpt lat="44.68758" lon="5.51179">
        <ele>602.6</ele>
        <time>2017-12-15T19:13:07Z</time>
      </trkpt>
      <trkpt lat="44.68748" lon="5.512">
        <ele>604.1</ele>
        <time>2017-12-15T19:13:20Z</time>
      </trkpt>
      <trkpt lat="44.68738" lon="5.5124">
        <ele>603</ele>
        <time>2017-12-15T19:13:24Z</time>
      </trkpt>
      <trkpt lat="44.68727" lon="5.51273">
        <ele>602.9</ele>
        <time>2017-12-15T19:13:29Z</time>
      </trkpt>
      <trkpt lat="44.68707" lon="5.51331">
        <ele>602.5</ele>
        <time>2017-12-15T19:13:49Z</time>
      </trkpt>
      <trkpt lat="44.68698" lon="5.51378">
        <ele>595.7</ele>
        <time>2017-12-15T19:14:05Z</time>
      </trkpt>
      <trkpt lat="44.68692" lon="5.51392">
        <ele>594.2</ele>
        <time>2017-12-15T19:14:12Z</time>
      </trkpt>
      <trkpt lat="44.68674" lon="5.51408">
        <ele>595.7</ele>
        <time>2017-12-15T19:14:27Z</time>
      </trkpt>
      <trkpt lat="44.68654" lon="5.5142">
        <ele>599.3</ele>
        <time>2017-12-15T19:14:45Z</time>
      </trkpt>
      <trkpt lat="44.6864" lon="5.51432">
        <ele>601.2</ele>
        <time>2017-12-15T19:14:56Z</time>
      </trkpt>
      <trkpt lat="44.6863" lon="5.51446">
        <ele>601.8</ele>
        <time>2017-12-15T19:15:06Z</time>
      </trkpt>
      <trkpt lat="44.68619" lon="5.51469">
        <ele>601</ele>
        <time>2017-12-15T19:15:14Z</time>
      </trkpt>
      <trkpt lat="44.68613" lon="5.51485">
        <ele>600.1</ele>
        <time>2017-12-15T19:15:27Z</time>
      </trkpt>
      <trkpt lat="44.68602" lon="5.51515">
        <ele>599.7</ele>
        <time>2017-12-15T19:15:30Z</time>
      </trkpt>
      <trkpt lat="44.68585" lon="5.5155">
        <ele>597.9</ele>
        <time>2017-12-15T19:15:44Z</time>
      </trkpt>
      <trkpt lat="44.68562" lon="5.51583">
        <ele>594.2</ele>
        <time>2017-12-15T19:15:50Z</time>
      </trkpt>
      <trkpt lat="44.68489" lon="5.51675">
        <ele>592.2</ele>
        <time>2017-12-15T19:16:03Z</time>
      </trkpt>
      <trkpt lat="44.68431" lon="5.51751">
        <ele>595.5</ele>
        <time>2017-12-15T19:16:17Z</time>
      </trkpt>
      <trkpt lat="44.68298" lon="5.51923">
        <ele>602.5</ele>
        <time>2017-12-15T19:16:19Z</time>
      </trkpt>
      <trkpt lat="44.6826" lon="5.51967">
        <ele>603.5</ele>
        <time>2017-12-15T19:16:25Z</time>
      </trkpt>
      <trkpt lat="44.68121" lon="5.52097">
        <ele>602.2</ele>
        <time>2017-12-15T19:16:42Z</time>
      </trkpt>
      <trkpt lat="44.6811" lon="5.52108">
        <ele>602.9</ele>
        <time>2017-12-15T19:16:59Z</time>
      </trkpt>
      <trkpt lat="44.68102" lon="5.52124">
        <ele>604</ele>
        <time>2017-12-15T19:17:07Z</time>
      </trkpt>
      <trkpt lat="44.68098" lon="5.52141">
        <ele>603.6</ele>
        <time>2017-12-15T19:17:21Z</time>
      </trkpt>
      <trkpt lat="44.68099" lon="5.52167">
        <ele>601.2</ele>
        <time>2017-12-15T19:17:38Z</time>
      </trkpt>
      <trkpt lat="44.68113" lon="5.52208">
        <ele>599.5</ele>
        <time>2017-12-15T19:17:50Z</time>
      </trkpt>
      <trkpt lat="44.68118" lon="5.52227">
        <ele>601.7</ele>
        <time>2017-12-15T19:18:09Z</time>
      </trkpt>
      <trkpt lat="44.68118" lon="5.52246">
        <ele>602.8</ele>
        <time>2017-12-15T19:18:28Z</time>
      </trkpt>
      <trkpt lat="44.68117" lon="5.52262">
        <ele>604</ele>
        <time>2017-12-15T19:18:32Z</time>
      </trkpt>
      <trkpt lat="44.68112" lon="5.52275">
        <ele>603.1</ele>
        <time>2017-12-15T19:18:49Z</time>
      </trkpt>
      <trkpt lat="44.6809" lon="5.52324">
        <ele>605.6</ele>
        <time>2017-12-15T19:18:52Z</time>
      </trkpt>
      <trkpt lat="44.68056" lon="5.52402">
        <ele>606.6</ele>
        <time>2017-12-15T19:18:57Z</time>
      </trkpt>
      <trkpt lat="44.68049" lon="5.52425">
        <ele>607.5</ele>
        <time>2017-12-15T19:19:14Z</time>
      </trkpt>
      <trkpt lat="44.68047" lon="5.52464">
        <ele>608.9</ele>
        <time>2017-12-15T19:19:23Z</time>
      </trkpt>
      <trkpt lat="44.68057" lon="5.52533">
        <ele>612.9</ele>
        <time>2017-12-15T19:19:41Z</time>
      </trkpt>
      <trkpt lat="44.68061" lon="5.52568">
        <ele>615.2</ele>
        <time>2017-12-15T19:19:47Z</time>
      </trkpt>
      <trkpt lat="44.68058" lon="5.52585">
        <ele>613.4</ele>
        <time>2017-12-15T19:20:05Z</time>
      </trkpt>
      <trkpt lat="44.68051" lon="5.52604">
        <ele>612</ele>
        <time>2017-12-15T19:20:25Z</time>
      </trkpt>
      <trkpt lat="44.67916" lon="5.52826">
        <ele>615.2</ele>
        <time>2017-12-15T19:20:28Z</time>
      </trkpt>
      <trkpt lat="44.67839" lon="5.52954">
        <ele>618.7</ele>
        <time>2017-12-15T19:20:37Z</time>
      </trkpt>
      <trkpt lat="44.67799" lon="5.53018">
        <ele>621.6</ele>
        <time>2017-12-15T19:20:54Z</time>
      </trkpt>
      <trkpt lat="44.67758" lon="5.53071">
        <ele>623.7</ele>
        <time>2017-12-15T19:20:56Z</time>
      </trkpt>
      <trkpt lat="44.67732" lon="5.53099">
        <ele>626.4</ele>
        <time>2017-12-15T19:21:16Z</time>
      </trkpt>
      <trkpt lat="44.67705" lon="5.5312">
        <ele>629.8</ele>
        <time>2017-12-15T19:21:19Z</time>
      </trkpt>
      <trkpt lat="44.67632" lon="5.53171">
        <ele>629.6</ele>
        <time>2017-12-15T19:21:38Z</time>
      </trkpt>
      <trkpt lat="44.67621" lon="5.53183">
        <ele>628.4</ele>
        <time>2017-12-15T19:21:51Z</time>
      </trkpt>
      <trkpt lat="44.67614" lon="5.53196">
        <ele>626.7</ele>
        <time>2017-12-15T19:22:09Z</time>
      </trkpt>
      <trkpt lat="44.6761" lon="5.5321">
        <ele>627.1</ele>
        <time>2017-12-15T19:22:24Z</time>
      </trkpt>
      <trkpt lat="44.67604" lon="5.53246">
        <ele>631.5</ele>
        <time>2017-12-15T19:22:36Z</time>
      </trkpt>
      <trkpt lat="44.67598" lon="5.53268">
        <ele>632.8</ele>
        <time>2017-12-15T19:22:54Z</time>
      </trkpt>
      <trkpt lat="44.67566" lon="5.53343">
        <ele>629</ele>
        <time>2017-12-15T19:23:02Z</time>
      </trkpt>
      <trkpt lat="44.67536" lon="5.5342">
        <ele>628.8</ele>
        <time>2017-12-15T19:23:22Z</time>
      </trkpt>
      <trkpt lat="44.67529" lon="5.53453">
        <ele>630.3</ele>
        <time>2017-12-15T19:23:40Z</time>
      </trkpt>
      <trkpt lat="44.6752" lon="5.53506">
        <ele>634.8</ele>
        <time>2017-12-15T19:23:43Z</time>
      </trkpt>
      <trkpt lat="44.67513" lon="5.53524">
        <ele>636.1</ele>
        <time>2017-12-15T19:23:56Z</time>
      </trkpt>
      <trkpt lat="44.67504" lon="5.5354">
        <ele>638.2</ele>
        <time>2017-12-15T19:24:13Z</time>
      </trkpt>
      <trkpt lat="44.67493" lon="5.53553">
        <ele>639</ele>
        <time>2017-12-15T19:24:18Z</time>
      </trkpt>
      <trkpt lat="44.67468" lon="5.53576">
        <ele>639.7</ele>
        <time>2017-12-15T19:24:35Z</time>
      </trkpt>
      <trkpt lat="44.67447" lon="5.53589">
        <ele>641.1</ele>
        <time>2017-12-15T19:24:55Z</time>
      </trkpt>
      <trkpt lat="44.67424" lon="5.53595">
        <ele>643</ele>
        <time>2017-12-15T19:24:58Z</time>
      </trkpt>
      <trkpt lat="44.67408" lon="5.53595">
        <ele>644.4</ele>
        <time>2017-12-15T19:25:12Z</time>
      </trkpt>
      <trkpt lat="44.67391" lon="5.53591">
        <ele>645.1</ele>
        <time>2017-12-15T19:25:21Z</time>
      </trkpt>
      <trkpt lat="44.67367" lon="5.53579">
        <ele>645.4</ele>
        <time>2017-12-15T19:25:23Z</time>
      </trkpt>
      <trkpt lat="44.67329" lon="5.53553">
        <ele>648.8</ele>
        <time>2017-12-15T19:25:29Z</time>
      </trkpt>
      <trkpt lat="44.67296" lon="5.53533">
        <ele>647.2</ele>
        <time>2017-12-15T19:25:37Z</time>
      </trkpt>
      <trkpt lat="44.67271" lon="5.53527">
        <ele>642.5</ele>
        <time>2017-12-15T19:25:46Z</time>
      </trkpt>
      <trkpt lat="44.6726" lon="5.53527">
        <ele>639</ele>
        <time>2017-12-15T19:26:03Z</time>
      </trkpt>
      <trkpt lat="44.67252" lon="5.53531">
        <ele>637.9</ele>
        <time>2017-12-15T19:26:21Z</time>
      </trkpt>
      <trkpt lat="44.67245" lon="5.53539">
        <ele>638.6</ele>
        <time>2017-12-15T19:26:29Z</time>
      </trkpt>
      <trkpt lat="44.67241" lon="5.5355">
        <ele>640.1</ele>
        <time>2017-12-15T19:26:38Z</time>
      </trkpt>
      <trkpt lat="44.6724" lon="5.53588">
        <ele>643.3</ele>
        <time>2017-12-15T19:26:48Z</time>
      </trkpt>
      <trkpt lat="44.6724" lon="5.53608">
        <ele>644.9</ele>
        <time>2017-12-15T19:27:01Z</time>
      </trkpt>
      <trkpt lat="44.67237" lon="5.5363">
        <ele>642.7</ele>
        <time>2017-12-15T19:27:10Z</time>
      </trkpt>
      <trkpt lat="44.67232" lon="5.53649">
        <ele>639.9</ele>
        <time>2017-12-15T19:27:22Z</time>
      </trkpt>
      <trkpt lat="44.67186" lon="5.53753">
        <ele>639.6</ele>
        <time>2017-12-15T19:27:30Z</time>
      </trkpt>
      <trkpt lat="44.67152" lon="5.5383">
        <ele>644.1</ele>
        <time>2017-12-15T19:27:38Z</time>
      </trkpt>
      <trkpt lat="44.6714" lon="5.53851">
        <ele>642.2</ele>
        <time>2017-12-15T19:27:55Z</time>
      </trkpt>
      <trkpt lat="44.67117" lon="5.53881">
        <ele>639.9</ele>
        <time>2017-12-15T19:28:06Z</time>
      </trkpt>
      <trkpt lat="44.67018" lon="5.54009">
        <ele>641.3</ele>
        <time>2017-12-15T19:28:19Z</time>
      </trkpt>
      <trkpt lat="44.66951" lon="5.54093">
        <ele>649.5</ele>
        <time>2017-12-15T19:28:24Z</time>
      </trkpt>
      <trkpt lat="44.66852" lon="5.54219">
        <ele>647.8</ele>
        <time>2017-12-15T19:28:36Z</time>
      </trkpt>
      <trkpt lat="44.66834" lon="5.54248">
        <ele>647</ele>
        <time>2017-12-15T19:28:43Z</time>
      </trkpt>
      <trkpt lat="44.66818" lon="5.5428">
        <ele>649</ele>
        <time>2017-12-15T19:28:49Z</time>
      </trkpt>
      <trkpt lat="44.6681" lon="5.543">
        <ele>649.2</ele>
        <time>2017-12-15T19:28:56Z</time>
      </trkpt>
      <trkpt lat="44.66801" lon="5.54334">
        <ele>649.9</ele>
        <time>2017-12-15T19:29:04Z</time>
      </trkpt>
      <trkpt lat="44.66799" lon="5.54351">
        <ele>650</ele>
        <time>2017-12-15T19:29:20Z</time>
      </trkpt>
      <trkpt lat="44.66801" lon="5.54363">
        <ele>650.6</ele>
        <time>2017-12-15T19:29:34Z</time>
      </trkpt>
      <trkpt lat="44.66806" lon="5.54375">
        <ele>650.3</ele>
        <time>2017-12-15T19:29:42Z</time>
      </trkpt>
      <trkpt lat="44.66814" lon="5.54383">
        <ele>654</ele>
        <time>2017-12-15T19:29:52Z</time>
      </trkpt>
      <trkpt lat="44.66826" lon="5.54394">
        <ele>659.6</ele>
        <time>2017-12-15T19:29:54Z</time>
      </trkpt>
      <trkpt lat="44.66832" lon="5.54404">
        <ele>661.5</ele>
        <time>2017-12-15T19:29:58Z</time>
      </trkpt>
      <trkpt lat="44.66838" lon="5.5442">
        <ele>663.9</ele>
        <time>2017-12-15T19:30:16Z</time>
      </trkpt>
      <trkpt lat="44.66839" lon="5.54437">
        <ele>661.4</ele>
        <time>2017-12-15T19:30:35Z</time>
      </trkpt>
      <trkpt lat="44.66836" lon="5.54455">
        <ele>658.4</ele>
        <time>2017-12-15T19:30:47Z</time>
      </trkpt>
      <trkpt lat="44.66831" lon="5.54472">
        <ele>656.8</ele>
        <time>2017-12-15T19:30:57Z</time>
      </trkpt>
      <trkpt lat="44.6682" lon="5.54491">
        <ele>655.4</ele>
        <time>2017-12-15T19:31:12Z</time>
      </trkpt>
      <trkpt lat="44.66806" lon="5.5451">
        <ele>650.6</ele>
        <time>2017-12-15T19:31:21Z</time>
      </trkpt>
      <trkpt lat="44.66727" lon="5.5458">
        <ele>656.8</ele>
        <time>2017-12-15T19:31:26Z</time>
      </trkpt>
      <trkpt lat="44.66695" lon="5.54614">
        <ele>661.1</ele>
        <time>2017-12-15T19:31:45Z</time>
      </trkpt>
      <trkpt lat="44.66678" lon="5.54629">
        <ele>665</ele>
        <time>2017-12-15T19:32:02Z</time>
      </trkpt>
      <trkpt lat="44.66655" lon="5.54639">
        <ele>662.6</ele>
        <time>2017-12-15T19:32:13Z</time>
      </trkpt>
      <trkpt lat="44.66623" lon="5.54654">
        <ele>663.8</ele>
        <time>2017-12-15T19:32:21Z</time>
      </trkpt>
      <trkpt lat="44.6661" lon="5.54663">
        <ele>662.9</ele>
        <time>2017-12-15T19:32:26Z</time>
      </trkpt>
      <trkpt lat="44.66606" lon="5.5467">
        <ele>663.9</ele>
        <time>2017-12-15T19:32:44Z</time>
      </trkpt>
      <trkpt lat="44.66606" lon="5.54686">
        <ele>668.7</ele>
        <time>2017-12-15T19:33:01Z</time>
      </trkpt>
      <trkpt lat="44.66616" lon="5.54733">
        <ele>678.5</ele>
        <time>2017-12-15T19:33:15Z</time>
      </trkpt>
      <trkpt lat="44.66625" lon="5.54775">
        <ele>671.1</ele>
        <time>2017-12-15T19:33:25Z</time>
      </trkpt>
      <trkpt lat="44.66625" lon="5.54785">
        <ele>668.7</ele>
        <time>2017-12-15T19:33:44Z</time>
      </trkpt>
      <trkpt lat="44.66656" lon="5.54866">
        <ele>669.2</ele>
        <time>2017-12-15T19:33:56Z</time>
      </trkpt>
      <trkpt lat="44.66689" lon="5.5495">
        <ele>671.1</ele>
        <time>2017-12-15T19:34:04Z</time>
      </trkpt>
      <trkpt lat="44.6674" lon="5.55087">
        <ele>672.2</ele>
        <time>2017-12-15T19:34:09Z</time>
      </trkpt>
      <trkpt lat="44.66789" lon="5.55204">
        <ele>670.3</ele>
        <time>2017-12-15T19:34:17Z</time>
      </trkpt>
      <trkpt lat="44.66812" lon="5.55258">
        <ele>668.2</ele>
        <time>2017-12-15T19:34:23Z</time>
      </trkpt>
      <trkpt lat="44.6683" lon="5.5529">
        <ele>668</ele>
        <time>2017-12-15T19:34:29Z</time>
      </trkpt>
      <trkpt lat="44.66927" lon="5.55434">
        <ele>678.3</ele>
        <time>2017-12-15T19:34:41Z</time>
      </trkpt>
      <trkpt lat="44.67042" lon="5.55581">
        <ele>681.3</ele>
        <time>2017-12-15T19:34:46Z</time>
      </trkpt>
      <trkpt lat="44.67053" lon="5.55593">
        <ele>681.1</ele>
        <time>2017-12-15T19:34:56Z</time>
      </trkpt>
      <trkpt lat="44.67065" lon="5.55603">
        <ele>682.3</ele>
        <time>2017-12-15T19:35:14Z</time>
      </trkpt>
      <trkpt lat="44.67079" lon="5.55612">
        <ele>682.1</ele>
        <time>2017-12-15T19:35:30Z</time>
      </trkpt>
      <trkpt lat="44.67097" lon="5.55618">
        <ele>686.7</ele>
        <time>2017-12-15T19:35:40Z</time>
      </trkpt>
      <trkpt lat="44.67133" lon="5.55626">
        <ele>694.5</ele>
        <time>2017-12-15T19:35:48Z</time>
      </trkpt>
      <trkpt lat="44.67155" lon="5.55634">
        <ele>697</ele>
        <time>2017-12-15T19:35:58Z</time>
      </trkpt>
      <trkpt lat="44.6717" lon="5.55645">
        <ele>696.9</ele>
        <time>2017-12-15T19:36:00Z</time>
      </trkpt>
      <trkpt lat="44.67181" lon="5.55663">
        <ele>693.7</ele>
        <time>2017-12-15T19:36:14Z</time>
      </trkpt>
      <trkpt lat="44.67189" lon="5.55695">
        <ele>687.4</ele>
        <time>2017-12-15T19:36:25Z</time>
      </trkpt>
      <trkpt lat="44.67194" lon="5.55728">
        <ele>684.3</ele>
        <time>2017-12-15T19:36:34Z</time>
      </trkpt>
      <trkpt lat="44.67198" lon="5.55762">
        <ele>682.9</ele>
        <time>2017-12-15T19:36:40Z</time>
      </trkpt>
      <trkpt lat="44.67201" lon="5.55779">
        <ele>682.9</ele>
        <time>2017-12-15T19:36:44Z</time>
      </trkpt>
      <trkpt lat="44.67209" lon="5.55792">
        <ele>684.1</ele>
        <time>2017-12-15T19:36:48Z</time>
      </trkpt>
      <trkpt lat="44.67219" lon="5.55804">
        <ele>684</ele>
        <time>2017-12-15T19:36:55Z</time>
      </trkpt>
      <trkpt lat="44.67239" lon="5.55817">
        <ele>689.1</ele>
        <time>2017-12-15T19:37:14Z</time>
      </trkpt>
      <trkpt lat="44.67281" lon="5.55838">
        <ele>697.7</ele>
        <time>2017-12-15T19:37:23Z</time>
      </trkpt>
      <trkpt lat="44.67294" lon="5.55847">
        <ele>698.8</ele>
        <time>2017-12-15T19:37:40Z</time>
      </trkpt>
      <trkpt lat="44.67302" lon="5.55858">
        <ele>696.5</ele>
        <time>2017-12-15T19:37:44Z</time>
      </trkpt>
      <trkpt lat="44.67316" lon="5.55886">
        <ele>693.8</ele>
        <time>2017-12-15T19:38:00Z</time>
      </trkpt>
      <trkpt lat="44.6733" lon="5.55922">
        <ele>690.5</ele>
        <time>2017-12-15T19:38:17Z</time>
      </trkpt>
      <trkpt lat="44.67337" lon="5.55936">
        <ele>689.3</ele>
        <time>2017-12-15T19:38:31Z</time>
      </trkpt>
      <trkpt lat="44.67348" lon="5.55946">
        <ele>689.5</ele>
        <time>2017-12-15T19:38:37Z</time>
      </trkpt>
      <trkpt lat="44.67363" lon="5.55955">
        <ele>690.5</ele>
        <time>2017-12-15T19:38:56Z</time>
      </trkpt>
      <trkpt lat="44.67372" lon="5.55963">
        <ele>690.6</ele>
        <time>2017-12-15T19:39:08Z</time>
      </trkpt>
      <trkpt lat="44.67383" lon="5.55977">
        <ele>689.6</ele>
        <time>2017-12-15T19:39:21Z</time>
      </trkpt>
      <trkpt lat="44.67389" lon="5.55991">
        <ele>688.3</ele>
        <time>2017-12-15T19:39:31Z</time>
      </trkpt>
      <trkpt lat="44.67392" lon="5.56007">
        <ele>687.4</ele>
        <time>2017-12-15T19:39:45Z</time>
      </trkpt>
      <trkpt lat="44.67392" lon="5.56095">
        <ele>688.8</ele>
        <time>2017-12-15T19:39:58Z</time>
      </trkpt>
      <trkpt lat="44.67395" lon="5.56137">
        <ele>691.4</ele>
        <time>2017-12-15T19:40:12Z</time>
      </trkpt>
      <trkpt lat="44.674" lon="5.56152">
        <ele>692</ele>
        <time>2017-12-15T19:40:26Z</time>
      </trkpt>
      <trkpt lat="44.67409" lon="5.56167">
        <ele>690.3</ele>
        <time>2017-12-15T19:40:39Z</time>
      </trkpt>
      <trkpt lat="44.67419" lon="5.56178">
        <ele>690.5</ele>
        <time>2017-12-15T19:40:44Z</time>
      </trkpt>
      <trkpt lat="44.67434" lon="5.56185">
        <ele>691.6</ele>
        <time>2017-12-15T19:40:51Z</time>
      </trkpt>
      <trkpt lat="44.67555" lon="5.56193">
        <ele>692.4</ele>
        <time>2017-12-15T19:40:56Z</time>
      </trkpt>
      <trkpt lat="44.6759" lon="5.56195">
        <ele>695.8</ele>
        <time>2017-12-15T19:41:13Z</time>
      </trkpt>
      <trkpt lat="44.67604" lon="5.56193">
        <ele>697.7</ele>
        <time>2017-12-15T19:41:28Z</time>
      </trkpt>
      <trkpt lat="44.67627" lon="5.56185">
        <ele>702.4</ele>
        <time>2017-12-15T19:41:48Z</time>
      </trkpt>
      <trkpt lat="44.67648" lon="5.5618">
        <ele>706.2</ele>
        <time>2017-12-15T19:42:05Z</time>
      </trkpt>
      <trkpt lat="44.67668" lon="5.56182">
        <ele>707.8</ele>
        <time>2017-12-15T19:42:10Z</time>
      </trkpt>
      <trkpt lat="44.67682" lon="5.56191">
        <ele>707.2</ele>
        <time>2017-12-15T19:42:19Z</time>
      </trkpt>
      <trkpt lat="44.67696" lon="5.56209">
        <ele>705.1</ele>
        <time>2017-12-15T19:42:25Z</time>
      </trkpt>
      <trkpt lat="44.67702" lon="5.56228">
        <ele>704.7</ele>
        <time>2017-12-15T19:42:44Z</time>
      </trkpt>
      <trkpt lat="44.67705" lon="5.56254">
        <ele>707.7</ele>
        <time>2017-12-15T19:42:58Z</time>
      </trkpt>
      <trkpt lat="44.67699" lon="5.56277">
        <ele>707</ele>
        <time>2017-12-15T19:43:08Z</time>
      </trkpt>
      <trkpt lat="44.67685" lon="5.56304">
        <ele>704.5</ele>
        <time>2017-12-15T19:43:12Z</time>
      </trkpt>
      <trkpt lat="44.67678" lon="5.56323">
        <ele>702.5</ele>
        <time>2017-12-15T19:43:31Z</time>
      </trkpt>
      <trkpt lat="44.67678" lon="5.56333">
        <ele>702.7</ele>
        <time>2017-12-15T19:43:36Z</time>
      </trkpt>
      <trkpt lat="44.67681" lon="5.56341">
        <ele>703.4</ele>
        <time>2017-12-15T19:43:45Z</time>
      </trkpt>
      <trkpt lat="44.67686" lon="5.56349">
        <ele>703.3</ele>
        <time>2017-12-15T19:43:55Z</time>
      </trkpt>
      <trkpt lat="44.67713" lon="5.5637">
        <ele>712.5</ele>
        <time>2017-12-15T19:44:12Z</time>
      </trkpt>
      <trkpt lat="44.67724" lon="5.56382">
        <ele>714.9</ele>
        <time>2017-12-15T19:44:23Z</time>
      </trkpt>
      <trkpt lat="44.67748" lon="5.56421">
        <ele>716.4</ele>
        <time>2017-12-15T19:44:43Z</time>
      </trkpt>
      <trkpt lat="44.67762" lon="5.56439">
        <ele>714.3</ele>
        <time>2017-12-15T19:44:55Z</time>
      </trkpt>
      <trkpt lat="44.67771" lon="5.56448">
        <ele>714.1</ele>
        <time>2017-12-15T19:44:59Z</time>
      </trkpt>
      <trkpt lat="44.67782" lon="5.56455">
        <ele>715.6</ele>
        <time>2017-12-15T19:45:15Z</time>
      </trkpt>
      <trkpt lat="44.67801" lon="5.56461">
        <ele>720.9</ele>
        <time>2017-12-15T19:45:22Z</time>
      </trkpt>
      <trkpt lat="44.67821" lon="5.56466">
        <ele>726.4</ele>
        <time>2017-12-15T19:45:33Z</time>
      </trkpt>
      <trkpt lat="44.67836" lon="5.56477">
        <ele>726.7</ele>
        <time>2017-12-15T19:45:35Z</time>
      </trkpt>
      <trkpt lat="44.67843" lon="5.56489">
        <ele>725.8</ele>
        <time>2017-12-15T19:45:43Z</time>
      </trkpt>
      <trkpt lat="44.67848" lon="5.56504">
        <ele>722.5</ele>
        <time>2017-12-15T19:46:01Z</time>
      </trkpt>
      <trkpt lat="44.67854" lon="5.56558">
        <ele>715.4</ele>
        <time>2017-12-15T19:46:14Z</time>
      </trkpt>
      <trkpt lat="44.67869" lon="5.56604">
        <ele>718.1</ele>
        <time>2017-12-15T19:46:21Z</time>
      </trkpt>
      <trkpt lat="44.67878" lon="5.56653">
        <ele>713.9</ele>
        <time>2017-12-15T19:46:36Z</time>
      </trkpt>
      <trkpt lat="44.67882" lon="5.56679">
        <ele>709.9</ele>
        <time>2017-12-15T19:46:38Z</time>
      </trkpt>
      <trkpt lat="44.67888" lon="5.56693">
        <ele>705.7</ele>
        <time>2017-12-15T19:46:51Z</time>
      </trkpt>
      <trkpt lat="44.67895" lon="5.56705">
        <ele>708.4</ele>
        <time>2017-12-15T19:46:57Z</time>
      </trkpt>
      <trkpt lat="44.67905" lon="5.56713">
        <ele>710.5</ele>
        <time>2017-12-15T19:47:11Z</time>
      </trkpt>
      <trkpt lat="44.67933" lon="5.56726">
        <ele>715.7</ele>
        <time>2017-12-15T19:47:21Z</time>
      </trkpt>
      <trkpt lat="44.67948" lon="5.56743">
        <ele>716.2</ele>
        <time>2017-12-15T19:47:29Z</time>
      </trkpt>
      <trkpt lat="44.67968" lon="5.56787">
        <ele>714.7</ele>
        <time>2017-12-15T19:47:33Z</time>
      </trkpt>
      <trkpt lat="44.67989" lon="5.56829">
        <ele>716.9</ele>
        <time>2017-12-15T19:47:47Z</time>
      </trkpt>
      <trkpt lat="44.68007" lon="5.56862">
        <ele>715.9</ele>
        <time>2017-12-15T19:48:05Z</time>
      </trkpt>
      <trkpt lat="44.68069" lon="5.56968">
        <ele>718.3</ele>
        <time>2017-12-15T19:48:20Z</time>
      </trkpt>
      <trkpt lat="44.68093" lon="5.57007">
        <ele>722.2</ele>
        <time>2017-12-15T19:48:37Z</time>
      </trkpt>
      <trkpt lat="44.68104" lon="5.5702">
        <ele>722.5</ele>
        <time>2017-12-15T19:48:54Z</time>
      </trkpt>
      <trkpt lat="44.68116" lon="5.5703">
        <ele>721.1</ele>
        <time>2017-12-15T19:48:57Z</time>
      </trkpt>
      <trkpt lat="44.68136" lon="5.57037">
        <ele>725.8</ele>
        <time>2017-12-15T19:49:05Z</time>
      </trkpt>
      <trkpt lat="44.68175" lon="5.57047">
        <ele>737.4</ele>
        <time>2017-12-15T19:49:22Z</time>
      </trkpt>
      <trkpt lat="44.68186" lon="5.57052">
        <ele>739.4</ele>
        <time>2017-12-15T19:49:41Z</time>
      </trkpt>
      <trkpt lat="44.68196" lon="5.57061">
        <ele>738.9</ele>
        <time>2017-12-15T19:49:54Z</time>
      </trkpt>
      <trkpt lat="44.68204" lon="5.57072">
        <ele>737.1</ele>
        <time>2017-12-15T19:49:58Z</time>
      </trkpt>
      <trkpt lat="44.6821" lon="5.57086">
        <ele>733.4</ele>
        <time>2017-12-15T19:50:00Z</time>
      </trkpt>
      <trkpt lat="44.68217" lon="5.57119">
        <ele>725.4</ele>
        <time>2017-12-15T19:50:03Z</time>
      </trkpt>
      <trkpt lat="44.68225" lon="5.57161">
        <ele>719.2</ele>
        <time>2017-12-15T19:50:09Z</time>
      </trkpt>
      <trkpt lat="44.68234" lon="5.57188">
        <ele>720.9</ele>
        <time>2017-12-15T19:50:26Z</time>
      </trkpt>
      <trkpt lat="44.68241" lon="5.57206">
        <ele>721.4</ele>
        <time>2017-12-15T19:50:38Z</time>
      </trkpt>
      <trkpt lat="44.6826" lon="5.5724">
        <ele>722.1</ele>
        <time>2017-12-15T19:50:53Z</time>
      </trkpt>
      <trkpt lat="44.68285" lon="5.57279">
        <ele>722.5</ele>
        <time>2017-12-15T19:51:13Z</time>
      </trkpt>
      <trkpt lat="44.68303" lon="5.57309">
        <ele>720.7</ele>
        <time>2017-12-15T19:51:25Z</time>
      </trkpt>
      <trkpt lat="44.68316" lon="5.57338">
        <ele>724.9</ele>
        <time>2017-12-15T19:51:27Z</time>
      </trkpt>
      <trkpt lat="44.68326" lon="5.57358">
        <ele>729.7</ele>
        <time>2017-12-15T19:51:44Z</time>
      </trkpt>
      <trkpt lat="44.68334" lon="5.5737">
        <ele>732.3</ele>
        <time>2017-12-15T19:52:01Z</time>
      </trkpt>
      <trkpt lat="44.68343" lon="5.57378">
        <ele>736.3</ele>
        <time>2017-12-15T19:52:17Z</time>
      </trkpt>
      <trkpt lat="44.68354" lon="5.57384">
        <ele>739.2</ele>
        <time>2017-12-15T19:52:28Z</time>
      </trkpt>
      <trkpt lat="44.68384" lon="5.57393">
        <ele>746.9</ele>
        <time>2017-12-15T19:52:36Z</time>
      </trkpt>
      <trkpt lat="44.68398" lon="5.57397">
        <ele>749.7</ele>
        <time>2017-12-15T19:52:51Z</time>
      </trkpt>
      <trkpt lat="44.68437" lon="5.57421">
        <ele>749.7</ele>
        <time>2017-12-15T19:52:53Z</time>
      </trkpt>
      <trkpt lat="44.68498" lon="5.57468">
        <ele>752.5</ele>
        <time>2017-12-15T19:53:00Z</time>
      </trkpt>
      <trkpt lat="44.68534" lon="5.57499">
        <ele>751.8</ele>
        <time>2017-12-15T19:53:09Z</time>
      </trkpt>
      <trkpt lat="44.68544" lon="5.57508">
        <ele>753.8</ele>
        <time>2017-12-15T19:53:29Z</time>
      </trkpt>
      <trkpt lat="44.68567" lon="5.57521">
        <ele>753.9</ele>
        <time>2017-12-15T19:53:44Z</time>
      </trkpt>
      <trkpt lat="44.6858" lon="5.57525">
        <ele>752.9</ele>
        <time>2017-12-15T19:53:46Z</time>
      </trkpt>
      <trkpt lat="44.68594" lon="5.57526">
        <ele>752.3</ele>
        <time>2017-12-15T19:53:49Z</time>
      </trkpt>
      <trkpt lat="44.68621" lon="5.57523">
        <ele>753.7</ele>
        <time>2017-12-15T19:53:55Z</time>
      </trkpt>
      <trkpt lat="44.68654" lon="5.57516">
        <ele>762.5</ele>
        <time>2017-12-15T19:54:11Z</time>
      </trkpt>
      <trkpt lat="44.68673" lon="5.57513">
        <ele>769.9</ele>
        <time>2017-12-15T19:54:27Z</time>
      </trkpt>
      <trkpt lat="44.68698" lon="5.5752">
        <ele>772.7</ele>
        <time>2017-12-15T19:54:47Z</time>
      </trkpt>
      <trkpt lat="44.6871" lon="5.57526">
        <ele>772.1</ele>
        <time>2017-12-15T19:54:57Z</time>
      </trkpt>
      <trkpt lat="44.68721" lon="5.57536">
        <ele>768.2</ele>
        <time>2017-12-15T19:55:15Z</time>
      </trkpt>
      <trkpt lat="44.68741" lon="5.57563">
        <ele>762.8</ele>
        <time>2017-12-15T19:55:25Z</time>
      </trkpt>
      <trkpt lat="44.68754" lon="5.57588">
        <ele>760.4</ele>
        <time>2017-12-15T19:55:29Z</time>
      </trkpt>
      <trkpt lat="44.68769" lon="5.57626">
        <ele>761.7</ele>
        <time>2017-12-15T19:55:41Z</time>
      </trkpt>
      <trkpt lat="44.68807" lon="5.57726">
        <ele>755.5</ele>
        <time>2017-12-15T19:55:45Z</time>
      </trkpt>
      <trkpt lat="44.6882" lon="5.5775">
        <ele>761.3</ele>
        <time>2017-12-15T19:55:58Z</time>
      </trkpt>
      <trkpt lat="44.6883" lon="5.57764">
        <ele>755.9</ele>
        <time>2017-12-15T19:56:11Z</time>
      </trkpt>
      <trkpt lat="44.68863" lon="5.57802">
        <ele>764.8</ele>
        <time>2017-12-15T19:56:26Z</time>
      </trkpt>
      <trkpt lat="44.6887" lon="5.57817">
        <ele>769.8</ele>
        <time>2017-12-15T19:56:40Z</time>
      </trkpt>
      <trkpt lat="44.68876" lon="5.57834">
        <ele>772.6</ele>
        <time>2017-12-15T19:56:48Z</time>
      </trkpt>
      <trkpt lat="44.68878" lon="5.57852">
        <ele>772.2</ele>
        <time>2017-12-15T19:56:59Z</time>
      </trkpt>
      <trkpt lat="44.68878" lon="5.5788">
        <ele>767.4</ele>
        <time>2017-12-15T19:57:06Z</time>
      </trkpt>
      <trkpt lat="44.68876" lon="5.57937">
        <ele>759.4</ele>
        <time>2017-12-15T19:57:10Z</time>
      </trkpt>
      <trkpt lat="44.68879" lon="5.57946">
        <ele>758.4</ele>
        <time>2017-12-15T19:57:20Z</time>
      </trkpt>
      <trkpt lat="44.68886" lon="5.57951">
        <ele>756.9</ele>
        <time>2017-12-15T19:57:31Z</time>
      </trkpt>
      <trkpt lat="44.68893" lon="5.57954">
        <ele>759.3</ele>
        <time>2017-12-15T19:57:45Z</time>
      </trkpt>
      <trkpt lat="44.68914" lon="5.57954">
        <ele>776.3</ele>
        <time>2017-12-15T19:58:03Z</time>
      </trkpt>
      <trkpt lat="44.68945" lon="5.57958">
        <ele>813.6</ele>
        <time>2017-12-15T19:58:19Z</time>
      </trkpt>
      <trkpt lat="44.6897" lon="5.57966">
        <ele>838.4</ele>
        <time>2017-12-15T19:58:39Z</time>
      </trkpt>
      <trkpt lat="44.68984" lon="5.57976">
        <ele>841.2</ele>
        <time>2017-12-15T19:58:55Z</time>
      </trkpt>
      <trkpt lat="44.68992" lon="5.57988">
        <ele>832.3</ele>
        <time>2017-12-15T19:59:04Z</time>
      </trkpt>
      <trkpt lat="44.68997" lon="5.58009">
        <ele>809.7</ele>
        <time>2017-12-15T19:59:23Z</time>
      </trkpt>
      <trkpt lat="44.69001" lon="5.58048">
        <ele>779</ele>
        <time>2017-12-15T19:59:29Z</time>
      </trkpt>
      <trkpt lat="44.69001" lon="5.58064">
        <ele>772.5</ele>
        <time>2017-12-15T19:59:34Z</time>
      </trkpt>
      <trkpt lat="44.68998" lon="5.58066">
        <ele>771.5</ele>
        <time>2017-12-15T19:59:37Z</time>
      </trkpt>
      <trkpt lat="44.68995" lon="5.58065">
        <ele>771.2</ele>
        <time>2017-12-15T19:59:42Z</time>
      </trkpt>
      <trkpt lat="44.68993" lon="5.5806">
        <ele>771.5</ele>
        <time>2017-12-15T19:59:48Z</time>
      </trkpt>
      <trkpt lat="44.68992" lon="5.58048">
        <ele>775.6</ele>
        <time>2017-12-15T19:59:55Z</time>
      </trkpt>
      <trkpt lat="44.6899" lon="5.58015">
        <ele>798.1</ele>
        <time>2017-12-15T20:00:10Z</time>
      </trkpt>
      <trkpt lat="44.68982" lon="5.57993">
        <ele>816.4</ele>
        <time>2017-12-15T20:00:17Z</time>
      </trkpt>
      <trkpt lat="44.68975" lon="5.57985">
        <ele>820.5</ele>
        <time>2017-12-15T20:00:23Z</time>
      </trkpt>
      <trkpt lat="44.68965" lon="5.57981">
        <ele>814.2</ele>
        <time>2017-12-15T20:00:32Z</time>
      </trkpt>
      <trkpt lat="44.68942" lon="5.57977">
        <ele>790.7</ele>
        <time>2017-12-15T20:00:34Z</time>
      </trkpt>
      <trkpt lat="44.68925" lon="5.57977">
        <ele>773.2</ele>
        <time>2017-12-15T20:00:53Z</time>
      </trkpt>
      <trkpt lat="44.689" lon="5.57981">
        <ele>761.6</ele>
        <time>2017-12-15T20:00:59Z</time>
      </trkpt>
      <trkpt lat="44.68875" lon="5.57977">
        <ele>767</ele>
        <time>2017-12-15T20:01:10Z</time>
      </trkpt>
      <trkpt lat="44.68858" lon="5.57974">
        <ele>774.9</ele>
        <time>2017-12-15T20:01:26Z</time>
      </trkpt>
      <trkpt lat="44.68847" lon="5.57976">
        <ele>776.5</ele>
        <time>2017-12-15T20:01:32Z</time>
      </trkpt>
      <trkpt lat="44.68833" lon="5.57987">
        <ele>780.1</ele>
        <time>2017-12-15T20:01:41Z</time>
      </trkpt>
      <trkpt lat="44.6881" lon="5.58013">
        <ele>782</ele>
        <time>2017-12-15T20:02:00Z</time>
      </trkpt>
      <trkpt lat="44.68797" lon="5.58033">
        <ele>781.9</ele>
        <time>2017-12-15T20:02:06Z</time>
      </trkpt>
      <trkpt lat="44.68779" lon="5.58081">
        <ele>783.9</ele>
        <time>2017-12-15T20:02:14Z</time>
      </trkpt>
      <trkpt lat="44.68768" lon="5.58125">
        <ele>785</ele>
        <time>2017-12-15T20:02:17Z</time>
      </trkpt>
      <trkpt lat="44.68761" lon="5.58175">
        <ele>785.9</ele>
        <time>2017-12-15T20:02:35Z</time>
      </trkpt>
      <trkpt lat="44.68764" lon="5.58257">
        <ele>786.8</ele>
        <time>2017-12-15T20:02:43Z</time>
      </trkpt>
      <trkpt lat="44.68764" lon="5.58291">
        <ele>786.8</ele>
        <time>2017-12-15T20:02:52Z</time>
      </trkpt>
      <trkpt lat="44.68769" lon="5.58306">
        <ele>787.8</ele>
        <time>2017-12-15T20:03:10Z</time>
      </trkpt>
      <trkpt lat="44.68776" lon="5.5832">
        <ele>789.3</ele>
        <time>2017-12-15T20:03:25Z</time>
      </trkpt>
      <trkpt lat="44.68785" lon="5.58331">
        <ele>791.5</ele>
        <time>2017-12-15T20:03:30Z</time>
      </trkpt>
      <trkpt lat="44.68802" lon="5.58358">
        <ele>797.4</ele>
        <time>2017-12-15T20:03:32Z</time>
      </trkpt>
      <trkpt lat="44.68813" lon="5.58389">
        <ele>801.2</ele>
        <time>2017-12-15T20:03:39Z</time>
      </trkpt>
      <trkpt lat="44.68824" lon="5.58413">
        <ele>806</ele>
        <time>2017-12-15T20:03:50Z</time>
      </trkpt>
      <trkpt lat="44.68828" lon="5.58424">
        <ele>808.3</ele>
        <time>2017-12-15T20:04:06Z</time>
      </trkpt>
      <trkpt lat="44.6883" lon="5.58436">
        <ele>810</ele>
        <time>2017-12-15T20:04:26Z</time>
      </trkpt>
      <trkpt lat="44.68827" lon="5.58447">
        <ele>810.1</ele>
        <time>2017-12-15T20:04:30Z</time>
      </trkpt>
      <trkpt lat="44.68822" lon="5.58457">
        <ele>810.7</ele>
        <time>2017-12-15T20:04:46Z</time>
      </trkpt>
      <trkpt lat="44.68815" lon="5.58463">
        <ele>809.4</ele>
        <time>2017-12-15T20:05:01Z</time>
      </trkpt>
      <trkpt lat="44.68796" lon="5.58474">
        <ele>803.9</ele>
        <time>2017-12-15T20:05:03Z</time>
      </trkpt>
      <trkpt lat="44.6877" lon="5.58501">
        <ele>804.8</ele>
        <time>2017-12-15T20:05:11Z</time>
      </trkpt>
      <trkpt lat="44.68753" lon="5.58519">
        <ele>807.7</ele>
        <time>2017-12-15T20:05:18Z</time>
      </trkpt>
      <trkpt lat="44.68739" lon="5.58542">
        <ele>810.3</ele>
        <time>2017-12-15T20:05:29Z</time>
      </trkpt>
      <trkpt lat="44.68728" lon="5.5857">
        <ele>814.5</ele>
        <time>2017-12-15T20:05:43Z</time>
      </trkpt>
      <trkpt lat="44.6871" lon="5.58607">
        <ele>811.1</ele>
        <time>2017-12-15T20:05:56Z</time>
      </trkpt>
      <trkpt lat="44.68705" lon="5.58615">
        <ele>808.5</ele>
        <time>2017-12-15T20:06:05Z</time>
      </trkpt>
      <trkpt lat="44.68684" lon="5.58633">
        <ele>820.3</ele>
        <time>2017-12-15T20:06:12Z</time>
      </trkpt>
      <trkpt lat="44.68679" lon="5.58641">
        <ele>829.6</ele>
        <time>2017-12-15T20:06:28Z</time>
      </trkpt>
      <trkpt lat="44.6867" lon="5.58672">
        <ele>835.9</ele>
        <time>2017-12-15T20:06:42Z</time>
      </trkpt>
      <trkpt lat="44.6866" lon="5.58685">
        <ele>835.4</ele>
        <time>2017-12-15T20:06:47Z</time>
      </trkpt>
      <trkpt lat="44.68645" lon="5.58697">
        <ele>841.9</ele>
        <time>2017-12-15T20:07:04Z</time>
      </trkpt>
      <trkpt lat="44.6862" lon="5.58724">
        <ele>847.7</ele>
        <time>2017-12-15T20:07:11Z</time>
      </trkpt>
      <trkpt lat="44.68602" lon="5.58751">
        <ele>854.9</ele>
        <time>2017-12-15T20:07:16Z</time>
      </trkpt>
      <trkpt lat="44.6857" lon="5.58783">
        <ele>871</ele>
        <time>2017-12-15T20:07:35Z</time>
      </trkpt>
      <trkpt lat="44.6853" lon="5.58822">
        <ele>873.5</ele>
        <time>2017-12-15T20:07:54Z</time>
      </trkpt>
      <trkpt lat="44.68523" lon="5.5883">
        <ele>871.7</ele>
        <time>2017-12-15T20:08:10Z</time>
      </trkpt>
      <trkpt lat="44.68515" lon="5.58845">
        <ele>868</ele>
        <time>2017-12-15T20:08:29Z</time>
      </trkpt>
      <trkpt lat="44.68508" lon="5.58872">
        <ele>858.6</ele>
        <time>2017-12-15T20:08:33Z</time>
      </trkpt>
      <trkpt lat="44.68504" lon="5.58898">
        <ele>852.3</ele>
        <time>2017-12-15T20:08:52Z</time>
      </trkpt>
      <trkpt lat="44.68496" lon="5.58926">
        <ele>847</ele>
        <time>2017-12-15T20:09:07Z</time>
      </trkpt>
      <trkpt lat="44.68482" lon="5.58972">
        <ele>844.9</ele>
        <time>2017-12-15T20:09:18Z</time>
      </trkpt>
      <trkpt lat="44.68471" lon="5.59017">
        <ele>845.1</ele>
        <time>2017-12-15T20:09:30Z</time>
      </trkpt>
      <trkpt lat="44.68461" lon="5.59113">
        <ele>841.7</ele>
        <time>2017-12-15T20:09:33Z</time>
      </trkpt>
      <trkpt lat="44.68456" lon="5.59154">
        <ele>839.5</ele>
        <time>2017-12-15T20:09:43Z</time>
      </trkpt>
      <trkpt lat="44.68449" lon="5.59199">
        <ele>839.7</ele>
        <time>2017-12-15T20:09:55Z</time>
      </trkpt>
      <trkpt lat="44.68443" lon="5.59223">
        <ele>840.2</ele>
        <time>2017-12-15T20:10:12Z</time>
      </trkpt>
      <trkpt lat="44.6843" lon="5.59257">
        <ele>841.9</ele>
        <time>2017-12-15T20:10:31Z</time>
      </trkpt>
      <trkpt lat="44.68413" lon="5.59305">
        <ele>843.3</ele>
        <time>2017-12-15T20:10:48Z</time>
      </trkpt>
      <trkpt lat="44.68407" lon="5.5933">
        <ele>843.7</ele>
        <time>2017-12-15T20:11:03Z</time>
      </trkpt>
      <trkpt lat="44.68402" lon="5.59378">
        <ele>843.2</ele>
        <time>2017-12-15T20:11:11Z</time>
      </trkpt>
      <trkpt lat="44.68402" lon="5.59398">
        <ele>843.3</ele>
        <time>2017-12-15T20:11:15Z</time>
      </trkpt>
      <trkpt lat="44.68404" lon="5.59415">
        <ele>844</ele>
        <time>2017-12-15T20:11:25Z</time>
      </trkpt>
      <trkpt lat="44.68409" lon="5.59429">
        <ele>845.3</ele>
        <time>2017-12-15T20:11:37Z</time>
      </trkpt>
      <trkpt lat="44.68417" lon="5.5944">
        <ele>845.9</ele>
        <time>2017-12-15T20:11:54Z</time>
      </trkpt>
      <trkpt lat="44.68445" lon="5.59459">
        <ele>848.1</ele>
        <time>2017-12-15T20:12:03Z</time>
      </trkpt>
      <trkpt lat="44.68476" lon="5.59477">
        <ele>850.2</ele>
        <time>2017-12-15T20:12:22Z</time>
      </trkpt>
      <trkpt lat="44.68496" lon="5.59494">
        <ele>850.4</ele>
        <time>2017-12-15T20:12:40Z</time>
      </trkpt>
      <trkpt lat="44.68541" lon="5.5954">
        <ele>851</ele>
        <time>2017-12-15T20:12:49Z</time>
      </trkpt>
      <trkpt lat="44.68569" lon="5.59571">
        <ele>851.8</ele>
        <time>2017-12-15T20:12:55Z</time>
      </trkpt>
      <trkpt lat="44.68592" lon="5.5959">
        <ele>852.2</ele>
        <time>2017-12-15T20:13:02Z</time>
      </trkpt>
      <trkpt lat="44.68618" lon="5.59603">
        <ele>852.8</ele>
        <time>2017-12-15T20:13:19Z</time>
      </trkpt>
      <trkpt lat="44.68656" lon="5.5962">
        <ele>853.9</ele>
        <time>2017-12-15T20:13:39Z</time>
      </trkpt>
      <trkpt lat="44.68722" lon="5.59653">
        <ele>857</ele>
        <time>2017-12-15T20:13:43Z</time>
      </trkpt>
      <trkpt lat="44.68744" lon="5.59667">
        <ele>857</ele>
        <time>2017-12-15T20:13:52Z</time>
      </trkpt>
      <trkpt lat="44.68756" lon="5.5968">
        <ele>857.7</ele>
        <time>2017-12-15T20:14:01Z</time>
      </trkpt>
      <trkpt lat="44.68764" lon="5.59698">
        <ele>858.5</ele>
        <time>2017-12-15T20:14:20Z</time>
      </trkpt>
      <trkpt lat="44.68776" lon="5.5974">
        <ele>860.2</ele>
        <time>2017-12-15T20:14:40Z</time>
      </trkpt>
      <trkpt lat="44.68783" lon="5.59777">
        <ele>863.1</ele>
        <time>2017-12-15T20:14:50Z</time>
      </trkpt>
      <trkpt lat="44.68789" lon="5.59789">
        <ele>864.6</ele>
        <time>2017-12-15T20:15:09Z</time>
      </trkpt>
      <trkpt lat="44.688" lon="5.59792">
        <ele>865.3</ele>
        <time>2017-12-15T20:15:14Z</time>
      </trkpt>
      <trkpt lat="44.68822" lon="5.5979">
        <ele>866.8</ele>
        <time>2017-12-15T20:15:17Z</time>
      </trkpt>
      <trkpt lat="44.68839" lon="5.59786">
        <ele>867.7</ele>
        <time>2017-12-15T20:15:28Z</time>
      </trkpt>
      <trkpt lat="44.68851" lon="5.5978">
        <ele>867.7</ele>
        <time>2017-12-15T20:15:30Z</time>
      </trkpt>
      <trkpt lat="44.6887" lon="5.59762">
        <ele>867.5</ele>
        <time>2017-12-15T20:15:35Z</time>
      </trkpt>
      <trkpt lat="44.68903" lon="5.59725">
        <ele>866</ele>
        <time>2017-12-15T20:15:52Z</time>
      </trkpt>
      <trkpt lat="44.68926" lon="5.59702">
        <ele>865.7</ele>
        <time>2017-12-15T20:16:11Z</time>
      </trkpt>
      <trkpt lat="44.6894" lon="5.59696">
        <ele>865.9</ele>
        <time>2017-12-15T20:16:18Z</time>
      </trkpt>
      <trkpt lat="44.68961" lon="5.59699">
        <ele>868.1</ele>
        <time>2017-12-15T20:16:23Z</time>
      </trkpt>
      <trkpt lat="44.68982" lon="5.59704">
        <ele>870.4</ele>
        <time>2017-12-15T20:16:41Z</time>
      </trkpt>
      <trkpt lat="44.69014" lon="5.59718">
        <ele>873.7</ele>
        <time>2017-12-15T20:16:51Z</time>
      </trkpt>
      <trkpt lat="44.69055" lon="5.59734">
        <ele>874.2</ele>
        <time>2017-12-15T20:16:57Z</time>
      </trkpt>
      <trkpt lat="44.69068" lon="5.59744">
        <ele>874.8</ele>
        <time>2017-12-15T20:17:04Z</time>
      </trkpt>
      <trkpt lat="44.69078" lon="5.59759">
        <ele>874.7</ele>
        <time>2017-12-15T20:17:11Z</time>
      </trkpt>
      <trkpt lat="44.69086" lon="5.59777">
        <ele>875.2</ele>
        <time>2017-12-15T20:17:20Z</time>
      </trkpt>
      <trkpt lat="44.69097" lon="5.59808">
        <ele>876.8</ele>
        <time>2017-12-15T20:17:35Z</time>
      </trkpt>
      <trkpt lat="44.69105" lon="5.59864">
        <ele>878.5</ele>
        <time>2017-12-15T20:17:37Z</time>
      </trkpt>
      <trkpt lat="44.6911" lon="5.59895">
        <ele>879.8</ele>
        <time>2017-12-15T20:17:42Z</time>
      </trkpt>
      <trkpt lat="44.69117" lon="5.59913">
        <ele>881.2</ele>
        <time>2017-12-15T20:17:58Z</time>
      </trkpt>
      <trkpt lat="44.69126" lon="5.59927">
        <ele>884</ele>
        <time>2017-12-15T20:18:07Z</time>
      </trkpt>
      <trkpt lat="44.69138" lon="5.59938">
        <ele>884.9</ele>
        <time>2017-12-15T20:18:13Z</time>
      </trkpt>
      <trkpt lat="44.69153" lon="5.59945">
        <ele>885.1</ele>
        <time>2017-12-15T20:18:23Z</time>
      </trkpt>
      <trkpt lat="44.69204" lon="5.59956">
        <ele>883.7</ele>
        <time>2017-12-15T20:18:25Z</time>
      </trkpt>
      <trkpt lat="44.69221" lon="5.59959">
        <ele>885.8</ele>
        <time>2017-12-15T20:18:28Z</time>
      </trkpt>
      <trkpt lat="44.69234" lon="5.59964">
        <ele>889.1</ele>
        <time>2017-12-15T20:18:40Z</time>
      </trkpt>
      <trkpt lat="44.69239" lon="5.59972">
        <ele>889.9</ele>
        <time>2017-12-15T20:18:48Z</time>
      </trkpt>
      <trkpt lat="44.69241" lon="5.59982">
        <ele>889.9</ele>
        <time>2017-12-15T20:19:03Z</time>
      </trkpt>
      <trkpt lat="44.69239" lon="5.60047">
        <ele>888.3</ele>
        <time>2017-12-15T20:19:16Z</time>
      </trkpt>
      <trkpt lat="44.69243" lon="5.60085">
        <ele>889</ele>
        <time>2017-12-15T20:19:35Z</time>
      </trkpt>
      <trkpt lat="44.69252" lon="5.60122">
        <ele>890</ele>
        <time>2017-12-15T20:19:45Z</time>
      </trkpt>
      <trkpt lat="44.6926" lon="5.60142">
        <ele>890.6</ele>
        <time>2017-12-15T20:19:58Z</time>
      </trkpt>
      <trkpt lat="44.69277" lon="5.6017">
        <ele>891.8</ele>
        <time>2017-12-15T20:20:00Z</time>
      </trkpt>
      <trkpt lat="44.69292" lon="5.60191">
        <ele>894.3</ele>
        <time>2017-12-15T20:20:19Z</time>
      </trkpt>
      <trkpt lat="44.69311" lon="5.60219">
        <ele>897.6</ele>
        <time>2017-12-15T20:20:23Z</time>
      </trkpt>
      <trkpt lat="44.69317" lon="5.60236">
        <ele>900.8</ele>
        <time>2017-12-15T20:20:39Z</time>
      </trkpt>
      <trkpt lat="44.69319" lon="5.60253">
        <ele>903.1</ele>
        <time>2017-12-15T20:20:49Z</time>
      </trkpt>
      <trkpt lat="44.69317" lon="5.60279">
        <ele>904.2</ele>
        <time>2017-12-15T20:20:53Z</time>
      </trkpt>
      <trkpt lat="44.69315" lon="5.60302">
        <ele>902.5</ele>
        <time>2017-12-15T20:21:08Z</time>
      </trkpt>
      <trkpt lat="44.69318" lon="5.60316">
        <ele>902.7</ele>
        <time>2017-12-15T20:21:10Z</time>
      </trkpt>
      <trkpt lat="44.69334" lon="5.60352">
        <ele>904.4</ele>
        <time>2017-12-15T20:21:22Z</time>
      </trkpt>
      <trkpt lat="44.69343" lon="5.60388">
        <ele>906</ele>
        <time>2017-12-15T20:21:28Z</time>
      </trkpt>
      <trkpt lat="44.69347" lon="5.60487">
        <ele>904.8</ele>
        <time>2017-12-15T20:21:36Z</time>
      </trkpt>
      <trkpt lat="44.6935" lon="5.60502">
        <ele>904.2</ele>
        <time>2017-12-15T20:21:47Z</time>
      </trkpt>
      <trkpt lat="44.69353" lon="5.60522">
        <ele>904.8</ele>
        <time>2017-12-15T20:22:05Z</time>
      </trkpt>
      <trkpt lat="44.69354" lon="5.60539">
        <ele>904.7</ele>
        <time>2017-12-15T20:22:18Z</time>
      </trkpt>
      <trkpt lat="44.69353" lon="5.60572">
        <ele>903.1</ele>
        <time>2017-12-15T20:22:28Z</time>
      </trkpt>
      <trkpt lat="44.69356" lon="5.60588">
        <ele>902.8</ele>
        <time>2017-12-15T20:22:41Z</time>
      </trkpt>
      <trkpt lat="44.69362" lon="5.60602">
        <ele>902.9</ele>
        <time>2017-12-15T20:22:48Z</time>
      </trkpt>
      <trkpt lat="44.69387" lon="5.60641">
        <ele>907.3</ele>
        <time>2017-12-15T20:22:56Z</time>
      </trkpt>
      <trkpt lat="44.69411" lon="5.60676">
        <ele>911.7</ele>
        <time>2017-12-15T20:23:11Z</time>
      </trkpt>
      <trkpt lat="44.69419" lon="5.60692">
        <ele>911.1</ele>
        <time>2017-12-15T20:23:14Z</time>
      </trkpt>
      <trkpt lat="44.69426" lon="5.6071">
        <ele>913</ele>
        <time>2017-12-15T20:23:17Z</time>
      </trkpt>
      <trkpt lat="44.69431" lon="5.60729">
        <ele>914.1</ele>
        <time>2017-12-15T20:23:31Z</time>
      </trkpt>
      <trkpt lat="44.69439" lon="5.60814">
        <ele>916.2</ele>
        <time>2017-12-15T20:23:49Z</time>
      </trkpt>
      <trkpt lat="44.6944" lon="5.60847">
        <ele>914.3</ele>
        <time>2017-12-15T20:24:04Z</time>
      </trkpt>
      <trkpt lat="44.69438" lon="5.60869">
        <ele>913.9</ele>
        <time>2017-12-15T20:24:15Z</time>
      </trkpt>
      <trkpt lat="44.69423" lon="5.60964">
        <ele>915.4</ele>
        <time>2017-12-15T20:24:29Z</time>
      </trkpt>
      <trkpt lat="44.69422" lon="5.60984">
        <ele>915.8</ele>
        <time>2017-12-15T20:24:38Z</time>
      </trkpt>
      <trkpt lat="44.69425" lon="5.61004">
        <ele>917.7</ele>
        <time>2017-12-15T20:24:57Z</time>
      </trkpt>
      <trkpt lat="44.69434" lon="5.61053">
        <ele>917.8</ele>
        <time>2017-12-15T20:25:11Z</time>
      </trkpt>
      <trkpt lat="44.69439" lon="5.61071">
        <ele>918.3</ele>
        <time>2017-12-15T20:25:22Z</time>
      </trkpt>
      <trkpt lat="44.69458" lon="5.61119">
        <ele>921</ele>
        <time>2017-12-15T20:25:24Z</time>
      </trkpt>
      <trkpt lat="44.69471" lon="5.61161">
        <ele>922.7</ele>
        <time>2017-12-15T20:25:44Z</time>
      </trkpt>
      <trkpt lat="44.6949" lon="5.61213">
        <ele>925.1</ele>
        <time>2017-12-15T20:25:58Z</time>
      </trkpt>
      <trkpt lat="44.69503" lon="5.6124">
        <ele>926.4</ele>
        <time>2017-12-15T20:26:11Z</time>
      </trkpt>
      <trkpt lat="44.69528" lon="5.61269">
        <ele>929</ele>
        <time>2017-12-15T20:26:29Z</time>
      </trkpt>
      <trkpt lat="44.69548" lon="5.61282">
        <ele>930.5</ele>
        <time>2017-12-15T20:26:38Z</time>
      </trkpt>
      <trkpt lat="44.69569" lon="5.61291">
        <ele>932.3</ele>
        <time>2017-12-15T20:26:57Z</time>
      </trkpt>
      <trkpt lat="44.69603" lon="5.61304">
        <ele>935.1</ele>
        <time>2017-12-15T20:27:11Z</time>
      </trkpt>
      <trkpt lat="44.69621" lon="5.61318">
        <ele>937.1</ele>
        <time>2017-12-15T20:27:21Z</time>
      </trkpt>
      <trkpt lat="44.69632" lon="5.61331">
        <ele>938.4</ele>
        <time>2017-12-15T20:27:32Z</time>
      </trkpt>
      <trkpt lat="44.69642" lon="5.61352">
        <ele>938.7</ele>
        <time>2017-12-15T20:27:35Z</time>
      </trkpt>
      <trkpt lat="44.69654" lon="5.61396">
        <ele>938.1</ele>
        <time>2017-12-15T20:27:47Z</time>
      </trkpt>
      <trkpt lat="44.69693" lon="5.61535">
        <ele>942</ele>
        <time>2017-12-15T20:28:05Z</time>
      </trkpt>
      <trkpt lat="44.69707" lon="5.61582">
        <ele>944.6</ele>
        <time>2017-12-15T20:28:11Z</time>
      </trkpt>
      <trkpt lat="44.69714" lon="5.61597">
        <ele>946.4</ele>
        <time>2017-12-15T20:28:25Z</time>
      </trkpt>
      <trkpt lat="44.69723" lon="5.61609">
        <ele>949.3</ele>
        <time>2017-12-15T20:28:34Z</time>
      </trkpt>
      <trkpt lat="44.69732" lon="5.61619">
        <ele>949.3</ele>
        <time>2017-12-15T20:28:43Z</time>
      </trkpt>
      <trkpt lat="44.69743" lon="5.61627">
        <ele>949.6</ele>
        <time>2017-12-15T20:28:57Z</time>
      </trkpt>
      <trkpt lat="44.69761" lon="5.61634">
        <ele>949.7</ele>
        <time>2017-12-15T20:29:09Z</time>
      </trkpt>
      <trkpt lat="44.69794" lon="5.61643">
        <ele>949.3</ele>
        <time>2017-12-15T20:29:28Z</time>
      </trkpt>
      <trkpt lat="44.69828" lon="5.61651">
        <ele>951.3</ele>
        <time>2017-12-15T20:29:30Z</time>
      </trkpt>
      <trkpt lat="44.69871" lon="5.61653">
        <ele>958.9</ele>
        <time>2017-12-15T20:29:46Z</time>
      </trkpt>
      <trkpt lat="44.69907" lon="5.6166">
        <ele>963.9</ele>
        <time>2017-12-15T20:29:59Z</time>
      </trkpt>
      <trkpt lat="44.69944" lon="5.61664">
        <ele>968.7</ele>
        <time>2017-12-15T20:30:04Z</time>
      </trkpt>
      <trkpt lat="44.69979" lon="5.61671">
        <ele>971.7</ele>
        <time>2017-12-15T20:30:19Z</time>
      </trkpt>
      <trkpt lat="44.70008" lon="5.6169">
        <ele>970.8</ele>
        <time>2017-12-15T20:30:33Z</time>
      </trkpt>
      <trkpt lat="44.7002" lon="5.61696">
        <ele>971.2</ele>
        <time>2017-12-15T20:30:50Z</time>
      </trkpt>
      <trkpt lat="44.70033" lon="5.61697">
        <ele>972.3</ele>
        <time>2017-12-15T20:30:58Z</time>
      </trkpt>
      <trkpt lat="44.7006" lon="5.61687">
        <ele>974.9</ele>
        <time>2017-12-15T20:31:07Z</time>
      </trkpt>
      <trkpt lat="44.70076" lon="5.6168">
        <ele>977.6</ele>
        <time>2017-12-15T20:31:26Z</time>
      </trkpt>
      <trkpt lat="44.70086" lon="5.6168">
        <ele>978.8</ele>
        <time>2017-12-15T20:31:45Z</time>
      </trkpt>
      <trkpt lat="44.70097" lon="5.61686">
        <ele>980.3</ele>
        <time>2017-12-15T20:31:53Z</time>
      </trkpt>
      <trkpt lat="44.70107" lon="5.61695">
        <ele>980.9</ele>
        <time>2017-12-15T20:32:08Z</time>
      </trkpt>
      <trkpt lat="44.70115" lon="5.61707">
        <ele>982.3</ele>
        <time>2017-12-15T20:32:26Z</time>
      </trkpt>
      <trkpt lat="44.70126" lon="5.61731">
        <ele>983.6</ele>
        <time>2017-12-15T20:32:34Z</time>
      </trkpt>
      <trkpt lat="44.70138" lon="5.61767">
        <ele>983.3</ele>
        <time>2017-12-15T20:32:40Z</time>
      </trkpt>
      <trkpt lat="44.70154" lon="5.61805">
        <ele>985.2</ele>
        <time>2017-12-15T20:32:48Z</time>
      </trkpt>
      <trkpt lat="44.70157" lon="5.6182">
        <ele>986.8</ele>
        <time>2017-12-15T20:32:58Z</time>
      </trkpt>
      <trkpt lat="44.70158" lon="5.61836">
        <ele>988.5</ele>
        <time>2017-12-15T20:33:08Z</time>
      </trkpt>
      <trkpt lat="44.70155" lon="5.6185">
        <ele>990.7</ele>
        <time>2017-12-15T20:33:13Z</time>
      </trkpt>
      <trkpt lat="44.7015" lon="5.61863">
        <ele>992.6</ele>
        <time>2017-12-15T20:33:19Z</time>
      </trkpt>
      <trkpt lat="44.70142" lon="5.61871">
        <ele>993.5</ele>
        <time>2017-12-15T20:33:30Z</time>
      </trkpt>
      <trkpt lat="44.70134" lon="5.61873">
        <ele>994.4</ele>
        <time>2017-12-15T20:33:41Z</time>
      </trkpt>
      <trkpt lat="44.70125" lon="5.61869">
        <ele>995.2</ele>
        <time>2017-12-15T20:34:01Z</time>
      </trkpt>
      <trkpt lat="44.70114" lon="5.61857">
        <ele>994.6</ele>
        <time>2017-12-15T20:34:04Z</time>
      </trkpt>
      <trkpt lat="44.70103" lon="5.61835">
        <ele>993</ele>
        <time>2017-12-15T20:34:09Z</time>
      </trkpt>
      <trkpt lat="44.70094" lon="5.61799">
        <ele>987.3</ele>
        <time>2017-12-15T20:34:25Z</time>
      </trkpt>
      <trkpt lat="44.70089" lon="5.61791">
        <ele>986.4</ele>
        <time>2017-12-15T20:34:45Z</time>
      </trkpt>
      <trkpt lat="44.70083" lon="5.61787">
        <ele>986.4</ele>
        <time>2017-12-15T20:34:48Z</time>
      </trkpt>
      <trkpt lat="44.70072" lon="5.61787">
        <ele>988.9</ele>
        <time>2017-12-15T20:35:05Z</time>
      </trkpt>
      <trkpt lat="44.70043" lon="5.61792">
        <ele>997.8</ele>
        <time>2017-12-15T20:35:22Z</time>
      </trkpt>
      <trkpt lat="44.70013" lon="5.61795">
        <ele>1004.3</ele>
        <time>2017-12-15T20:35:28Z</time>
      </trkpt>
      <trkpt lat="44.6999" lon="5.61786">
        <ele>999.4</ele>
        <time>2017-12-15T20:35:32Z</time>
      </trkpt>
      <trkpt lat="44.69981" lon="5.61784">
        <ele>997.3</ele>
        <time>2017-12-15T20:35:50Z</time>
      </trkpt>
      <trkpt lat="44.69973" lon="5.61785">
        <ele>997</ele>
        <time>2017-12-15T20:36:02Z</time>
      </trkpt>
      <trkpt lat="44.69964" lon="5.61789">
        <ele>996.9</ele>
        <time>2017-12-15T20:36:13Z</time>
      </trkpt>
      <trkpt lat="44.69952" lon="5.61803">
        <ele>1000.9</ele>
        <time>2017-12-15T20:36:26Z</time>
      </trkpt>
      <trkpt lat="44.69934" lon="5.61822">
        <ele>1005.5</ele>
        <time>2017-12-15T20:36:28Z</time>
      </trkpt>
      <trkpt lat="44.69902" lon="5.61844">
        <ele>1007</ele>
        <time>2017-12-15T20:36:34Z</time>
      </trkpt>
      <trkpt lat="44.69863" lon="5.61869">
        <ele>1010.3</ele>
        <time>2017-12-15T20:36:39Z</time>
      </trkpt>
      <trkpt lat="44.69813" lon="5.619">
        <ele>1013.7</ele>
        <time>2017-12-15T20:36:57Z</time>
      </trkpt>
      <trkpt lat="44.69788" lon="5.61911">
        <ele>1008.4</ele>
        <time>2017-12-15T20:37:11Z</time>
      </trkpt>
      <trkpt lat="44.69776" lon="5.61921">
        <ele>1006.6</ele>
        <time>2017-12-15T20:37:30Z</time>
      </trkpt>
      <trkpt lat="44.69769" lon="5.61932">
        <ele>1006.6</ele>
        <time>2017-12-15T20:37:45Z</time>
      </trkpt>
      <trkpt lat="44.69764" lon="5.61944">
        <ele>1007.9</ele>
        <time>2017-12-15T20:37:52Z</time>
      </trkpt>
      <trkpt lat="44.69758" lon="5.61974">
        <ele>1013.8</ele>
        <time>2017-12-15T20:37:56Z</time>
      </trkpt>
      <trkpt lat="44.69751" lon="5.61995">
        <ele>1016.1</ele>
        <time>2017-12-15T20:38:14Z</time>
      </trkpt>
      <trkpt lat="44.69732" lon="5.62032">
        <ele>1020.2</ele>
        <time>2017-12-15T20:38:21Z</time>
      </trkpt>
      <trkpt lat="44.69703" lon="5.62067">
        <ele>1022.2</ele>
        <time>2017-12-15T20:38:23Z</time>
      </trkpt>
      <trkpt lat="44.69629" lon="5.62147">
        <ele>1020</ele>
        <time>2017-12-15T20:38:32Z</time>
      </trkpt>
      <trkpt lat="44.6962" lon="5.62158">
        <ele>1020.3</ele>
        <time>2017-12-15T20:38:46Z</time>
      </trkpt>
      <trkpt lat="44.69614" lon="5.62171">
        <ele>1023.7</ele>
        <time>2017-12-15T20:39:04Z</time>
      </trkpt>
      <trkpt lat="44.69609" lon="5.62186">
        <ele>1028.6</ele>
        <time>2017-12-15T20:39:07Z</time>
      </trkpt>
      <trkpt lat="44.69598" lon="5.62208">
        <ele>1031.9</ele>
        <time>2017-12-15T20:39:24Z</time>
      </trkpt>
      <trkpt lat="44.69582" lon="5.62234">
        <ele>1031.5</ele>
        <time>2017-12-15T20:39:34Z</time>
      </trkpt>
      <trkpt lat="44.69566" lon="5.62265">
        <ele>1031.1</ele>
        <time>2017-12-15T20:39:36Z</time>
      </trkpt>
      <trkpt lat="44.69562" lon="5.62278">
        <ele>1032.2</ele>
        <time>2017-12-15T20:39:44Z</time>
      </trkpt>
      <trkpt lat="44.69561" lon="5.62292">
        <ele>1034.4</ele>
        <time>2017-12-15T20:40:03Z</time>
      </trkpt>
      <trkpt lat="44.69559" lon="5.62313">
        <ele>1036.6</ele>
        <time>2017-12-15T20:40:23Z</time>
      </trkpt>
      <trkpt lat="44.69554" lon="5.62324">
        <ele>1034.5</ele>
        <time>2017-12-15T20:40:35Z</time>
      </trkpt>
      <trkpt lat="44.69544" lon="5.6234">
        <ele>1028.7</ele>
        <time>2017-12-15T20:40:45Z</time>
      </trkpt>
      <trkpt lat="44.69543" lon="5.62349">
        <ele>1027.5</ele>
        <time>2017-12-15T20:40:51Z</time>
      </trkpt>
      <trkpt lat="44.69546" lon="5.62356">
        <ele>1028.9</ele>
        <time>2017-12-15T20:41:03Z</time>
      </trkpt>
      <trkpt lat="44.69552" lon="5.62359">
        <ele>1032.2</ele>
        <time>2017-12-15T20:41:19Z</time>
      </trkpt>
      <trkpt lat="44.69567" lon="5.62363">
        <ele>1038.6</ele>
        <time>2017-12-15T20:41:23Z</time>
      </trkpt>
      <trkpt lat="44.69576" lon="5.62368">
        <ele>1041</ele>
        <time>2017-12-15T20:41:43Z</time>
      </trkpt>
      <trkpt lat="44.69593" lon="5.62387">
        <ele>1042.9</ele>
        <time>2017-12-15T20:41:51Z</time>
      </trkpt>
      <trkpt lat="44.69617" lon="5.62417">
        <ele>1045.9</ele>
        <time>2017-12-15T20:41:54Z</time>
      </trkpt>
      <trkpt lat="44.69628" lon="5.62433">
        <ele>1048.7</ele>
        <time>2017-12-15T20:42:12Z</time>
      </trkpt>
      <trkpt lat="44.69634" lon="5.62447">
        <ele>1049.7</ele>
        <time>2017-12-15T20:42:15Z</time>
      </trkpt>
      <trkpt lat="44.69638" lon="5.62473">
        <ele>1049.2</ele>
        <time>2017-12-15T20:42:21Z</time>
      </trkpt>
      <trkpt lat="44.69641" lon="5.62519">
        <ele>1049.5</ele>
        <time>2017-12-15T20:42:24Z</time>
      </trkpt>
      <trkpt lat="44.69639" lon="5.62584">
        <ele>1046.1</ele>
        <time>2017-12-15T20:42:29Z</time>
      </trkpt>
      <trkpt lat="44.69639" lon="5.62608">
        <ele>1047</ele>
        <time>2017-12-15T20:42:47Z</time>
      </trkpt>
      <trkpt lat="44.69643" lon="5.62626">
        <ele>1052.9</ele>
        <time>2017-12-15T20:42:50Z</time>
      </trkpt>
      <trkpt lat="44.69644" lon="5.62641">
        <ele>1056.5</ele>
        <time>2017-12-15T20:42:54Z</time>
      </trkpt>
      <trkpt lat="44.69642" lon="5.62653">
        <ele>1058.8</ele>
        <time>2017-12-15T20:42:57Z</time>
      </trkpt>
      <trkpt lat="44.69636" lon="5.62665">
        <ele>1058.9</ele>
        <time>2017-12-15T20:43:10Z</time>
      </trkpt>
      <trkpt lat="44.69612" lon="5.62692">
        <ele>1056.5</ele>
        <time>2017-12-15T20:43:21Z</time>
      </trkpt>
      <trkpt lat="44.69599" lon="5.6271">
        <ele>1055.8</ele>
        <time>2017-12-15T20:43:35Z</time>
      </trkpt>
      <trkpt lat="44.69593" lon="5.62725">
        <ele>1057.3</ele>
        <time>2017-12-15T20:43:39Z</time>
      </trkpt>
      <trkpt lat="44.69574" lon="5.62808">
        <ele>1062</ele>
        <time>2017-12-15T20:43:46Z</time>
      </trkpt>
      <trkpt lat="44.69553" lon="5.62889">
        <ele>1060.4</ele>
        <time>2017-12-15T20:43:48Z</time>
      </trkpt>
      <trkpt lat="44.69547" lon="5.62947">
        <ele>1063.9</ele>
        <time>2017-12-15T20:43:58Z</time>
      </trkpt>
      <trkpt lat="44.69547" lon="5.62963">
        <ele>1064.6</ele>
        <time>2017-12-15T20:44:05Z</time>
      </trkpt>
      <trkpt lat="44.6955" lon="5.62978">
        <ele>1066.7</ele>
        <time>2017-12-15T20:44:23Z</time>
      </trkpt>
      <trkpt lat="44.69556" lon="5.62991">
        <ele>1069.5</ele>
        <time>2017-12-15T20:44:30Z</time>
      </trkpt>
      <trkpt lat="44.69567" lon="5.63004">
        <ele>1072.3</ele>
        <time>2017-12-15T20:44:44Z</time>
      </trkpt>
      <trkpt lat="44.69576" lon="5.63017">
        <ele>1073.8</ele>
        <time>2017-12-15T20:45:03Z</time>
      </trkpt>
      <trkpt lat="44.69584" lon="5.63043">
        <ele>1073</ele>
        <time>2017-12-15T20:45:17Z</time>
      </trkpt>
      <trkpt lat="44.69592" lon="5.63054">
        <ele>1073.4</ele>
        <time>2017-12-15T20:45:35Z</time>
      </trkpt>
      <trkpt lat="44.69599" lon="5.6306">
        <ele>1074.4</ele>
        <time>2017-12-15T20:45:52Z</time>
      </trkpt>
      <trkpt lat="44.69612" lon="5.63063">
        <ele>1077.1</ele>
        <time>2017-12-15T20:45:57Z</time>
      </trkpt>
      <trkpt lat="44.69622" lon="5.63062">
        <ele>1079.5</ele>
        <time>2017-12-15T20:46:08Z</time>
      </trkpt>
      <trkpt lat="44.69641" lon="5.63055">
        <ele>1084.9</ele>
        <time>2017-12-15T20:46:27Z</time>
      </trkpt>
      <trkpt lat="44.69651" lon="5.6306">
        <ele>1087.9</ele>
        <time>2017-12-15T20:46:41Z</time>
      </trkpt>
      <trkpt lat="44.69655" lon="5.63068">
        <ele>1088.7</ele>
        <time>2017-12-15T20:46:49Z</time>
      </trkpt>
      <trkpt lat="44.69655" lon="5.63079">
        <ele>1087.8</ele>
        <time>2017-12-15T20:46:52Z</time>
      </trkpt>
      <trkpt lat="44.6965" lon="5.63111">
        <ele>1087.2</ele>
        <time>2017-12-15T20:47:02Z</time>
      </trkpt>
      <trkpt lat="44.69649" lon="5.63174">
        <ele>1096.3</ele>
        <time>2017-12-15T20:47:20Z</time>
      </trkpt>
      <trkpt lat="44.69641" lon="5.63218">
        <ele>1097.8</ele>
        <time>2017-12-15T20:47:34Z</time>
      </trkpt>
      <trkpt lat="44.69629" lon="5.63279">
        <ele>1098.7</ele>
        <time>2017-12-15T20:47:47Z</time>
      </trkpt>
      <trkpt lat="44.69632" lon="5.63318">
        <ele>1101.2</ele>
        <time>2017-12-15T20:48:00Z</time>
      </trkpt>
      <trkpt lat="44.69647" lon="5.63381">
        <ele>1105.6</ele>
        <time>2017-12-15T20:48:20Z</time>
      </trkpt>
      <trkpt lat="44.6965" lon="5.63397">
        <ele>1106.8</ele>
        <time>2017-12-15T20:48:32Z</time>
      </trkpt>
      <trkpt lat="44.69649" lon="5.63413">
        <ele>1107.1</ele>
        <time>2017-12-15T20:48:44Z</time>
      </trkpt>
      <trkpt lat="44.69646" lon="5.63428">
        <ele>1107.4</ele>
        <time>2017-12-15T20:48:56Z</time>
      </trkpt>
      <trkpt lat="44.6964" lon="5.63441">
        <ele>1107</ele>
        <time>2017-12-15T20:49:11Z</time>
      </trkpt>
      <trkpt lat="44.69629" lon="5.63455">
        <ele>1107.5</ele>
        <time>2017-12-15T20:49:18Z</time>
      </trkpt>
      <trkpt lat="44.69589" lon="5.63486">
        <ele>1107.6</ele>
        <time>2017-12-15T20:49:25Z</time>
      </trkpt>
      <trkpt lat="44.69572" lon="5.63505">
        <ele>1107.6</ele>
        <time>2017-12-15T20:49:34Z</time>
      </trkpt>
      <trkpt lat="44.69566" lon="5.63523">
        <ele>1108.6</ele>
        <time>2017-12-15T20:49:47Z</time>
      </trkpt>
      <trkpt lat="44.69567" lon="5.63532">
        <ele>1109.8</ele>
        <time>2017-12-15T20:49:55Z</time>
      </trkpt>
      <trkpt lat="44.69586" lon="5.63588">
        <ele>1114.4</ele>
        <time>2017-12-15T20:50:07Z</time>
      </trkpt>
      <trkpt lat="44.69626" lon="5.63729">
        <ele>1115.5</ele>
        <time>2017-12-15T20:50:27Z</time>
      </trkpt>
      <trkpt lat="44.69641" lon="5.63782">
        <ele>1120.1</ele>
        <time>2017-12-15T20:50:34Z</time>
      </trkpt>
      <trkpt lat="44.69646" lon="5.63807">
        <ele>1122.3</ele>
        <time>2017-12-15T20:50:51Z</time>
      </trkpt>
      <trkpt lat="44.69649" lon="5.63836">
        <ele>1122.8</ele>
        <time>2017-12-15T20:51:10Z</time>
      </trkpt>
      <trkpt lat="44.69648" lon="5.63875">
        <ele>1123.6</ele>
        <time>2017-12-15T20:51:20Z</time>
      </trkpt>
      <trkpt lat="44.69645" lon="5.63941">
        <ele>1124.7</ele>
        <time>2017-12-15T20:51:36Z</time>
      </trkpt>
      <trkpt lat="44.69646" lon="5.64036">
        <ele>1129.6</ele>
        <time>2017-12-15T20:51:41Z</time>
      </trkpt>
      <trkpt lat="44.69656" lon="5.64131">
        <ele>1136.9</ele>
        <time>2017-12-15T20:51:51Z</time>
      </trkpt>
      <trkpt lat="44.6967" lon="5.64193">
        <ele>1141.6</ele>
        <time>2017-12-15T20:52:09Z</time>
      </trkpt>
      <trkpt lat="44.69673" lon="5.64218">
        <ele>1142.6</ele>
        <time>2017-12-15T20:52:16Z</time>
      </trkpt>
      <trkpt lat="44.69673" lon="5.64244">
        <ele>1143.3</ele>
        <time>2017-12-15T20:52:29Z</time>
      </trkpt>
      <trkpt lat="44.69661" lon="5.64407">
        <ele>1151.7</ele>
        <time>2017-12-15T20:52:38Z</time>
      </trkpt>
      <trkpt lat="44.69661" lon="5.6444">
        <ele>1151.3</ele>
        <time>2017-12-15T20:52:52Z</time>
      </trkpt>
      <trkpt lat="44.69663" lon="5.64476">
        <ele>1153.8</ele>
        <time>2017-12-15T20:52:59Z</time>
      </trkpt>
      <trkpt lat="44.69667" lon="5.64501">
        <ele>1156.2</ele>
        <time>2017-12-15T20:53:05Z</time>
      </trkpt>
      <trkpt lat="44.6967" lon="5.64508">
        <ele>1157.6</ele>
        <time>2017-12-15T20:53:20Z</time>
      </trkpt>
      <trkpt lat="44.69674" lon="5.6451">
        <ele>1158.8</ele>
        <time>2017-12-15T20:53:26Z</time>
      </trkpt>
      <trkpt lat="44.69678" lon="5.64508">
        <ele>1159.9</ele>
        <time>2017-12-15T20:53:37Z</time>
      </trkpt>
      <trkpt lat="44.69681" lon="5.645">
        <ele>1160.6</ele>
        <time>2017-12-15T20:53:40Z</time>
      </trkpt>
      <trkpt lat="44.69681" lon="5.6449">
        <ele>1160.3</ele>
        <time>2017-12-15T20:53:46Z</time>
      </trkpt>
      <trkpt lat="44.69675" lon="5.6444">
        <ele>1157.7</ele>
        <time>2017-12-15T20:53:54Z</time>
      </trkpt>
      <trkpt lat="44.69676" lon="5.64421">
        <ele>1158.9</ele>
        <time>2017-12-15T20:53:56Z</time>
      </trkpt>
      <trkpt lat="44.69683" lon="5.64383">
        <ele>1161.9</ele>
        <time>2017-12-15T20:54:09Z</time>
      </trkpt>
      <trkpt lat="44.69694" lon="5.64336">
        <ele>1163.1</ele>
        <time>2017-12-15T20:54:11Z</time>
      </trkpt>
      <trkpt lat="44.69703" lon="5.64311">
        <ele>1164.2</ele>
        <time>2017-12-15T20:54:26Z</time>
      </trkpt>
      <trkpt lat="44.69712" lon="5.64298">
        <ele>1165.6</ele>
        <time>2017-12-15T20:54:44Z</time>
      </trkpt>
      <trkpt lat="44.69733" lon="5.64278">
        <ele>1169.1</ele>
        <time>2017-12-15T20:54:58Z</time>
      </trkpt>
      <trkpt lat="44.6974" lon="5.64265">
        <ele>1170</ele>
        <time>2017-12-15T20:55:12Z</time>
      </trkpt>
      <trkpt lat="44.69744" lon="5.64249">
        <ele>1170.1</ele>
        <time>2017-12-15T20:55:18Z</time>
      </trkpt>
      <trkpt lat="44.69743" lon="5.64233">
        <ele>1170.8</ele>
        <time>2017-12-15T20:55:37Z</time>
      </trkpt>
      <trkpt lat="44.69739" lon="5.64214">
        <ele>1171.2</ele>
        <time>2017-12-15T20:55:44Z</time>
      </trkpt>
      <trkpt lat="44.69721" lon="5.64164">
        <ele>1170.7</ele>
        <time>2017-12-15T20:55:54Z</time>
      </trkpt>
      <trkpt lat="44.69716" lon="5.64137">
        <ele>1171.8</ele>
        <time>2017-12-15T20:56:08Z</time>
      </trkpt>
      <trkpt lat="44.69713" lon="5.64097">
        <ele>1172.9</ele>
        <time>2017-12-15T20:56:18Z</time>
      </trkpt>
      <trkpt lat="44.69715" lon="5.64047">
        <ele>1174.5</ele>
        <time>2017-12-15T20:56:36Z</time>
      </trkpt>
      <trkpt lat="44.69722" lon="5.63979">
        <ele>1176.1</ele>
        <time>2017-12-15T20:56:45Z</time>
      </trkpt>
      <trkpt lat="44.69726" lon="5.63956">
        <ele>1176.7</ele>
        <time>2017-12-15T20:57:02Z</time>
      </trkpt>
      <trkpt lat="44.69732" lon="5.63936">
        <ele>1177.2</ele>
        <time>2017-12-15T20:57:15Z</time>
      </trkpt>
      <trkpt lat="44.69746" lon="5.63892">
        <ele>1179.1</ele>
        <time>2017-12-15T20:57:19Z</time>
      </trkpt>
      <trkpt lat="44.69751" lon="5.63853">
        <ele>1181.3</ele>
        <time>2017-12-15T20:57:36Z</time>
      </trkpt>
      <trkpt lat="44.69751" lon="5.63829">
        <ele>1181.5</ele>
        <time>2017-12-15T20:57:42Z</time>
      </trkpt>
      <trkpt lat="44.69754" lon="5.63808">
        <ele>1183.1</ele>
        <time>2017-12-15T20:57:53Z</time>
      </trkpt>
      <trkpt lat="44.69759" lon="5.63795">
        <ele>1183.3</ele>
        <time>2017-12-15T20:58:07Z</time>
      </trkpt>
      <trkpt lat="44.69767" lon="5.63784">
        <ele>1184.1</ele>
        <time>2017-12-15T20:58:18Z</time>
      </trkpt>
      <trkpt lat="44.69796" lon="5.63758">
        <ele>1186.9</ele>
        <time>2017-12-15T20:58:38Z</time>
      </trkpt>
      <trkpt lat="44.69808" lon="5.63744">
        <ele>1188.4</ele>
        <time>2017-12-15T20:58:49Z</time>
      </trkpt>
      <trkpt lat="44.69821" lon="5.63719">
        <ele>1191.5</ele>
        <time>2017-12-15T20:59:01Z</time>
      </trkpt>
      <trkpt lat="44.69825" lon="5.63704">
        <ele>1192.9</ele>
        <time>2017-12-15T20:59:03Z</time>
      </trkpt>
      <trkpt lat="44.69827" lon="5.63678">
        <ele>1194.2</ele>
        <time>2017-12-15T20:59:12Z</time>
      </trkpt>
      <trkpt lat="44.69825" lon="5.63609">
        <ele>1193.6</ele>
        <time>2017-12-15T20:59:18Z</time>
      </trkpt>
      <trkpt lat="44.69828" lon="5.63592">
        <ele>1193.6</ele>
        <time>2017-12-15T20:59:32Z</time>
      </trkpt>
      <trkpt lat="44.69834" lon="5.63576">
        <ele>1194</ele>
        <time>2017-12-15T20:59:38Z</time>
      </trkpt>
      <trkpt lat="44.69844" lon="5.63563">
        <ele>1195.7</ele>
        <time>2017-12-15T20:59:51Z</time>
      </trkpt>
      <trkpt lat="44.6987" lon="5.63533">
        <ele>1200.8</ele>
        <time>2017-12-15T21:00:08Z</time>
      </trkpt>
      <trkpt lat="44.69879" lon="5.63517">
        <ele>1202.2</ele>
        <time>2017-12-15T21:00:25Z</time>
      </trkpt>
      <trkpt lat="44.69887" lon="5.635">
        <ele>1203.2</ele>
        <time>2017-12-15T21:00:32Z</time>
      </trkpt>
      <trkpt lat="44.69892" lon="5.6348">
        <ele>1204.6</ele>
        <time>2017-12-15T21:00:36Z</time>
      </trkpt>
      <trkpt lat="44.69894" lon="5.63459">
        <ele>1205.1</ele>
        <time>2017-12-15T21:00:54Z</time>
      </trkpt>
      <trkpt lat="44.69892" lon="5.63426">
        <ele>1204.9</ele>
        <time>2017-12-15T21:01:10Z</time>
      </trkpt>
      <trkpt lat="44.69888" lon="5.63378">
        <ele>1204.7</ele>
        <time>2017-12-15T21:01:17Z</time>
      </trkpt>
      <trkpt lat="44.69888" lon="5.63345">
        <ele>1204.1</ele>
        <time>2017-12-15T21:01:28Z</time>
      </trkpt>
      <trkpt lat="44.6989" lon="5.63333">
        <ele>1204.4</ele>
        <time>2017-12-15T21:01:48Z</time>
      </trkpt>
      <trkpt lat="44.69894" lon="5.6333">
        <ele>1205.7</ele>
        <time>2017-12-15T21:02:07Z</time>
      </trkpt>
      <trkpt lat="44.69899" lon="5.63331">
        <ele>1207.5</ele>
        <time>2017-12-15T21:02:21Z</time>
      </trkpt>
      <trkpt lat="44.699" lon="5.63335">
        <ele>1208.1</ele>
        <time>2017-12-15T21:02:29Z</time>
      </trkpt>
      <trkpt lat="44.69899" lon="5.63376">
        <ele>1208.6</ele>
        <time>2017-12-15T21:02:41Z</time>
      </trkpt>
      <trkpt lat="44.69902" lon="5.6339">
        <ele>1209.7</ele>
        <time>2017-12-15T21:02:43Z</time>
      </trkpt>
      <trkpt lat="44.69923" lon="5.63451">
        <ele>1216.9</ele>
        <time>2017-12-15T21:02:46Z</time>
      </trkpt>
      <trkpt lat="44.69927" lon="5.63468">
        <ele>1219</ele>
        <time>2017-12-15T21:02:52Z</time>
      </trkpt>
      <trkpt lat="44.69927" lon="5.63486">
        <ele>1219.8</ele>
        <time>2017-12-15T21:03:01Z</time>
      </trkpt>
      <trkpt lat="44.69925" lon="5.63504">
        <ele>1220.1</ele>
        <time>2017-12-15T21:03:09Z</time>
      </trkpt>
      <trkpt lat="44.69919" lon="5.63521">
        <ele>1220</ele>
        <time>2017-12-15T21:03:25Z</time>
      </trkpt>
      <trkpt lat="44.69893" lon="5.63566">
        <ele>1218.1</ele>
        <time>2017-12-15T21:03:38Z</time>
      </trkpt>
      <trkpt lat="44.69886" lon="5.63581">
        <ele>1218.1</ele>
        <time>2017-12-15T21:03:58Z</time>
      </trkpt>
      <trkpt lat="44.69878" lon="5.63607">
        <ele>1218</ele>
        <time>2017-12-15T21:04:07Z</time>
      </trkpt>
      <trkpt lat="44.69878" lon="5.63654">
        <ele>1219.8</ele>
        <time>2017-12-15T21:04:26Z</time>
      </trkpt>
      <trkpt lat="44.69882" lon="5.63673">
        <ele>1221.1</ele>
        <time>2017-12-15T21:04:40Z</time>
      </trkpt>
      <trkpt lat="44.69888" lon="5.63691">
        <ele>1222.8</ele>
        <time>2017-12-15T21:04:49Z</time>
      </trkpt>
      <trkpt lat="44.699" lon="5.63718">
        <ele>1227</ele>
        <time>2017-12-15T21:05:08Z</time>
      </trkpt>
      <trkpt lat="44.69918" lon="5.63767">
        <ele>1232.4</ele>
        <time>2017-12-15T21:05:27Z</time>
      </trkpt>
      <trkpt lat="44.69934" lon="5.6382">
        <ele>1235.9</ele>
        <time>2017-12-15T21:05:40Z</time>
      </trkpt>
      <trkpt lat="44.69942" lon="5.63864">
        <ele>1237.3</ele>
        <time>2017-12-15T21:05:44Z</time>
      </trkpt>
      <trkpt lat="44.69961" lon="5.64043">
        <ele>1245.8</ele>
        <time>2017-12-15T21:05:56Z</time>
      </trkpt>
      <trkpt lat="44.69988" lon="5.6416">
        <ele>1253</ele>
        <time>2017-12-15T21:06:08Z</time>
      </trkpt>
      <trkpt lat="44.70015" lon="5.64235">
        <ele>1256.6</ele>
        <time>2017-12-15T21:06:14Z</time>
      </trkpt>
      <trkpt lat="44.70027" lon="5.64316">
        <ele>1260.8</ele>
        <time>2017-12-15T21:06:16Z</time>
      </trkpt>
      <trkpt lat="44.70034" lon="5.64376">
        <ele>1263.3</ele>
        <time>2017-12-15T21:06:33Z</time>
      </trkpt>
      <trkpt lat="44.70035" lon="5.64422">
        <ele>1265.3</ele>
        <time>2017-12-15T21:06:45Z</time>
      </trkpt>
      <trkpt lat="44.7004" lon="5.64453">
        <ele>1267.1</ele>
        <time>2017-12-15T21:06:47Z</time>
      </trkpt>
      <trkpt lat="44.7006" lon="5.64498">
        <ele>1270.4</ele>
        <time>2017-12-15T21:07:06Z</time>
      </trkpt>
      <trkpt lat="44.70072" lon="5.64532">
        <ele>1272.1</ele>
        <time>2017-12-15T21:07:19Z</time>
      </trkpt>
      <trkpt lat="44.70075" lon="5.64549">
        <ele>1272.9</ele>
        <time>2017-12-15T21:07:31Z</time>
      </trkpt>
      <trkpt lat="44.70074" lon="5.64563">
        <ele>1273.4</ele>
        <time>2017-12-15T21:07:33Z</time>
      </trkpt>
      <trkpt lat="44.70061" lon="5.64607">
        <ele>1275.5</ele>
        <time>2017-12-15T21:07:39Z</time>
      </trkpt>
      <trkpt lat="44.70054" lon="5.64678">
        <ele>1279.1</ele>
        <time>2017-12-15T21:07:51Z</time>
      </trkpt>
      <trkpt lat="44.70052" lon="5.64722">
        <ele>1281.2</ele>
        <time>2017-12-15T21:08:08Z</time>
      </trkpt>
      <trkpt lat="44.70054" lon="5.6474">
        <ele>1281.5</ele>
        <time>2017-12-15T21:08:12Z</time>
      </trkpt>
      <trkpt lat="44.70058" lon="5.6476">
        <ele>1281.6</ele>
        <time>2017-12-15T21:08:21Z</time>
      </trkpt>
      <trkpt lat="44.70067" lon="5.64779">
        <ele>1282.5</ele>
        <time>2017-12-15T21:08:39Z</time>
      </trkpt>
      <trkpt lat="44.7008" lon="5.64795">
        <ele>1284.4</ele>
        <time>2017-12-15T21:08:52Z</time>
      </trkpt>
      <trkpt lat="44.70095" lon="5.64807">
        <ele>1286.6</ele>
        <time>2017-12-15T21:09:02Z</time>
      </trkpt>
      <trkpt lat="44.70112" lon="5.64818">
        <ele>1288.5</ele>
        <time>2017-12-15T21:09:14Z</time>
      </trkpt>
      <trkpt lat="44.70131" lon="5.64832">
        <ele>1290.3</ele>
        <time>2017-12-15T21:09:17Z</time>
      </trkpt>
      <trkpt lat="44.7014" lon="5.64856">
        <ele>1290.7</ele>
        <time>2017-12-15T21:09:33Z</time>
      </trkpt>
      <trkpt lat="44.70142" lon="5.64874">
        <ele>1291.8</ele>
        <time>2017-12-15T21:09:41Z</time>
      </trkpt>
      <trkpt lat="44.70138" lon="5.64897">
        <ele>1293.6</ele>
        <time>2017-12-15T21:09:46Z</time>
      </trkpt>
      <trkpt lat="44.7013" lon="5.64905">
        <ele>1294.4</ele>
        <time>2017-12-15T21:09:51Z</time>
      </trkpt>
      <trkpt lat="44.70113" lon="5.6491">
        <ele>1293.5</ele>
        <time>2017-12-15T21:10:06Z</time>
      </trkpt>
      <trkpt lat="44.70078" lon="5.6492">
        <ele>1293.6</ele>
        <time>2017-12-15T21:10:14Z</time>
      </trkpt>
      <trkpt lat="44.70068" lon="5.64927">
        <ele>1293.1</ele>
        <time>2017-12-15T21:10:26Z</time>
      </trkpt>
      <trkpt lat="44.70057" lon="5.64945">
        <ele>1294.3</ele>
        <time>2017-12-15T21:10:28Z</time>
      </trkpt>
      <trkpt lat="44.70044" lon="5.64972">
        <ele>1295.9</ele>
        <time>2017-12-15T21:10:39Z</time>
      </trkpt>
      <trkpt lat="44.70026" lon="5.65001">
        <ele>1298</ele>
        <time>2017-12-15T21:10:55Z</time>
      </trkpt>
      <trkpt lat="44.70017" lon="5.65009">
        <ele>1298.9</ele>
        <time>2017-12-15T21:10:57Z</time>
      </trkpt>
      <trkpt lat="44.70003" lon="5.65015">
        <ele>1299</ele>
        <time>2017-12-15T21:11:14Z</time>
      </trkpt>
      <trkpt lat="44.69965" lon="5.65009">
        <ele>1293.7</ele>
        <time>2017-12-15T21:11:30Z</time>
      </trkpt>
      <trkpt lat="44.69946" lon="5.65015">
        <ele>1293.9</ele>
        <time>2017-12-15T21:11:35Z</time>
      </trkpt>
      <trkpt lat="44.69928" lon="5.6503">
        <ele>1296.5</ele>
        <time>2017-12-15T21:11:44Z</time>
      </trkpt>
      <trkpt lat="44.69918" lon="5.65039">
        <ele>1298.3</ele>
        <time>2017-12-15T21:11:51Z</time>
      </trkpt>
      <trkpt lat="44.69907" lon="5.65044">
        <ele>1298.8</ele>
        <time>2017-12-15T21:12:06Z</time>
      </trkpt>
      <trkpt lat="44.69893" lon="5.65051">
        <ele>1299.8</ele>
        <time>2017-12-15T21:12:18Z</time>
      </trkpt>
      <trkpt lat="44.69879" lon="5.65053">
        <ele>1299.5</ele>
        <time>2017-12-15T21:12:33Z</time>
      </trkpt>
      <trkpt lat="44.69853" lon="5.65058">
        <ele>1299.2</ele>
        <time>2017-12-15T21:12:48Z</time>
      </trkpt>
      <trkpt lat="44.69833" lon="5.65067">
        <ele>1300.7</ele>
        <time>2017-12-15T21:13:08Z</time>
      </trkpt>
      <trkpt lat="44.69814" lon="5.65072">
        <ele>1301.6</ele>
        <time>2017-12-15T21:13:15Z</time>
      </trkpt>
      <trkpt lat="44.69796" lon="5.65076">
        <ele>1302.6</ele>
        <time>2017-12-15T21:13:35Z</time>
      </trkpt>
      <trkpt lat="44.69768" lon="5.6508">
        <ele>1303.6</ele>
        <time>2017-12-15T21:13:40Z</time>
      </trkpt>
      <trkpt lat="44.6974" lon="5.65079">
        <ele>1302.3</ele>
        <time>2017-12-15T21:13:52Z</time>
      </trkpt>
      <trkpt lat="44.6971" lon="5.65079">
        <ele>1301.2</ele>
        <time>2017-12-15T21:14:11Z</time>
      </trkpt>
      <trkpt lat="44.6969" lon="5.65083">
        <ele>1301.4</ele>
        <time>2017-12-15T21:14:26Z</time>
      </trkpt>
      <trkpt lat="44.69676" lon="5.65089">
        <ele>1301.6</ele>
        <time>2017-12-15T21:14:41Z</time>
      </trkpt>
      <trkpt lat="44.69665" lon="5.65098">
        <ele>1303</ele>
        <time>2017-12-15T21:14:53Z</time>
      </trkpt>
      <trkpt lat="44.69653" lon="5.65114">
        <ele>1305.1</ele>
        <time>2017-12-15T21:15:13Z</time>
      </trkpt>
      <trkpt lat="44.69627" lon="5.65164">
        <ele>1308.5</ele>
        <time>2017-12-15T21:15:28Z</time>
      </trkpt>
      <trkpt lat="44.69613" lon="5.65183">
        <ele>1309.1</ele>
        <time>2017-12-15T21:15:30Z</time>
      </trkpt>
      <trkpt lat="44.69599" lon="5.65197">
        <ele>1309.5</ele>
        <time>2017-12-15T21:15:44Z</time>
      </trkpt>
      <trkpt lat="44.69583" lon="5.65207">
        <ele>1308.7</ele>
        <time>2017-12-15T21:16:02Z</time>
      </trkpt>
      <trkpt lat="44.69563" lon="5.65217">
        <ele>1308.8</ele>
        <time>2017-12-15T21:16:06Z</time>
      </trkpt>
      <trkpt lat="44.69526" lon="5.65231">
        <ele>1308.5</ele>
        <time>2017-12-15T21:16:14Z</time>
      </trkpt>
      <trkpt lat="44.69501" lon="5.65243">
        <ele>1309.5</ele>
        <time>2017-12-15T21:16:23Z</time>
      </trkpt>
      <trkpt lat="44.69448" lon="5.65276">
        <ele>1311.1</ele>
        <time>2017-12-15T21:16:29Z</time>
      </trkpt>
      <trkpt lat="44.69378" lon="5.65313">
        <ele>1313.2</ele>
        <time>2017-12-15T21:16:31Z</time>
      </trkpt>
      <trkpt lat="44.69318" lon="5.65338">
        <ele>1315.3</ele>
        <time>2017-12-15T21:16:50Z</time>
      </trkpt>
      <trkpt lat="44.69307" lon="5.65341">
        <ele>1315.3</ele>
        <time>2017-12-15T21:16:58Z</time>
      </trkpt>
      <trkpt lat="44.69257" lon="5.65356">
        <ele>1315.2</ele>
        <time>2017-12-15T21:17:11Z</time>
      </trkpt>
      <trkpt lat="44.69189" lon="5.6537">
        <ele>1317.4</ele>
        <time>2017-12-15T21:17:14Z</time>
      </trkpt>
      <trkpt lat="44.69164" lon="5.65378">
        <ele>1318.3</ele>
        <time>2017-12-15T21:17:17Z</time>
      </trkpt>
      <trkpt lat="44.69141" lon="5.65398">
        <ele>1318.2</ele>
        <time>2017-12-15T21:17:27Z</time>
      </trkpt>
      <trkpt lat="44.69134" lon="5.65408">
        <ele>1317.7</ele>
        <time>2017-12-15T21:17:43Z</time>
      </trkpt>
      <trkpt lat="44.69128" lon="5.6542">
        <ele>1316.7</ele>
        <time>2017-12-15T21:17:54Z</time>
      </trkpt>
      <trkpt lat="44.69124" lon="5.65435">
        <ele>1315.7</ele>
        <time>2017-12-15T21:18:05Z</time>
      </trkpt>
      <trkpt lat="44.69122" lon="5.65454">
        <ele>1314.5</ele>
        <time>2017-12-15T21:18:11Z</time>
      </trkpt>
      <trkpt lat="44.69119" lon="5.65498">
        <ele>1313.2</ele>
        <time>2017-12-15T21:18:18Z</time>
      </trkpt>
      <trkpt lat="44.69111" lon="5.65526">
        <ele>1312.8</ele>
        <time>2017-12-15T21:18:33Z</time>
      </trkpt>
      <trkpt lat="44.69082" lon="5.65603">
        <ele>1307.6</ele>
        <time>2017-12-15T21:18:49Z</time>
      </trkpt>
      <trkpt lat="44.69073" lon="5.65623">
        <ele>1307.1</ele>
        <time>2017-12-15T21:19:08Z</time>
      </trkpt>
      <trkpt lat="44.69057" lon="5.65648">
        <ele>1304.3</ele>
        <time>2017-12-15T21:19:23Z</time>
      </trkpt>
      <trkpt lat="44.68991" lon="5.65744">
        <ele>1297.6</ele>
        <time>2017-12-15T21:19:33Z</time>
      </trkpt>
      <trkpt lat="44.68962" lon="5.65795">
        <ele>1294.7</ele>
        <time>2017-12-15T21:19:37Z</time>
      </trkpt>
      <trkpt lat="44.68943" lon="5.65838">
        <ele>1293.2</ele>
        <time>2017-12-15T21:19:49Z</time>
      </trkpt>
      <trkpt lat="44.68927" lon="5.65878">
        <ele>1291.7</ele>
        <time>2017-12-15T21:20:06Z</time>
      </trkpt>
      <trkpt lat="44.68909" lon="5.65914">
        <ele>1288.8</ele>
        <time>2017-12-15T21:20:14Z</time>
      </trkpt>
      <trkpt lat="44.68887" lon="5.65954">
        <ele>1282.7</ele>
        <time>2017-12-15T21:20:29Z</time>
      </trkpt>
      <trkpt lat="44.68876" lon="5.65975">
        <ele>1279.4</ele>
        <time>2017-12-15T21:20:36Z</time>
      </trkpt>
      <trkpt lat="44.6887" lon="5.65994">
        <ele>1279.6</ele>
        <time>2017-12-15T21:20:44Z</time>
      </trkpt>
      <trkpt lat="44.68854" lon="5.66049">
        <ele>1279.7</ele>
        <time>2017-12-15T21:21:01Z</time>
      </trkpt>
      <trkpt lat="44.6884" lon="5.66105">
        <ele>1278.4</ele>
        <time>2017-12-15T21:21:18Z</time>
      </trkpt>
      <trkpt lat="44.68827" lon="5.66162">
        <ele>1275.5</ele>
        <time>2017-12-15T21:21:24Z</time>
      </trkpt>
      <trkpt lat="44.68823" lon="5.66196">
        <ele>1274.6</ele>
        <time>2017-12-15T21:21:35Z</time>
      </trkpt>
      <trkpt lat="44.68825" lon="5.66233">
        <ele>1274.2</ele>
        <time>2017-12-15T21:21:55Z</time>
      </trkpt>
      <trkpt lat="44.68833" lon="5.6627">
        <ele>1273.9</ele>
        <time>2017-12-15T21:22:04Z</time>
      </trkpt>
      <trkpt lat="44.68845" lon="5.66315">
        <ele>1269.1</ele>
        <time>2017-12-15T21:22:13Z</time>
      </trkpt>
      <trkpt lat="44.68854" lon="5.6633">
        <ele>1267.4</ele>
        <time>2017-12-15T21:22:17Z</time>
      </trkpt>
      <trkpt lat="44.68868" lon="5.66339">
        <ele>1270.5</ele>
        <time>2017-12-15T21:22:19Z</time>
      </trkpt>
      <trkpt lat="44.6889" lon="5.66358">
        <ele>1273.9</ele>
        <time>2017-12-15T21:22:26Z</time>
      </trkpt>
      <trkpt lat="44.68907" lon="5.66393">
        <ele>1273.3</ele>
        <time>2017-12-15T21:22:31Z</time>
      </trkpt>
      <trkpt lat="44.68914" lon="5.66437">
        <ele>1263.3</ele>
        <time>2017-12-15T21:22:47Z</time>
      </trkpt>
      <trkpt lat="44.68916" lon="5.66465">
        <ele>1263.2</ele>
        <time>2017-12-15T21:22:57Z</time>
      </trkpt>
      <trkpt lat="44.6891" lon="5.66494">
        <ele>1262.7</ele>
        <time>2017-12-15T21:23:00Z</time>
      </trkpt>
      <trkpt lat="44.68872" lon="5.66615">
        <ele>1252.8</ele>
        <time>2017-12-15T21:23:18Z</time>
      </trkpt>
      <trkpt lat="44.68843" lon="5.66681">
        <ele>1250.1</ele>
        <time>2017-12-15T21:23:25Z</time>
      </trkpt>
      <trkpt lat="44.68836" lon="5.66702">
        <ele>1246.2</ele>
        <time>2017-12-15T21:23:39Z</time>
      </trkpt>
      <trkpt lat="44.68832" lon="5.66722">
        <ele>1242.9</ele>
        <time>2017-12-15T21:23:55Z</time>
      </trkpt>
      <trkpt lat="44.68832" lon="5.66732">
        <ele>1240.8</ele>
        <time>2017-12-15T21:24:00Z</time>
      </trkpt>
      <trkpt lat="44.68834" lon="5.66744">
        <ele>1239.6</ele>
        <time>2017-12-15T21:24:07Z</time>
      </trkpt>
      <trkpt lat="44.6884" lon="5.66755">
        <ele>1238.2</ele>
        <time>2017-12-15T21:24:18Z</time>
      </trkpt>
      <trkpt lat="44.68846" lon="5.66759">
        <ele>1238.5</ele>
        <time>2017-12-15T21:24:37Z</time>
      </trkpt>
      <trkpt lat="44.68854" lon="5.66763">
        <ele>1239.3</ele>
        <time>2017-12-15T21:24:45Z</time>
      </trkpt>
      <trkpt lat="44.68872" lon="5.66761">
        <ele>1243.3</ele>
        <time>2017-12-15T21:24:53Z</time>
      </trkpt>
      <trkpt lat="44.68897" lon="5.66757">
        <ele>1246.8</ele>
        <time>2017-12-15T21:25:01Z</time>
      </trkpt>
      <trkpt lat="44.68914" lon="5.66759">
        <ele>1246.7</ele>
        <time>2017-12-15T21:25:20Z</time>
      </trkpt>
      <trkpt lat="44.6893" lon="5.66767">
        <ele>1244.2</ele>
        <time>2017-12-15T21:25:39Z</time>
      </trkpt>
      <trkpt lat="44.68939" lon="5.66775">
        <ele>1241.3</ele>
        <time>2017-12-15T21:25:57Z</time>
      </trkpt>
      <trkpt lat="44.68944" lon="5.6678">
        <ele>1240.3</ele>
        <time>2017-12-15T21:26:00Z</time>
      </trkpt>
      <trkpt lat="44.68953" lon="5.66796">
        <ele>1239.7</ele>
        <time>2017-12-15T21:26:16Z</time>
      </trkpt>
      <trkpt lat="44.68955" lon="5.66808">
        <ele>1238.1</ele>
        <time>2017-12-15T21:26:33Z</time>
      </trkpt>
      <trkpt lat="44.68956" lon="5.66827">
        <ele>1238.1</ele>
        <time>2017-12-15T21:26:44Z</time>
      </trkpt>
      <trkpt lat="44.68952" lon="5.66851">
        <ele>1236.9</ele>
        <time>2017-12-15T21:26:55Z</time>
      </trkpt>
      <trkpt lat="44.6894" lon="5.66901">
        <ele>1235.7</ele>
        <time>2017-12-15T21:27:08Z</time>
      </trkpt>
      <trkpt lat="44.68926" lon="5.66948">
        <ele>1232.4</ele>
        <time>2017-12-15T21:27:13Z</time>
      </trkpt>
      <trkpt lat="44.68909" lon="5.66999">
        <ele>1230.1</ele>
        <time>2017-12-15T21:27:17Z</time>
      </trkpt>
      <trkpt lat="44.68896" lon="5.67047">
        <ele>1222.3</ele>
        <time>2017-12-15T21:27:35Z</time>
      </trkpt>
      <trkpt lat="44.68883" lon="5.67103">
        <ele>1213.4</ele>
        <time>2017-12-15T21:27:43Z</time>
      </trkpt>
      <trkpt lat="44.68882" lon="5.67121">
        <ele>1209.2</ele>
        <time>2017-12-15T21:28:01Z</time>
      </trkpt>
      <trkpt lat="44.68888" lon="5.67137">
        <ele>1207.3</ele>
        <time>2017-12-15T21:28:07Z</time>
      </trkpt>
      <trkpt lat="44.68894" lon="5.67144">
        <ele>1205.6</ele>
        <time>2017-12-15T21:28:23Z</time>
      </trkpt>
      <trkpt lat="44.68903" lon="5.67147">
        <ele>1206.2</ele>
        <time>2017-12-15T21:28:29Z</time>
      </trkpt>
      <trkpt lat="44.68928" lon="5.67144">
        <ele>1210.7</ele>
        <time>2017-12-15T21:28:40Z</time>
      </trkpt>
      <trkpt lat="44.68957" lon="5.67136">
        <ele>1213.5</ele>
        <time>2017-12-15T21:29:00Z</time>
      </trkpt>
      <trkpt lat="44.68989" lon="5.67131">
        <ele>1210.1</ele>
        <time>2017-12-15T21:29:18Z</time>
      </trkpt>
      <trkpt lat="44.69043" lon="5.67118">
        <ele>1203.7</ele>
        <time>2017-12-15T21:29:36Z</time>
      </trkpt>
      <trkpt lat="44.69117" lon="5.67107">
        <ele>1197</ele>
        <time>2017-12-15T21:29:53Z</time>
      </trkpt>
      <trkpt lat="44.69141" lon="5.67104">
        <ele>1196.1</ele>
        <time>2017-12-15T21:29:57Z</time>
      </trkpt>
      <trkpt lat="44.69165" lon="5.67109">
        <ele>1192.7</ele>
        <time>2017-12-15T21:30:15Z</time>
      </trkpt>
      <trkpt lat="44.69191" lon="5.67119">
        <ele>1190.5</ele>
        <time>2017-12-15T21:30:27Z</time>
      </trkpt>
      <trkpt lat="44.69214" lon="5.67118">
        <ele>1191.8</ele>
        <time>2017-12-15T21:30:44Z</time>
      </trkpt>
      <trkpt lat="44.69225" lon="5.6712">
        <ele>1192.6</ele>
        <time>2017-12-15T21:30:54Z</time>
      </trkpt>
      <trkpt lat="44.69232" lon="5.67124">
        <ele>1193.9</ele>
        <time>2017-12-15T21:31:03Z</time>
      </trkpt>
      <trkpt lat="44.69236" lon="5.67129">
        <ele>1194.5</ele>
        <time>2017-12-15T21:31:13Z</time>
      </trkpt>
      <trkpt lat="44.69238" lon="5.67136">
        <ele>1194.7</ele>
        <time>2017-12-15T21:31:16Z</time>
      </trkpt>
      <trkpt lat="44.69239" lon="5.67143">
        <ele>1195</ele>
        <time>2017-12-15T21:31:27Z</time>
      </trkpt>
      <trkpt lat="44.69236" lon="5.67156">
        <ele>1194.6</ele>
        <time>2017-12-15T21:31:29Z</time>
      </trkpt>
      <trkpt lat="44.69221" lon="5.67187">
        <ele>1190.4</ele>
        <time>2017-12-15T21:31:31Z</time>
      </trkpt>
      <trkpt lat="44.69195" lon="5.67255">
        <ele>1186.7</ele>
        <time>2017-12-15T21:31:42Z</time>
      </trkpt>
      <trkpt lat="44.69154" lon="5.67349">
        <ele>1181.8</ele>
        <time>2017-12-15T21:32:00Z</time>
      </trkpt>
      <trkpt lat="44.69128" lon="5.67411">
        <ele>1178.3</ele>
        <time>2017-12-15T21:32:18Z</time>
      </trkpt>
      <trkpt lat="44.69114" lon="5.67449">
        <ele>1176.9</ele>
        <time>2017-12-15T21:32:37Z</time>
      </trkpt>
      <trkpt lat="44.69099" lon="5.6749">
        <ele>1175.5</ele>
        <time>2017-12-15T21:32:44Z</time>
      </trkpt>
      <trkpt lat="44.69085" lon="5.67519">
        <ele>1174.2</ele>
        <time>2017-12-15T21:32:55Z</time>
      </trkpt>
      <trkpt lat="44.69043" lon="5.67574">
        <ele>1167.6</ele>
        <time>2017-12-15T21:33:08Z</time>
      </trkpt>
      <trkpt lat="44.6903" lon="5.67596">
        <ele>1167.6</ele>
        <time>2017-12-15T21:33:14Z</time>
      </trkpt>
      <trkpt lat="44.6901" lon="5.67623">
        <ele>1166.2</ele>
        <time>2017-12-15T21:33:22Z</time>
      </trkpt>
      <trkpt lat="44.6898" lon="5.67652">
        <ele>1163.9</ele>
        <time>2017-12-15T21:33:35Z</time>
      </trkpt>
      <trkpt lat="44.68965" lon="5.67664">
        <ele>1162.5</ele>
        <time>2017-12-15T21:33:54Z</time>
      </trkpt>
      <trkpt lat="44.68943" lon="5.67677">
        <ele>1159.2</ele>
        <time>2017-12-15T21:34:05Z</time>
      </trkpt>
      <trkpt lat="44.68925" lon="5.67684">
        <ele>1155.2</ele>
        <time>2017-12-15T21:34:09Z</time>
      </trkpt>
      <trkpt lat="44.68923" lon="5.67686">
        <ele>1155.2</ele>
        <time>2017-12-15T21:34:15Z</time>
      </trkpt>
      <trkpt lat="44.68913" lon="5.67696">
        <ele>1154.2</ele>
        <time>2017-12-15T21:34:26Z</time>
      </trkpt>
      <trkpt lat="44.68905" lon="5.67708">
        <ele>1152.2</ele>
        <time>2017-12-15T21:34:37Z</time>
      </trkpt>
      <trkpt lat="44.68895" lon="5.67733">
        <ele>1151.2</ele>
        <time>2017-12-15T21:34:39Z</time>
      </trkpt>
      <trkpt lat="44.68885" lon="5.67779">
        <ele>1151.2</ele>
        <time>2017-12-15T21:34:44Z</time>
      </trkpt>
      <trkpt lat="44.6888" lon="5.67827">
        <ele>1152.3</ele>
        <time>2017-12-15T21:34:59Z</time>
      </trkpt>
      <trkpt lat="44.68865" lon="5.67891">
        <ele>1150.2</ele>
        <time>2017-12-15T21:35:09Z</time>
      </trkpt>
      <trkpt lat="44.68852" lon="5.67931">
        <ele>1150.5</ele>
        <time>2017-12-15T21:35:27Z</time>
      </trkpt>
      <trkpt lat="44.68835" lon="5.67965">
        <ele>1146.1</ele>
        <time>2017-12-15T21:35:34Z</time>
      </trkpt>
      <trkpt lat="44.688" lon="5.68017">
        <ele>1133.5</ele>
        <time>2017-12-15T21:35:45Z</time>
      </trkpt>
      <trkpt lat="44.6879" lon="5.68037">
        <ele>1128.8</ele>
        <time>2017-12-15T21:35:58Z</time>
      </trkpt>
      <trkpt lat="44.68788" lon="5.68056">
        <ele>1125.6</ele>
        <time>2017-12-15T21:36:04Z</time>
      </trkpt>
      <trkpt lat="44.6879" lon="5.68061">
        <ele>1125.1</ele>
        <time>2017-12-15T21:36:20Z</time>
      </trkpt>
      <trkpt lat="44.68797" lon="5.68068">
        <ele>1125.4</ele>
        <time>2017-12-15T21:36:26Z</time>
      </trkpt>
      <trkpt lat="44.68805" lon="5.68068">
        <ele>1127.8</ele>
        <time>2017-12-15T21:36:42Z</time>
      </trkpt>
      <trkpt lat="44.68817" lon="5.68062">
        <ele>1130.3</ele>
        <time>2017-12-15T21:36:58Z</time>
      </trkpt>
      <trkpt lat="44.68835" lon="5.68059">
        <ele>1132.3</ele>
        <time>2017-12-15T21:37:08Z</time>
      </trkpt>
      <trkpt lat="44.68855" lon="5.68057">
        <ele>1134.1</ele>
        <time>2017-12-15T21:37:27Z</time>
      </trkpt>
      <trkpt lat="44.68875" lon="5.6806">
        <ele>1133.8</ele>
        <time>2017-12-15T21:37:33Z</time>
      </trkpt>
      <trkpt lat="44.68912" lon="5.68074">
        <ele>1129.8</ele>
        <time>2017-12-15T21:37:39Z</time>
      </trkpt>
      <trkpt lat="44.68925" lon="5.68078">
        <ele>1127.6</ele>
        <time>2017-12-15T21:37:52Z</time>
      </trkpt>
      <trkpt lat="44.6894" lon="5.68079">
        <ele>1126.1</ele>
        <time>2017-12-15T21:38:05Z</time>
      </trkpt>
      <trkpt lat="44.68951" lon="5.68078">
        <ele>1125.3</ele>
        <time>2017-12-15T21:38:20Z</time>
      </trkpt>
      <trkpt lat="44.68969" lon="5.6807">
        <ele>1125.4</ele>
        <time>2017-12-15T21:38:32Z</time>
      </trkpt>
      <trkpt lat="44.69017" lon="5.68041">
        <ele>1123</ele>
        <time>2017-12-15T21:38:40Z</time>
      </trkpt>
      <trkpt lat="44.69031" lon="5.68035">
        <ele>1121.7</ele>
        <time>2017-12-15T21:38:48Z</time>
      </trkpt>
      <trkpt lat="44.69049" lon="5.68029">
        <ele>1119.9</ele>
        <time>2017-12-15T21:38:57Z</time>
      </trkpt>
      <trkpt lat="44.6907" lon="5.68027">
        <ele>1117.6</ele>
        <time>2017-12-15T21:39:15Z</time>
      </trkpt>
      <trkpt lat="44.69092" lon="5.68028">
        <ele>1115.3</ele>
        <time>2017-12-15T21:39:32Z</time>
      </trkpt>
      <trkpt lat="44.69136" lon="5.68027">
        <ele>1112.4</ele>
        <time>2017-12-15T21:39:40Z</time>
      </trkpt>
      <trkpt lat="44.69149" lon="5.68027">
        <ele>1112.1</ele>
        <time>2017-12-15T21:40:00Z</time>
      </trkpt>
      <trkpt lat="44.69162" lon="5.68032">
        <ele>1111.2</ele>
        <time>2017-12-15T21:40:19Z</time>
      </trkpt>
      <trkpt lat="44.69173" lon="5.68042">
        <ele>1109.6</ele>
        <time>2017-12-15T21:40:30Z</time>
      </trkpt>
      <trkpt lat="44.69182" lon="5.68059">
        <ele>1107.7</ele>
        <time>2017-12-15T21:40:39Z</time>
      </trkpt>
      <trkpt lat="44.69192" lon="5.6809">
        <ele>1105.1</ele>
        <time>2017-12-15T21:40:56Z</time>
      </trkpt>
      <trkpt lat="44.69205" lon="5.68112">
        <ele>1104</ele>
        <time>2017-12-15T21:41:12Z</time>
      </trkpt>
      <trkpt lat="44.69247" lon="5.68142">
        <ele>1104.2</ele>
        <time>2017-12-15T21:41:29Z</time>
      </trkpt>
      <trkpt lat="44.69264" lon="5.68162">
        <ele>1103.4</ele>
        <time>2017-12-15T21:41:34Z</time>
      </trkpt>
      <trkpt lat="44.69279" lon="5.68188">
        <ele>1099.6</ele>
        <time>2017-12-15T21:41:36Z</time>
      </trkpt>
      <trkpt lat="44.69293" lon="5.68209">
        <ele>1096.5</ele>
        <time>2017-12-15T21:41:47Z</time>
      </trkpt>
      <trkpt lat="44.69303" lon="5.68216">
        <ele>1095.6</ele>
        <time>2017-12-15T21:41:56Z</time>
      </trkpt>
      <trkpt lat="44.69316" lon="5.68221">
        <ele>1094.4</ele>
        <time>2017-12-15T21:42:15Z</time>
      </trkpt>
      <trkpt lat="44.69345" lon="5.68225">
        <ele>1093.3</ele>
        <time>2017-12-15T21:42:28Z</time>
      </trkpt>
      <trkpt lat="44.69392" lon="5.6823">
        <ele>1091</ele>
        <time>2017-12-15T21:42:41Z</time>
      </trkpt>
      <trkpt lat="44.69434" lon="5.68231">
        <ele>1090.1</ele>
        <time>2017-12-15T21:42:54Z</time>
      </trkpt>
      <trkpt lat="44.69453" lon="5.68235">
        <ele>1089.4</ele>
        <time>2017-12-15T21:42:56Z</time>
      </trkpt>
      <trkpt lat="44.69464" lon="5.68243">
        <ele>1087.7</ele>
        <time>2017-12-15T21:43:16Z</time>
      </trkpt>
      <trkpt lat="44.69478" lon="5.68258">
        <ele>1084</ele>
        <time>2017-12-15T21:43:30Z</time>
      </trkpt>
      <trkpt lat="44.69487" lon="5.68264">
        <ele>1082.5</ele>
        <time>2017-12-15T21:43:34Z</time>
      </trkpt>
      <trkpt lat="44.69507" lon="5.68269">
        <ele>1081</ele>
        <time>2017-12-15T21:43:42Z</time>
      </trkpt>
      <trkpt lat="44.69539" lon="5.68266">
        <ele>1080.4</ele>
        <time>2017-12-15T21:43:49Z</time>
      </trkpt>
      <trkpt lat="44.69574" lon="5.68267">
        <ele>1078.7</ele>
        <time>2017-12-15T21:44:06Z</time>
      </trkpt>
      <trkpt lat="44.69617" lon="5.68274">
        <ele>1074.6</ele>
        <time>2017-12-15T21:44:16Z</time>
      </trkpt>
      <trkpt lat="44.6966" lon="5.68278">
        <ele>1071.4</ele>
        <time>2017-12-15T21:44:18Z</time>
      </trkpt>
      <trkpt lat="44.69697" lon="5.68278">
        <ele>1069.9</ele>
        <time>2017-12-15T21:44:37Z</time>
      </trkpt>
      <trkpt lat="44.69716" lon="5.68275">
        <ele>1069.7</ele>
        <time>2017-12-15T21:44:39Z</time>
      </trkpt>
      <trkpt lat="44.69745" lon="5.68265">
        <ele>1070.5</ele>
        <time>2017-12-15T21:44:55Z</time>
      </trkpt>
      <trkpt lat="44.69761" lon="5.6827">
        <ele>1069.4</ele>
        <time>2017-12-15T21:44:57Z</time>
      </trkpt>
      <trkpt lat="44.69765" lon="5.68275">
        <ele>1068.5</ele>
        <time>2017-12-15T21:45:17Z</time>
      </trkpt>
      <trkpt lat="44.69767" lon="5.68283">
        <ele>1067.4</ele>
        <time>2017-12-15T21:45:19Z</time>
      </trkpt>
      <trkpt lat="44.69767" lon="5.68291">
        <ele>1066.6</ele>
        <time>2017-12-15T21:45:37Z</time>
      </trkpt>
      <trkpt lat="44.69765" lon="5.68301">
        <ele>1065.5</ele>
        <time>2017-12-15T21:45:42Z</time>
      </trkpt>
      <trkpt lat="44.69775" lon="5.68298">
        <ele>1065.8</ele>
        <time>2017-12-15T21:45:48Z</time>
      </trkpt>
      <trkpt lat="44.69828" lon="5.68279">
        <ele>1069.6</ele>
        <time>2017-12-15T21:45:51Z</time>
      </trkpt>
      <trkpt lat="44.69862" lon="5.68265">
        <ele>1071.9</ele>
        <time>2017-12-15T21:45:55Z</time>
      </trkpt>
      <trkpt lat="44.69875" lon="5.68258">
        <ele>1073.2</ele>
        <time>2017-12-15T21:45:57Z</time>
      </trkpt>
      <trkpt lat="44.69895" lon="5.68251">
        <ele>1074.8</ele>
        <time>2017-12-15T21:46:09Z</time>
      </trkpt>
      <trkpt lat="44.69941" lon="5.68236">
        <ele>1077</ele>
        <time>2017-12-15T21:46:22Z</time>
      </trkpt>
      <trkpt lat="44.70061" lon="5.68199">
        <ele>1082.2</ele>
        <time>2017-12-15T21:46:32Z</time>
      </trkpt>
      <trkpt lat="44.702" lon="5.68149">
        <ele>1087.4</ele>
        <time>2017-12-15T21:46:43Z</time>
      </trkpt>
      <trkpt lat="44.70229" lon="5.68136">
        <ele>1088.2</ele>
        <time>2017-12-15T21:46:49Z</time>
      </trkpt>
      <trkpt lat="44.70263" lon="5.68116">
        <ele>1090.4</ele>
        <time>2017-12-15T21:47:06Z</time>
      </trkpt>
      <trkpt lat="44.70296" lon="5.68091">
        <ele>1093.3</ele>
        <time>2017-12-15T21:47:16Z</time>
      </trkpt>
      <trkpt lat="44.7034" lon="5.68052">
        <ele>1096.7</ele>
        <time>2017-12-15T21:47:34Z</time>
      </trkpt>
      <trkpt lat="44.70422" lon="5.67978">
        <ele>1097.1</ele>
        <time>2017-12-15T21:47:54Z</time>
      </trkpt>
      <trkpt lat="44.70462" lon="5.67947">
        <ele>1098.6</ele>
        <time>2017-12-15T21:48:07Z</time>
      </trkpt>
      <trkpt lat="44.70519" lon="5.67911">
        <ele>1098.5</ele>
        <time>2017-12-15T21:48:11Z</time>
      </trkpt>
      <trkpt lat="44.70658" lon="5.67824">
        <ele>1103.6</ele>
        <time>2017-12-15T21:48:16Z</time>
      </trkpt>
      <trkpt lat="44.70687" lon="5.67808">
        <ele>1104.9</ele>
        <time>2017-12-15T21:48:33Z</time>
      </trkpt>
      <trkpt lat="44.70733" lon="5.67788">
        <ele>1107.9</ele>
        <time>2017-12-15T21:48:35Z</time>
      </trkpt>
      <trkpt lat="44.70786" lon="5.67766">
        <ele>1111</ele>
        <time>2017-12-15T21:48:51Z</time>
      </trkpt>
      <trkpt lat="44.7083" lon="5.6775">
        <ele>1113.1</ele>
        <time>2017-12-15T21:49:07Z</time>
      </trkpt>
      <trkpt lat="44.70879" lon="5.6774">
        <ele>1116.1</ele>
        <time>2017-12-15T21:49:24Z</time>
      </trkpt>
      <trkpt lat="44.70948" lon="5.67729">
        <ele>1120</ele>
        <time>2017-12-15T21:49:41Z</time>
      </trkpt>
      <trkpt lat="44.70984" lon="5.67726">
        <ele>1123.1</ele>
        <time>2017-12-15T21:49:45Z</time>
      </trkpt>
      <trkpt lat="44.71026" lon="5.67729">
        <ele>1125.4</ele>
        <time>2017-12-15T21:49:59Z</time>
      </trkpt>
      <trkpt lat="44.71088" lon="5.67737">
        <ele>1128.6</ele>
        <time>2017-12-15T21:50:11Z</time>
      </trkpt>
      <trkpt lat="44.71134" lon="5.67744">
        <ele>1131</ele>
        <time>2017-12-15T21:50:20Z</time>
      </trkpt>
      <trkpt lat="44.7116" lon="5.67745">
        <ele>1132.1</ele>
        <time>2017-12-15T21:50:37Z</time>
      </trkpt>
      <trkpt lat="44.71181" lon="5.67735">
        <ele>1133.3</ele>
        <time>2017-12-15T21:50:46Z</time>
      </trkpt>
      <trkpt lat="44.71206" lon="5.67716">
        <ele>1134.8</ele>
        <time>2017-12-15T21:50:52Z</time>
      </trkpt>
      <trkpt lat="44.71221" lon="5.67711">
        <ele>1135.4</ele>
        <time>2017-12-15T21:51:01Z</time>
      </trkpt>
      <trkpt lat="44.71234" lon="5.67709">
        <ele>1136.1</ele>
        <time>2017-12-15T21:51:10Z</time>
      </trkpt>
      <trkpt lat="44.71255" lon="5.67712">
        <ele>1137</ele>
        <time>2017-12-15T21:51:24Z</time>
      </trkpt>
      <trkpt lat="44.71298" lon="5.67721">
        <ele>1138.6</ele>
        <time>2017-12-15T21:51:36Z</time>
      </trkpt>
      <trkpt lat="44.71341" lon="5.67731">
        <ele>1139.4</ele>
        <time>2017-12-15T21:51:50Z</time>
      </trkpt>
      <trkpt lat="44.7137" lon="5.67731">
        <ele>1139.9</ele>
        <time>2017-12-15T21:52:08Z</time>
      </trkpt>
      <trkpt lat="44.714" lon="5.67718">
        <ele>1141.5</ele>
        <time>2017-12-15T21:52:22Z</time>
      </trkpt>
      <trkpt lat="44.71445" lon="5.67683">
        <ele>1144.6</ele>
        <time>2017-12-15T21:52:29Z</time>
      </trkpt>
      <trkpt lat="44.71461" lon="5.67677">
        <ele>1145.1</ele>
        <time>2017-12-15T21:52:40Z</time>
      </trkpt>
      <trkpt lat="44.71489" lon="5.67677">
        <ele>1145.3</ele>
        <time>2017-12-15T21:52:47Z</time>
      </trkpt>
      <trkpt lat="44.71535" lon="5.6768">
        <ele>1145.6</ele>
        <time>2017-12-15T21:52:57Z</time>
      </trkpt>
      <trkpt lat="44.71578" lon="5.67675">
        <ele>1146.7</ele>
        <time>2017-12-15T21:53:16Z</time>
      </trkpt>
      <trkpt lat="44.71687" lon="5.67653">
        <ele>1149</ele>
        <time>2017-12-15T21:53:25Z</time>
      </trkpt>
      <trkpt lat="44.71782" lon="5.67642">
        <ele>1151.8</ele>
        <time>2017-12-15T21:53:30Z</time>
      </trkpt>
      <trkpt lat="44.7182" lon="5.6764">
        <ele>1153.4</ele>
        <time>2017-12-15T21:53:33Z</time>
      </trkpt>
      <trkpt lat="44.71856" lon="5.67641">
        <ele>1153.8</ele>
        <time>2017-12-15T21:53:40Z</time>
      </trkpt>
      <trkpt lat="44.72059" lon="5.67655">
        <ele>1159.7</ele>
        <time>2017-12-15T21:53:59Z</time>
      </trkpt>
      <trkpt lat="44.72103" lon="5.67661">
        <ele>1162.1</ele>
        <time>2017-12-15T21:54:12Z</time>
      </trkpt>
      <trkpt lat="44.72132" lon="5.67667">
        <ele>1162.7</ele>
        <time>2017-12-15T21:54:28Z</time>
      </trkpt>
      <trkpt lat="44.72265" lon="5.67707">
        <ele>1169.1</ele>
        <time>2017-12-15T21:54:33Z</time>
      </trkpt>
      <trkpt lat="44.72389" lon="5.67746">
        <ele>1174.1</ele>
        <time>2017-12-15T21:54:35Z</time>
      </trkpt>
      <trkpt lat="44.72446" lon="5.67763">
        <ele>1173</ele>
        <time>2017-12-15T21:54:45Z</time>
      </trkpt>
      <trkpt lat="44.72468" lon="5.67769">
        <ele>1172.1</ele>
        <time>2017-12-15T21:54:49Z</time>
      </trkpt>
      <trkpt lat="44.72568" lon="5.67775">
        <ele>1167.2</ele>
        <time>2017-12-15T21:54:51Z</time>
      </trkpt>
      <trkpt lat="44.72666" lon="5.67782">
        <ele>1162.7</ele>
        <time>2017-12-15T21:55:04Z</time>
      </trkpt>
      <trkpt lat="44.72766" lon="5.67799">
        <ele>1158.8</ele>
        <time>2017-12-15T21:55:15Z</time>
      </trkpt>
      <trkpt lat="44.72798" lon="5.67807">
        <ele>1157.9</ele>
        <time>2017-12-15T21:55:29Z</time>
      </trkpt>
      <trkpt lat="44.7282" lon="5.67818">
        <ele>1156.6</ele>
        <time>2017-12-15T21:55:46Z</time>
      </trkpt>
      <trkpt lat="44.72842" lon="5.67831">
        <ele>1154.9</ele>
        <time>2017-12-15T21:55:55Z</time>
      </trkpt>
      <trkpt lat="44.7288" lon="5.67852">
        <ele>1152.2</ele>
        <time>2017-12-15T21:56:01Z</time>
      </trkpt>
      <trkpt lat="44.729" lon="5.6786">
        <ele>1150.7</ele>
        <time>2017-12-15T21:56:17Z</time>
      </trkpt>
      <trkpt lat="44.72931" lon="5.67868">
        <ele>1149.4</ele>
        <time>2017-12-15T21:56:36Z</time>
      </trkpt>
      <trkpt lat="44.7294" lon="5.67872">
        <ele>1148.9</ele>
        <time>2017-12-15T21:56:42Z</time>
      </trkpt>
      <trkpt lat="44.72948" lon="5.67879">
        <ele>1148.1</ele>
        <time>2017-12-15T21:57:00Z</time>
      </trkpt>
      <trkpt lat="44.72959" lon="5.67895">
        <ele>1146.2</ele>
        <time>2017-12-15T21:57:15Z</time>
      </trkpt>
      <trkpt lat="44.72975" lon="5.67926">
        <ele>1142.1</ele>
        <time>2017-12-15T21:57:22Z</time>
      </trkpt>
      <trkpt lat="44.72988" lon="5.67939">
        <ele>1140.7</ele>
        <time>2017-12-15T21:57:34Z</time>
      </trkpt>
      <trkpt lat="44.72994" lon="5.67943">
        <ele>1140.2</ele>
        <time>2017-12-15T21:57:44Z</time>
      </trkpt>
      <trkpt lat="44.73007" lon="5.67948">
        <ele>1139.9</ele>
        <time>2017-12-15T21:57:51Z</time>
      </trkpt>
      <trkpt lat="44.73039" lon="5.67958">
        <ele>1139.9</ele>
        <time>2017-12-15T21:58:00Z</time>
      </trkpt>
      <trkpt lat="44.7305" lon="5.67964">
        <ele>1139.5</ele>
        <time>2017-12-15T21:58:12Z</time>
      </trkpt>
      <trkpt lat="44.7307" lon="5.67981">
        <ele>1138.5</ele>
        <time>2017-12-15T21:58:19Z</time>
      </trkpt>
      <trkpt lat="44.7314" lon="5.68047">
        <ele>1131.1</ele>
        <time>2017-12-15T21:58:36Z</time>
      </trkpt>
      <trkpt lat="44.7315" lon="5.68051">
        <ele>1128.8</ele>
        <time>2017-12-15T21:58:42Z</time>
      </trkpt>
      <trkpt lat="44.73158" lon="5.6805">
        <ele>1127.6</ele>
        <time>2017-12-15T21:58:47Z</time>
      </trkpt>
      <trkpt lat="44.73171" lon="5.6804">
        <ele>1126.9</ele>
        <time>2017-12-15T21:58:49Z</time>
      </trkpt>
      <trkpt lat="44.73195" lon="5.68004">
        <ele>1125.9</ele>
        <time>2017-12-15T21:59:08Z</time>
      </trkpt>
      <trkpt lat="44.7322" lon="5.67974">
        <ele>1122.7</ele>
        <time>2017-12-15T21:59:27Z</time>
      </trkpt>
      <trkpt lat="44.73229" lon="5.67967">
        <ele>1122.9</ele>
        <time>2017-12-15T21:59:39Z</time>
      </trkpt>
      <trkpt lat="44.73235" lon="5.67966">
        <ele>1122.8</ele>
        <time>2017-12-15T21:59:55Z</time>
      </trkpt>
      <trkpt lat="44.73248" lon="5.67969">
        <ele>1121.1</ele>
        <time>2017-12-15T22:00:14Z</time>
      </trkpt>
      <trkpt lat="44.73255" lon="5.67978">
        <ele>1121.3</ele>
        <time>2017-12-15T22:00:22Z</time>
      </trkpt>
      <trkpt lat="44.73269" lon="5.68031">
        <ele>1115.9</ele>
        <time>2017-12-15T22:00:26Z</time>
      </trkpt>
      <trkpt lat="44.73285" lon="5.68053">
        <ele>1113.7</ele>
        <time>2017-12-15T22:00:35Z</time>
      </trkpt>
      <trkpt lat="44.73294" lon="5.68061">
        <ele>1112.6</ele>
        <time>2017-12-15T22:00:52Z</time>
      </trkpt>
      <trkpt lat="44.73306" lon="5.68066">
        <ele>1113.2</ele>
        <time>2017-12-15T22:01:10Z</time>
      </trkpt>
      <trkpt lat="44.7333" lon="5.68075">
        <ele>1113.3</ele>
        <time>2017-12-15T22:01:25Z</time>
      </trkpt>
      <trkpt lat="44.73352" lon="5.68089">
        <ele>1109.7</ele>
        <time>2017-12-15T22:01:42Z</time>
      </trkpt>
      <trkpt lat="44.73362" lon="5.68091">
        <ele>1109.9</ele>
        <time>2017-12-15T22:01:48Z</time>
      </trkpt>
      <trkpt lat="44.73373" lon="5.68091">
        <ele>1110.9</ele>
        <time>2017-12-15T22:01:56Z</time>
      </trkpt>
      <trkpt lat="44.73395" lon="5.68091">
        <ele>1112.9</ele>
        <time>2017-12-15T22:02:00Z</time>
      </trkpt>
      <trkpt lat="44.73418" lon="5.68097">
        <ele>1111.3</ele>
        <time>2017-12-15T22:02:20Z</time>
      </trkpt>
      <trkpt lat="44.73438" lon="5.68108">
        <ele>1107</ele>
        <time>2017-12-15T22:02:24Z</time>
      </trkpt>
      <trkpt lat="44.73462" lon="5.68118">
        <ele>1103.5</ele>
        <time>2017-12-15T22:02:38Z</time>
      </trkpt>
      <trkpt lat="44.73483" lon="5.68124">
        <ele>1100.7</ele>
        <time>2017-12-15T22:02:56Z</time>
      </trkpt>
      <trkpt lat="44.73507" lon="5.68124">
        <ele>1099.4</ele>
        <time>2017-12-15T22:03:12Z</time>
      </trkpt>
      <trkpt lat="44.73534" lon="5.68117">
        <ele>1099.8</ele>
        <time>2017-12-15T22:03:21Z</time>
      </trkpt>
      <trkpt lat="44.73573" lon="5.68098">
        <ele>1098.4</ele>
        <time>2017-12-15T22:03:30Z</time>
      </trkpt>
      <trkpt lat="44.73599" lon="5.68081">
        <ele>1094.7</ele>
        <time>2017-12-15T22:03:34Z</time>
      </trkpt>
      <trkpt lat="44.73634" lon="5.68049">
        <ele>1091.1</ele>
        <time>2017-12-15T22:03:38Z</time>
      </trkpt>
      <trkpt lat="44.7365" lon="5.68035">
        <ele>1092</ele>
        <time>2017-12-15T22:03:56Z</time>
      </trkpt>
      <trkpt lat="44.73664" lon="5.68026">
        <ele>1092</ele>
        <time>2017-12-15T22:04:14Z</time>
      </trkpt>
      <trkpt lat="44.73681" lon="5.68022">
        <ele>1090.7</ele>
        <time>2017-12-15T22:04:21Z</time>
      </trkpt>
      <trkpt lat="44.73703" lon="5.68021">
        <ele>1087.3</ele>
        <time>2017-12-15T22:04:34Z</time>
      </trkpt>
      <trkpt lat="44.73733" lon="5.68021">
        <ele>1081.6</ele>
        <time>2017-12-15T22:04:53Z</time>
      </trkpt>
      <trkpt lat="44.73751" lon="5.68021">
        <ele>1077.1</ele>
        <time>2017-12-15T22:05:05Z</time>
      </trkpt>
      <trkpt lat="44.73763" lon="5.68018">
        <ele>1073.7</ele>
        <time>2017-12-15T22:05:09Z</time>
      </trkpt>
      <trkpt lat="44.73774" lon="5.68012">
        <ele>1071.5</ele>
        <time>2017-12-15T22:05:19Z</time>
      </trkpt>
      <trkpt lat="44.73783" lon="5.67997">
        <ele>1072.9</ele>
        <time>2017-12-15T22:05:24Z</time>
      </trkpt>
      <trkpt lat="44.73793" lon="5.67972">
        <ele>1075.4</ele>
        <time>2017-12-15T22:05:26Z</time>
      </trkpt>
      <trkpt lat="44.73795" lon="5.67956">
        <ele>1075.9</ele>
        <time>2017-12-15T22:05:46Z</time>
      </trkpt>
      <trkpt lat="44.73794" lon="5.67939">
        <ele>1077.4</ele>
        <time>2017-12-15T22:05:49Z</time>
      </trkpt>
      <trkpt lat="44.73792" lon="5.6791">
        <ele>1078.6</ele>
        <time>2017-12-15T22:05:54Z</time>
      </trkpt>
      <trkpt lat="44.738" lon="5.67885">
        <ele>1076.3</ele>
        <time>2017-12-15T22:06:12Z</time>
      </trkpt>
      <trkpt lat="44.73809" lon="5.67872">
        <ele>1074.8</ele>
        <time>2017-12-15T22:06:14Z</time>
      </trkpt>
      <trkpt lat="44.73824" lon="5.67858">
        <ele>1072</ele>
        <time>2017-12-15T22:06:21Z</time>
      </trkpt>
      <trkpt lat="44.73848" lon="5.67835">
        <ele>1066.9</ele>
        <time>2017-12-15T22:06:30Z</time>
      </trkpt>
      <trkpt lat="44.73857" lon="5.6782">
        <ele>1065.5</ele>
        <time>2017-12-15T22:06:35Z</time>
      </trkpt>
      <trkpt lat="44.73865" lon="5.67797">
        <ele>1066.1</ele>
        <time>2017-12-15T22:06:43Z</time>
      </trkpt>
      <trkpt lat="44.73874" lon="5.67774">
        <ele>1067.2</ele>
        <time>2017-12-15T22:06:48Z</time>
      </trkpt>
      <trkpt lat="44.7388" lon="5.67768">
        <ele>1067.1</ele>
        <time>2017-12-15T22:06:54Z</time>
      </trkpt>
      <trkpt lat="44.73888" lon="5.67766">
        <ele>1066.3</ele>
        <time>2017-12-15T22:07:12Z</time>
      </trkpt>
      <trkpt lat="44.73898" lon="5.67768">
        <ele>1068.2</ele>
        <time>2017-12-15T22:07:19Z</time>
      </trkpt>
      <trkpt lat="44.73908" lon="5.67775">
        <ele>1069.4</ele>
        <time>2017-12-15T22:07:33Z</time>
      </trkpt>
      <trkpt lat="44.73915" lon="5.67787">
        <ele>1068.3</ele>
        <time>2017-12-15T22:07:36Z</time>
      </trkpt>
      <trkpt lat="44.73919" lon="5.67796">
        <ele>1067.6</ele>
        <time>2017-12-15T22:07:44Z</time>
      </trkpt>
      <trkpt lat="44.73946" lon="5.67886">
        <ele>1062.4</ele>
        <time>2017-12-15T22:07:56Z</time>
      </trkpt>
      <trkpt lat="44.73956" lon="5.67923">
        <ele>1060.3</ele>
        <time>2017-12-15T22:08:13Z</time>
      </trkpt>
      <trkpt lat="44.73963" lon="5.67965">
        <ele>1054.3</ele>
        <time>2017-12-15T22:08:23Z</time>
      </trkpt>
      <trkpt lat="44.73968" lon="5.67987">
        <ele>1049.6</ele>
        <time>2017-12-15T22:08:26Z</time>
      </trkpt>
      <trkpt lat="44.73976" lon="5.68001">
        <ele>1048</ele>
        <time>2017-12-15T22:08:34Z</time>
      </trkpt>
      <trkpt lat="44.73989" lon="5.68015">
        <ele>1046.1</ele>
        <time>2017-12-15T22:08:40Z</time>
      </trkpt>
      <trkpt lat="44.74003" lon="5.68026">
        <ele>1045.7</ele>
        <time>2017-12-15T22:08:44Z</time>
      </trkpt>
      <trkpt lat="44.74062" lon="5.68055">
        <ele>1043.2</ele>
        <time>2017-12-15T22:08:56Z</time>
      </trkpt>
      <trkpt lat="44.74123" lon="5.68083">
        <ele>1037.6</ele>
        <time>2017-12-15T22:09:08Z</time>
      </trkpt>
      <trkpt lat="44.74161" lon="5.68094">
        <ele>1034.3</ele>
        <time>2017-12-15T22:09:17Z</time>
      </trkpt>
      <trkpt lat="44.74292" lon="5.68113">
        <ele>1028.8</ele>
        <time>2017-12-15T22:09:25Z</time>
      </trkpt>
      <trkpt lat="44.7433" lon="5.68123">
        <ele>1027.4</ele>
        <time>2017-12-15T22:09:32Z</time>
      </trkpt>
      <trkpt lat="44.74359" lon="5.68138">
        <ele>1025.1</ele>
        <time>2017-12-15T22:09:50Z</time>
      </trkpt>
      <trkpt lat="44.74367" lon="5.68142">
        <ele>1023.9</ele>
        <time>2017-12-15T22:10:01Z</time>
      </trkpt>
      <trkpt lat="44.74384" lon="5.68145">
        <ele>1022.4</ele>
        <time>2017-12-15T22:10:03Z</time>
      </trkpt>
      <trkpt lat="44.74399" lon="5.68145">
        <ele>1020.3</ele>
        <time>2017-12-15T22:10:16Z</time>
      </trkpt>
      <trkpt lat="44.74411" lon="5.68141">
        <ele>1019.4</ele>
        <time>2017-12-15T22:10:21Z</time>
      </trkpt>
      <trkpt lat="44.74421" lon="5.68136">
        <ele>1018.5</ele>
        <time>2017-12-15T22:10:24Z</time>
      </trkpt>
      <trkpt lat="44.74433" lon="5.68127">
        <ele>1017.3</ele>
        <time>2017-12-15T22:10:28Z</time>
      </trkpt>
      <trkpt lat="44.7446" lon="5.68097">
        <ele>1017</ele>
        <time>2017-12-15T22:10:38Z</time>
      </trkpt>
      <trkpt lat="44.74481" lon="5.68069">
        <ele>1018.5</ele>
        <time>2017-12-15T22:10:57Z</time>
      </trkpt>
      <trkpt lat="44.74492" lon="5.68059">
        <ele>1017.8</ele>
        <time>2017-12-15T22:11:15Z</time>
      </trkpt>
      <trkpt lat="44.74507" lon="5.68047">
        <ele>1016.2</ele>
        <time>2017-12-15T22:11:35Z</time>
      </trkpt>
      <trkpt lat="44.74544" lon="5.68019">
        <ele>1008.7</ele>
        <time>2017-12-15T22:11:50Z</time>
      </trkpt>
      <trkpt lat="44.74569" lon="5.67985">
        <ele>1006.8</ele>
        <time>2017-12-15T22:12:04Z</time>
      </trkpt>
      <trkpt lat="44.7462" lon="5.67905">
        <ele>1007.5</ele>
        <time>2017-12-15T22:12:09Z</time>
      </trkpt>
      <trkpt lat="44.74632" lon="5.67887">
        <ele>1009.1</ele>
        <time>2017-12-15T22:12:19Z</time>
      </trkpt>
      <trkpt lat="44.74644" lon="5.67879">
        <ele>1008.9</ele>
        <time>2017-12-15T22:12:26Z</time>
      </trkpt>
      <trkpt lat="44.74655" lon="5.67875">
        <ele>1008.8</ele>
        <time>2017-12-15T22:12:45Z</time>
      </trkpt>
      <trkpt lat="44.74669" lon="5.67873">
        <ele>1007.3</ele>
        <time>2017-12-15T22:12:59Z</time>
      </trkpt>
      <trkpt lat="44.74685" lon="5.67871">
        <ele>1005.6</ele>
        <time>2017-12-15T22:13:16Z</time>
      </trkpt>
      <trkpt lat="44.74709" lon="5.67866">
        <ele>1003.4</ele>
        <time>2017-12-15T22:13:34Z</time>
      </trkpt>
      <trkpt lat="44.74729" lon="5.67857">
        <ele>1002.9</ele>
        <time>2017-12-15T22:13:42Z</time>
      </trkpt>
      <trkpt lat="44.74747" lon="5.67846">
        <ele>1002</ele>
        <time>2017-12-15T22:14:02Z</time>
      </trkpt>
      <trkpt lat="44.74763" lon="5.67831">
        <ele>1001.5</ele>
        <time>2017-12-15T22:14:12Z</time>
      </trkpt>
      <trkpt lat="44.74778" lon="5.67814">
        <ele>998.8</ele>
        <time>2017-12-15T22:14:19Z</time>
      </trkpt>
      <trkpt lat="44.7481" lon="5.67771">
        <ele>996.1</ele>
        <time>2017-12-15T22:14:33Z</time>
      </trkpt>
      <trkpt lat="44.74852" lon="5.67714">
        <ele>991</ele>
        <time>2017-12-15T22:14:42Z</time>
      </trkpt>
      <trkpt lat="44.74885" lon="5.67658">
        <ele>988.3</ele>
        <time>2017-12-15T22:14:52Z</time>
      </trkpt>
      <trkpt lat="44.74918" lon="5.67593">
        <ele>984.3</ele>
        <time>2017-12-15T22:14:56Z</time>
      </trkpt>
      <trkpt lat="44.74942" lon="5.67541">
        <ele>982.4</ele>
        <time>2017-12-15T22:15:04Z</time>
      </trkpt>
      <trkpt lat="44.74963" lon="5.67499">
        <ele>981.2</ele>
        <time>2017-12-15T22:15:07Z</time>
      </trkpt>
      <trkpt lat="44.7499" lon="5.67466">
        <ele>978.7</ele>
        <time>2017-12-15T22:15:10Z</time>
      </trkpt>
      <trkpt lat="44.75032" lon="5.67421">
        <ele>972.1</ele>
        <time>2017-12-15T22:15:26Z</time>
      </trkpt>
      <trkpt lat="44.75058" lon="5.67388">
        <ele>968.4</ele>
        <time>2017-12-15T22:15:41Z</time>
      </trkpt>
      <trkpt lat="44.75086" lon="5.67342">
        <ele>966.3</ele>
        <time>2017-12-15T22:15:54Z</time>
      </trkpt>
      <trkpt lat="44.7511" lon="5.67304">
        <ele>963.4</ele>
        <time>2017-12-15T22:16:05Z</time>
      </trkpt>
      <trkpt lat="44.75135" lon="5.67273">
        <ele>961.2</ele>
        <time>2017-12-15T22:16:20Z</time>
      </trkpt>
      <trkpt lat="44.75293" lon="5.67078">
        <ele>948.3</ele>
        <time>2017-12-15T22:16:32Z</time>
      </trkpt>
      <trkpt lat="44.7534" lon="5.67017">
        <ele>943.3</ele>
        <time>2017-12-15T22:16:48Z</time>
      </trkpt>
      <trkpt lat="44.7535" lon="5.67001">
        <ele>942.3</ele>
        <time>2017-12-15T22:17:00Z</time>
      </trkpt>
      <trkpt lat="44.75358" lon="5.66982">
        <ele>940.7</ele>
        <time>2017-12-15T22:17:15Z</time>
      </trkpt>
      <trkpt lat="44.75369" lon="5.66946">
        <ele>937.7</ele>
        <time>2017-12-15T22:17:30Z</time>
      </trkpt>
      <trkpt lat="44.75373" lon="5.66918">
        <ele>936.7</ele>
        <time>2017-12-15T22:17:39Z</time>
      </trkpt>
      <trkpt lat="44.75374" lon="5.66897">
        <ele>936</ele>
        <time>2017-12-15T22:17:48Z</time>
      </trkpt>
      <trkpt lat="44.75381" lon="5.66907">
        <ele>933.6</ele>
        <time>2017-12-15T22:17:58Z</time>
      </trkpt>
      <trkpt lat="44.75389" lon="5.66935">
        <ele>931.6</ele>
        <time>2017-12-15T22:18:05Z</time>
      </trkpt>
      <trkpt lat="44.75389" lon="5.66999">
        <ele>932.9</ele>
        <time>2017-12-15T22:18:12Z</time>
      </trkpt>
      <trkpt lat="44.75382" lon="5.67087">
        <ele>929.2</ele>
        <time>2017-12-15T22:18:32Z</time>
      </trkpt>
      <trkpt lat="44.75365" lon="5.6716">
        <ele>927</ele>
        <time>2017-12-15T22:18:38Z</time>
      </trkpt>
      <trkpt lat="44.75341" lon="5.67242">
        <ele>922.7</ele>
        <time>2017-12-15T22:18:42Z</time>
      </trkpt>
      <trkpt lat="44.75313" lon="5.67312">
        <ele>919.5</ele>
        <time>2017-12-15T22:19:01Z</time>
      </trkpt>
      <trkpt lat="44.75295" lon="5.67363">
        <ele>916.7</ele>
        <time>2017-12-15T22:19:06Z</time>
      </trkpt>
      <trkpt lat="44.75248" lon="5.67497">
        <ele>908.7</ele>
        <time>2017-12-15T22:19:17Z</time>
      </trkpt>
      <trkpt lat="44.75205" lon="5.6761">
        <ele>901.6</ele>
        <time>2017-12-15T22:19:34Z</time>
      </trkpt>
      <trkpt lat="44.75198" lon="5.67624">
        <ele>900.2</ele>
        <time>2017-12-15T22:19:49Z</time>
      </trkpt>
      <trkpt lat="44.75185" lon="5.67641">
        <ele>898.9</ele>
        <time>2017-12-15T22:20:08Z</time>
      </trkpt>
      <trkpt lat="44.75167" lon="5.67658">
        <ele>897.8</ele>
        <time>2017-12-15T22:20:11Z</time>
      </trkpt>
      <trkpt lat="44.75148" lon="5.67671">
        <ele>897.8</ele>
        <time>2017-12-15T22:20:14Z</time>
      </trkpt>
      <trkpt lat="44.75131" lon="5.67684">
        <ele>897.7</ele>
        <time>2017-12-15T22:20:27Z</time>
      </trkpt>
      <trkpt lat="44.75129" lon="5.67694">
        <ele>895.9</ele>
        <time>2017-12-15T22:20:34Z</time>
      </trkpt>
      <trkpt lat="44.75134" lon="5.67703">
        <ele>893</ele>
        <time>2017-12-15T22:20:48Z</time>
      </trkpt>
      <trkpt lat="44.75152" lon="5.67703">
        <ele>890.3</ele>
        <time>2017-12-15T22:20:50Z</time>
      </trkpt>
      <trkpt lat="44.75181" lon="5.67691">
        <ele>888.7</ele>
        <time>2017-12-15T22:21:03Z</time>
      </trkpt>
      <trkpt lat="44.75214" lon="5.67681">
        <ele>886.4</ele>
        <time>2017-12-15T22:21:11Z</time>
      </trkpt>
      <trkpt lat="44.75265" lon="5.67664">
        <ele>883.8</ele>
        <time>2017-12-15T22:21:27Z</time>
      </trkpt>
      <trkpt lat="44.75302" lon="5.6765">
        <ele>879.6</ele>
        <time>2017-12-15T22:21:36Z</time>
      </trkpt>
      <trkpt lat="44.75332" lon="5.67634">
        <ele>877.9</ele>
        <time>2017-12-15T22:21:56Z</time>
      </trkpt>
      <trkpt lat="44.75419" lon="5.67581">
        <ele>870.7</ele>
        <time>2017-12-15T22:22:14Z</time>
      </trkpt>
      <trkpt lat="44.75428" lon="5.67573">
        <ele>869.3</ele>
        <time>2017-12-15T22:22:26Z</time>
      </trkpt>
      <trkpt lat="44.75434" lon="5.67564">
        <ele>868.6</ele>
        <time>2017-12-15T22:22:38Z</time>
      </trkpt>
      <trkpt lat="44.75454" lon="5.67519">
        <ele>865.5</ele>
        <time>2017-12-15T22:22:51Z</time>
      </trkpt>
      <trkpt lat="44.75467" lon="5.67491">
        <ele>865.8</ele>
        <time>2017-12-15T22:22:53Z</time>
      </trkpt>
      <trkpt lat="44.75478" lon="5.67478">
        <ele>866</ele>
        <time>2017-12-15T22:23:08Z</time>
      </trkpt>
      <trkpt lat="44.7549" lon="5.67468">
        <ele>866.5</ele>
        <time>2017-12-15T22:23:17Z</time>
      </trkpt>
      <trkpt lat="44.75498" lon="5.67466">
        <ele>866</ele>
        <time>2017-12-15T22:23:26Z</time>
      </trkpt>
      <trkpt lat="44.7551" lon="5.67464">
        <ele>866.7</ele>
        <time>2017-12-15T22:23:46Z</time>
      </trkpt>
      <trkpt lat="44.75525" lon="5.67468">
        <ele>866.1</ele>
        <time>2017-12-15T22:23:53Z</time>
      </trkpt>
      <trkpt lat="44.75538" lon="5.67477">
        <ele>864.6</ele>
        <time>2017-12-15T22:24:03Z</time>
      </trkpt>
      <trkpt lat="44.75555" lon="5.67498">
        <ele>861.4</ele>
        <time>2017-12-15T22:24:06Z</time>
      </trkpt>
      <trkpt lat="44.75607" lon="5.67564">
        <ele>853.4</ele>
        <time>2017-12-15T22:24:24Z</time>
      </trkpt>
      <trkpt lat="44.75627" lon="5.67587">
        <ele>851.1</ele>
        <time>2017-12-15T22:24:41Z</time>
      </trkpt>
      <trkpt lat="44.7564" lon="5.67597">
        <ele>850.5</ele>
        <time>2017-12-15T22:24:51Z</time>
      </trkpt>
      <trkpt lat="44.75656" lon="5.67604">
        <ele>849.8</ele>
        <time>2017-12-15T22:25:03Z</time>
      </trkpt>
      <trkpt lat="44.757" lon="5.67614">
        <ele>848.6</ele>
        <time>2017-12-15T22:25:08Z</time>
      </trkpt>
      <trkpt lat="44.75731" lon="5.67619">
        <ele>846.8</ele>
        <time>2017-12-15T22:25:14Z</time>
      </trkpt>
      <trkpt lat="44.7575" lon="5.67617">
        <ele>845.6</ele>
        <time>2017-12-15T22:25:22Z</time>
      </trkpt>
      <trkpt lat="44.75772" lon="5.67607">
        <ele>844.6</ele>
        <time>2017-12-15T22:25:27Z</time>
      </trkpt>
      <trkpt lat="44.75784" lon="5.67605">
        <ele>844</ele>
        <time>2017-12-15T22:25:38Z</time>
      </trkpt>
      <trkpt lat="44.75796" lon="5.67613">
        <ele>843.2</ele>
        <time>2017-12-15T22:25:50Z</time>
      </trkpt>
      <trkpt lat="44.75799" lon="5.6762">
        <ele>842.6</ele>
        <time>2017-12-15T22:25:57Z</time>
      </trkpt>
      <trkpt lat="44.75799" lon="5.67653">
        <ele>840.7</ele>
        <time>2017-12-15T22:26:04Z</time>
      </trkpt>
      <trkpt lat="44.75788" lon="5.67707">
        <ele>837.7</ele>
        <time>2017-12-15T22:26:14Z</time>
      </trkpt>
      <trkpt lat="44.75786" lon="5.67736">
        <ele>836.2</ele>
        <time>2017-12-15T22:26:16Z</time>
      </trkpt>
      <trkpt lat="44.75785" lon="5.67792">
        <ele>833.6</ele>
        <time>2017-12-15T22:26:29Z</time>
      </trkpt>
      <trkpt lat="44.75784" lon="5.67821">
        <ele>831.8</ele>
        <time>2017-12-15T22:26:33Z</time>
      </trkpt>
      <trkpt lat="44.75779" lon="5.67845">
        <ele>830.6</ele>
        <time>2017-12-15T22:26:37Z</time>
      </trkpt>
      <trkpt lat="44.75725" lon="5.67962">
        <ele>827.3</ele>
        <time>2017-12-15T22:26:39Z</time>
      </trkpt>
      <trkpt lat="44.75709" lon="5.67996">
        <ele>826.1</ele>
        <time>2017-12-15T22:26:50Z</time>
      </trkpt>
      <trkpt lat="44.75693" lon="5.68021">
        <ele>825.2</ele>
        <time>2017-12-15T22:26:58Z</time>
      </trkpt>
      <trkpt lat="44.75686" lon="5.68031">
        <ele>824</ele>
        <time>2017-12-15T22:27:15Z</time>
      </trkpt>
      <trkpt lat="44.75666" lon="5.68039">
        <ele>821.1</ele>
        <time>2017-12-15T22:27:28Z</time>
      </trkpt>
      <trkpt lat="44.75653" lon="5.68041">
        <ele>819.2</ele>
        <time>2017-12-15T22:27:42Z</time>
      </trkpt>
      <trkpt lat="44.75637" lon="5.68038">
        <ele>818.2</ele>
        <time>2017-12-15T22:27:53Z</time>
      </trkpt>
      <trkpt lat="44.75598" lon="5.68026">
        <ele>815.6</ele>
        <time>2017-12-15T22:28:06Z</time>
      </trkpt>
      <trkpt lat="44.75581" lon="5.68022">
        <ele>814.8</ele>
        <time>2017-12-15T22:28:19Z</time>
      </trkpt>
      <trkpt lat="44.7556" lon="5.68021">
        <ele>814.2</ele>
        <time>2017-12-15T22:28:26Z</time>
      </trkpt>
      <trkpt lat="44.75525" lon="5.68031">
        <ele>809.9</ele>
        <time>2017-12-15T22:28:36Z</time>
      </trkpt>
      <trkpt lat="44.75506" lon="5.68032">
        <ele>808.3</ele>
        <time>2017-12-15T22:28:48Z</time>
      </trkpt>
      <trkpt lat="44.75479" lon="5.68017">
        <ele>809.5</ele>
        <time>2017-12-15T22:28:53Z</time>
      </trkpt>
      <trkpt lat="44.75443" lon="5.67993">
        <ele>809.2</ele>
        <time>2017-12-15T22:29:02Z</time>
      </trkpt>
      <trkpt lat="44.75427" lon="5.67991">
        <ele>808.7</ele>
        <time>2017-12-15T22:29:11Z</time>
      </trkpt>
      <trkpt lat="44.75417" lon="5.67994">
        <ele>807</ele>
        <time>2017-12-15T22:29:26Z</time>
      </trkpt>
      <trkpt lat="44.75406" lon="5.68007">
        <ele>804.8</ele>
        <time>2017-12-15T22:29:33Z</time>
      </trkpt>
      <trkpt lat="44.75399" lon="5.68023">
        <ele>802.2</ele>
        <time>2017-12-15T22:29:39Z</time>
      </trkpt>
      <trkpt lat="44.75399" lon="5.68045">
        <ele>801.3</ele>
        <time>2017-12-15T22:29:47Z</time>
      </trkpt>
      <trkpt lat="44.75402" lon="5.68057">
        <ele>801.3</ele>
        <time>2017-12-15T22:30:00Z</time>
      </trkpt>
      <trkpt lat="44.75416" lon="5.6808">
        <ele>803.6</ele>
        <time>2017-12-15T22:30:03Z</time>
      </trkpt>
      <trkpt lat="44.75462" lon="5.68129">
        <ele>805.2</ele>
        <time>2017-12-15T22:30:12Z</time>
      </trkpt>
      <trkpt lat="44.75493" lon="5.68157">
        <ele>806.5</ele>
        <time>2017-12-15T22:30:32Z</time>
      </trkpt>
      <trkpt lat="44.75509" lon="5.68168">
        <ele>806.6</ele>
        <time>2017-12-15T22:30:50Z</time>
      </trkpt>
      <trkpt lat="44.75549" lon="5.68189">
        <ele>805</ele>
        <time>2017-12-15T22:30:53Z</time>
      </trkpt>
      <trkpt lat="44.75591" lon="5.68215">
        <ele>805.4</ele>
        <time>2017-12-15T22:30:58Z</time>
      </trkpt>
      <trkpt lat="44.75638" lon="5.6824">
        <ele>803.6</ele>
        <time>2017-12-15T22:31:15Z</time>
      </trkpt>
      <trkpt lat="44.75663" lon="5.68259">
        <ele>801.9</ele>
        <time>2017-12-15T22:31:34Z</time>
      </trkpt>
      <trkpt lat="44.75677" lon="5.68276">
        <ele>801.8</ele>
        <time>2017-12-15T22:31:49Z</time>
      </trkpt>
      <trkpt lat="44.75697" lon="5.68326">
        <ele>807.2</ele>
        <time>2017-12-15T22:32:04Z</time>
      </trkpt>
      <trkpt lat="44.75716" lon="5.68356">
        <ele>807.2</ele>
        <time>2017-12-15T22:32:21Z</time>
      </trkpt>
      <trkpt lat="44.75727" lon="5.6837">
        <ele>807.5</ele>
        <time>2017-12-15T22:32:34Z</time>
      </trkpt>
      <trkpt lat="44.75738" lon="5.68376">
        <ele>806.3</ele>
        <time>2017-12-15T22:32:51Z</time>
      </trkpt>
      <trkpt lat="44.75753" lon="5.68386">
        <ele>805.3</ele>
        <time>2017-12-15T22:33:02Z</time>
      </trkpt>
      <trkpt lat="44.75783" lon="5.68397">
        <ele>801.5</ele>
        <time>2017-12-15T22:33:10Z</time>
      </trkpt>
      <trkpt lat="44.7581" lon="5.68411">
        <ele>798</ele>
        <time>2017-12-15T22:33:21Z</time>
      </trkpt>
      <trkpt lat="44.75826" lon="5.68425">
        <ele>796.9</ele>
        <time>2017-12-15T22:33:41Z</time>
      </trkpt>
      <trkpt lat="44.75846" lon="5.68451">
        <ele>796.7</ele>
        <time>2017-12-15T22:33:53Z</time>
      </trkpt>
      <trkpt lat="44.7586" lon="5.68472">
        <ele>797.3</ele>
        <time>2017-12-15T22:34:08Z</time>
      </trkpt>
      <trkpt lat="44.7587" lon="5.68496">
        <ele>799.2</ele>
        <time>2017-12-15T22:34:18Z</time>
      </trkpt>
      <trkpt lat="44.75898" lon="5.68563">
        <ele>801.9</ele>
        <time>2017-12-15T22:34:35Z</time>
      </trkpt>
      <trkpt lat="44.75909" lon="5.68591">
        <ele>804.2</ele>
        <time>2017-12-15T22:34:50Z</time>
      </trkpt>
      <trkpt lat="44.75915" lon="5.68617">
        <ele>808</ele>
        <time>2017-12-15T22:34:55Z</time>
      </trkpt>
      <trkpt lat="44.75918" lon="5.68663">
        <ele>809.8</ele>
        <time>2017-12-15T22:35:13Z</time>
      </trkpt>
      <trkpt lat="44.75916" lon="5.6872">
        <ele>809.2</ele>
        <time>2017-12-15T22:35:33Z</time>
      </trkpt>
      <trkpt lat="44.75916" lon="5.68736">
        <ele>809.2</ele>
        <time>2017-12-15T22:35:45Z</time>
      </trkpt>
      <trkpt lat="44.7592" lon="5.68781">
        <ele>809.4</ele>
        <time>2017-12-15T22:35:47Z</time>
      </trkpt>
      <trkpt lat="44.75935" lon="5.68836">
        <ele>809.8</ele>
        <time>2017-12-15T22:36:02Z</time>
      </trkpt>
      <trkpt lat="44.75945" lon="5.6888">
        <ele>809.9</ele>
        <time>2017-12-15T22:36:18Z</time>
      </trkpt>
      <trkpt lat="44.75949" lon="5.68913">
        <ele>809.3</ele>
        <time>2017-12-15T22:36:26Z</time>
      </trkpt>
      <trkpt lat="44.75964" lon="5.68974">
        <ele>808.2</ele>
        <time>2017-12-15T22:36:46Z</time>
      </trkpt>
      <trkpt lat="44.75999" lon="5.69078">
        <ele>808.8</ele>
        <time>2017-12-15T22:36:59Z</time>
      </trkpt>
      <trkpt lat="44.76019" lon="5.69123">
        <ele>808.5</ele>
        <time>2017-12-15T22:37:19Z</time>
      </trkpt>
      <trkpt lat="44.76042" lon="5.69151">
        <ele>808.6</ele>
        <time>2017-12-15T22:37:30Z</time>
      </trkpt>
      <trkpt lat="44.76063" lon="5.69174">
        <ele>809.2</ele>
        <time>2017-12-15T22:37:36Z</time>
      </trkpt>
      <trkpt lat="44.76092" lon="5.6922">
        <ele>810.2</ele>
        <time>2017-12-15T22:37:39Z</time>
      </trkpt>
      <trkpt lat="44.76112" lon="5.69276">
        <ele>809.7</ele>
        <time>2017-12-15T22:37:45Z</time>
      </trkpt>
      <trkpt lat="44.7615" lon="5.69392">
        <ele>809.2</ele>
        <time>2017-12-15T22:38:05Z</time>
      </trkpt>
      <trkpt lat="44.76161" lon="5.69415">
        <ele>808.9</ele>
        <time>2017-12-15T22:38:25Z</time>
      </trkpt>
      <trkpt lat="44.76175" lon="5.69436">
        <ele>808.9</ele>
        <time>2017-12-15T22:38:35Z</time>
      </trkpt>
      <trkpt lat="44.7623" lon="5.69496">
        <ele>808.7</ele>
        <time>2017-12-15T22:38:47Z</time>
      </trkpt>
      <trkpt lat="44.76268" lon="5.69535">
        <ele>808.6</ele>
        <time>2017-12-15T22:38:57Z</time>
      </trkpt>
      <trkpt lat="44.76304" lon="5.6957">
        <ele>807.2</ele>
        <time>2017-12-15T22:39:04Z</time>
      </trkpt>
      <trkpt lat="44.76327" lon="5.69589">
        <ele>807</ele>
        <time>2017-12-15T22:39:12Z</time>
      </trkpt>
      <trkpt lat="44.76351" lon="5.6961">
        <ele>806</ele>
        <time>2017-12-15T22:39:26Z</time>
      </trkpt>
      <trkpt lat="44.76367" lon="5.6963">
        <ele>806.3</ele>
        <time>2017-12-15T22:39:40Z</time>
      </trkpt>
      <trkpt lat="44.76403" lon="5.69696">
        <ele>805.6</ele>
        <time>2017-12-15T22:39:58Z</time>
      </trkpt>
      <trkpt lat="44.76423" lon="5.69725">
        <ele>804.5</ele>
        <time>2017-12-15T22:40:14Z</time>
      </trkpt>
      <trkpt lat="44.7644" lon="5.69744">
        <ele>803.4</ele>
        <time>2017-12-15T22:40:17Z</time>
      </trkpt>
      <trkpt lat="44.7646" lon="5.69762">
        <ele>801.4</ele>
        <time>2017-12-15T22:40:26Z</time>
      </trkpt>
      <trkpt lat="44.76482" lon="5.69776">
        <ele>800.1</ele>
        <time>2017-12-15T22:40:32Z</time>
      </trkpt>
      <trkpt lat="44.7651" lon="5.69785">
        <ele>799.4</ele>
        <time>2017-12-15T22:40:42Z</time>
      </trkpt>
      <trkpt lat="44.76538" lon="5.6979">
        <ele>799.2</ele>
        <time>2017-12-15T22:40:45Z</time>
      </trkpt>
      <trkpt lat="44.76564" lon="5.69787">
        <ele>798.7</ele>
        <time>2017-12-15T22:40:48Z</time>
      </trkpt>
      <trkpt lat="44.76595" lon="5.69781">
        <ele>797.6</ele>
        <time>2017-12-15T22:40:51Z</time>
      </trkpt>
      <trkpt lat="44.76624" lon="5.69777">
        <ele>796.9</ele>
        <time>2017-12-15T22:40:54Z</time>
      </trkpt>
      <trkpt lat="44.76748" lon="5.69779">
        <ele>793.1</ele>
        <time>2017-12-15T22:41:10Z</time>
      </trkpt>
      <trkpt lat="44.76795" lon="5.6978">
        <ele>792.6</ele>
        <time>2017-12-15T22:41:15Z</time>
      </trkpt>
      <trkpt lat="44.7681" lon="5.69784">
        <ele>792.6</ele>
        <time>2017-12-15T22:41:33Z</time>
      </trkpt>
      <trkpt lat="44.76903" lon="5.69832">
        <ele>793.4</ele>
        <time>2017-12-15T22:41:43Z</time>
      </trkpt>
      <trkpt lat="44.76946" lon="5.69856">
        <ele>791.7</ele>
        <time>2017-12-15T22:41:59Z</time>
      </trkpt>
      <trkpt lat="44.76958" lon="5.69867">
        <ele>790.6</ele>
        <time>2017-12-15T22:42:02Z</time>
      </trkpt>
      <trkpt lat="44.76966" lon="5.69876">
        <ele>790.1</ele>
        <time>2017-12-15T22:42:07Z</time>
      </trkpt>
      <trkpt lat="44.76972" lon="5.69885">
        <ele>789.9</ele>
        <time>2017-12-15T22:42:10Z</time>
      </trkpt>
      <trkpt lat="44.76981" lon="5.69911">
        <ele>789.6</ele>
        <time>2017-12-15T22:42:28Z</time>
      </trkpt>
      <trkpt lat="44.76986" lon="5.69955">
        <ele>788.6</ele>
        <time>2017-12-15T22:42:41Z</time>
      </trkpt>
      <trkpt lat="44.76989" lon="5.70009">
        <ele>787.6</ele>
        <time>2017-12-15T22:42:54Z</time>
      </trkpt>
      <trkpt lat="44.7699" lon="5.70061">
        <ele>787.4</ele>
        <time>2017-12-15T22:43:13Z</time>
      </trkpt>
      <trkpt lat="44.76994" lon="5.70097">
        <ele>787.4</ele>
        <time>2017-12-15T22:43:15Z</time>
      </trkpt>
      <trkpt lat="44.77023" lon="5.70281">
        <ele>787.5</ele>
        <time>2017-12-15T22:43:32Z</time>
      </trkpt>
      <trkpt lat="44.77027" lon="5.7032">
        <ele>787.1</ele>
        <time>2017-12-15T22:43:43Z</time>
      </trkpt>
      <trkpt lat="44.77028" lon="5.70359">
        <ele>786</ele>
        <time>2017-12-15T22:43:56Z</time>
      </trkpt>
      <trkpt lat="44.77017" lon="5.70448">
        <ele>785.5</ele>
        <time>2017-12-15T22:44:00Z</time>
      </trkpt>
      <trkpt lat="44.77017" lon="5.70468">
        <ele>784.9</ele>
        <time>2017-12-15T22:44:09Z</time>
      </trkpt>
      <trkpt lat="44.77008" lon="5.70487">
        <ele>784.9</ele>
        <time>2017-12-15T22:44:12Z</time>
      </trkpt>
      <trkpt lat="44.76978" lon="5.7058">
        <ele>785.6</ele>
        <time>2017-12-15T22:44:32Z</time>
      </trkpt>
      <trkpt lat="44.76915" lon="5.70773">
        <ele>787.3</ele>
        <time>2017-12-15T22:44:48Z</time>
      </trkpt>
      <trkpt lat="44.76902" lon="5.70823">
        <ele>787.3</ele>
        <time>2017-12-15T22:44:58Z</time>
      </trkpt>
      <trkpt lat="44.76893" lon="5.70879">
        <ele>787.4</ele>
        <time>2017-12-15T22:45:11Z</time>
      </trkpt>
      <trkpt lat="44.76877" lon="5.71011">
        <ele>788.5</ele>
        <time>2017-12-15T22:45:31Z</time>
      </trkpt>
      <trkpt lat="44.76868" lon="5.71074">
        <ele>789.9</ele>
        <time>2017-12-15T22:45:36Z</time>
      </trkpt>
      <trkpt lat="44.76857" lon="5.71116">
        <ele>790.4</ele>
        <time>2017-12-15T22:45:39Z</time>
      </trkpt>
      <trkpt lat="44.76835" lon="5.71169">
        <ele>790.8</ele>
        <time>2017-12-15T22:45:53Z</time>
      </trkpt>
      <trkpt lat="44.76763" lon="5.71321">
        <ele>793.1</ele>
        <time>2017-12-15T22:46:02Z</time>
      </trkpt>
      <trkpt lat="44.7673" lon="5.71394">
        <ele>790.9</ele>
        <time>2017-12-15T22:46:09Z</time>
      </trkpt>
      <trkpt lat="44.76711" lon="5.71452">
        <ele>793.5</ele>
        <time>2017-12-15T22:46:24Z</time>
      </trkpt>
      <trkpt lat="44.76691" lon="5.71534">
        <ele>791.2</ele>
        <time>2017-12-15T22:46:27Z</time>
      </trkpt>
      <trkpt lat="44.76681" lon="5.7158">
        <ele>788.3</ele>
        <time>2017-12-15T22:46:44Z</time>
      </trkpt>
      <trkpt lat="44.76662" lon="5.71635">
        <ele>786.8</ele>
        <time>2017-12-15T22:46:52Z</time>
      </trkpt>
      <trkpt lat="44.76642" lon="5.71686">
        <ele>784.7</ele>
        <time>2017-12-15T22:47:10Z</time>
      </trkpt>
      <trkpt lat="44.76631" lon="5.71704">
        <ele>784.8</ele>
        <time>2017-12-15T22:47:25Z</time>
      </trkpt>
      <trkpt lat="44.76616" lon="5.71727">
        <ele>785.6</ele>
        <time>2017-12-15T22:47:38Z</time>
      </trkpt>
      <trkpt lat="44.76602" lon="5.71749">
        <ele>786.1</ele>
        <time>2017-12-15T22:47:53Z</time>
      </trkpt>
      <trkpt lat="44.76581" lon="5.71807">
        <ele>781.7</ele>
        <time>2017-12-15T22:48:11Z</time>
      </trkpt>
      <trkpt lat="44.76528" lon="5.71953">
        <ele>780</ele>
        <time>2017-12-15T22:48:26Z</time>
      </trkpt>
      <trkpt lat="44.76497" lon="5.72047">
        <ele>781.8</ele>
        <time>2017-12-15T22:48:29Z</time>
      </trkpt>
      <trkpt lat="44.76462" lon="5.72121">
        <ele>782.3</ele>
        <time>2017-12-15T22:48:49Z</time>
      </trkpt>
      <trkpt lat="44.76443" lon="5.72175">
        <ele>782.8</ele>
        <time>2017-12-15T22:48:58Z</time>
      </trkpt>
      <trkpt lat="44.76428" lon="5.72209">
        <ele>783.8</ele>
        <time>2017-12-15T22:49:05Z</time>
      </trkpt>
      <trkpt lat="44.76415" lon="5.72232">
        <ele>784.3</ele>
        <time>2017-12-15T22:49:11Z</time>
      </trkpt>
      <trkpt lat="44.76404" lon="5.72246">
        <ele>784.8</ele>
        <time>2017-12-15T22:49:24Z</time>
      </trkpt>
      <trkpt lat="44.76372" lon="5.72279">
        <ele>786.1</ele>
        <time>2017-12-15T22:49:37Z</time>
      </trkpt>
      <trkpt lat="44.76358" lon="5.72295">
        <ele>786.7</ele>
        <time>2017-12-15T22:49:44Z</time>
      </trkpt>
      <trkpt lat="44.76346" lon="5.72312">
        <ele>786.6</ele>
        <time>2017-12-15T22:49:58Z</time>
      </trkpt>
      <trkpt lat="44.76335" lon="5.7233">
        <ele>785.4</ele>
        <time>2017-12-15T22:50:17Z</time>
      </trkpt>
      <trkpt lat="44.76324" lon="5.72354">
        <ele>785</ele>
        <time>2017-12-15T22:50:34Z</time>
      </trkpt>
      <trkpt lat="44.76294" lon="5.72427">
        <ele>782.5</ele>
        <time>2017-12-15T22:50:41Z</time>
      </trkpt>
      <trkpt lat="44.76281" lon="5.72454">
        <ele>782</ele>
        <time>2017-12-15T22:50:52Z</time>
      </trkpt>
      <trkpt lat="44.76281" lon="5.72461">
        <ele>781.5</ele>
        <time>2017-12-15T22:51:12Z</time>
      </trkpt>
      <trkpt lat="44.76281" lon="5.72468">
        <ele>781</ele>
        <time>2017-12-15T22:51:26Z</time>
      </trkpt>
      <trkpt lat="44.76275" lon="5.72476">
        <ele>781</ele>
        <time>2017-12-15T22:51:46Z</time>
      </trkpt>
      <trkpt lat="44.76252" lon="5.72508">
        <ele>782.1</ele>
        <time>2017-12-15T22:52:01Z</time>
      </trkpt>
      <trkpt lat="44.76204" lon="5.72569">
        <ele>783.2</ele>
        <time>2017-12-15T22:52:15Z</time>
      </trkpt>
      <trkpt lat="44.75962" lon="5.72885">
        <ele>791.9</ele>
        <time>2017-12-15T22:52:31Z</time>
      </trkpt>
      <trkpt lat="44.75925" lon="5.72937">
        <ele>790.7</ele>
        <time>2017-12-15T22:52:45Z</time>
      </trkpt>
      <trkpt lat="44.7586" lon="5.73055">
        <ele>792.1</ele>
        <time>2017-12-15T22:52:49Z</time>
      </trkpt>
      <trkpt lat="44.75708" lon="5.73332">
        <ele>800.8</ele>
        <time>2017-12-15T22:52:58Z</time>
      </trkpt>
      <trkpt lat="44.75576" lon="5.73572">
        <ele>801.6</ele>
        <time>2017-12-15T22:53:03Z</time>
      </trkpt>
      <trkpt lat="44.75566" lon="5.73587">
        <ele>801.5</ele>
        <time>2017-12-15T22:53:10Z</time>
      </trkpt>
      <trkpt lat="44.75546" lon="5.73603">
        <ele>801.8</ele>
        <time>2017-12-15T22:53:14Z</time>
      </trkpt>
      <trkpt lat="44.75525" lon="5.73614">
        <ele>803.3</ele>
        <time>2017-12-15T22:53:17Z</time>
      </trkpt>
      <trkpt lat="44.75508" lon="5.73625">
        <ele>805.1</ele>
        <time>2017-12-15T22:53:28Z</time>
      </trkpt>
      <trkpt lat="44.75473" lon="5.73657">
        <ele>807.2</ele>
        <time>2017-12-15T22:53:39Z</time>
      </trkpt>
      <trkpt lat="44.75433" lon="5.73684">
        <ele>809.3</ele>
        <time>2017-12-15T22:53:50Z</time>
      </trkpt>
      <trkpt lat="44.75388" lon="5.73713">
        <ele>811.8</ele>
        <time>2017-12-15T22:54:04Z</time>
      </trkpt>
      <trkpt lat="44.75334" lon="5.73753">
        <ele>813.2</ele>
        <time>2017-12-15T22:54:10Z</time>
      </trkpt>
      <trkpt lat="44.75284" lon="5.73791">
        <ele>813.1</ele>
        <time>2017-12-15T22:54:19Z</time>
      </trkpt>
      <trkpt lat="44.75205" lon="5.73851">
        <ele>815.7</ele>
        <time>2017-12-15T22:54:30Z</time>
      </trkpt>
      <trkpt lat="44.75186" lon="5.73868">
        <ele>816.4</ele>
        <time>2017-12-15T22:54:50Z</time>
      </trkpt>
      <trkpt lat="44.75149" lon="5.73904">
        <ele>818.7</ele>
        <time>2017-12-15T22:55:09Z</time>
      </trkpt>
      <trkpt lat="44.75116" lon="5.73943">
        <ele>821.7</ele>
        <time>2017-12-15T22:55:16Z</time>
      </trkpt>
      <trkpt lat="44.75074" lon="5.74009">
        <ele>821.6</ele>
        <time>2017-12-15T22:55:21Z</time>
      </trkpt>
      <trkpt lat="44.75035" lon="5.74069">
        <ele>822.7</ele>
        <time>2017-12-15T22:55:39Z</time>
      </trkpt>
      <trkpt lat="44.74955" lon="5.74175">
        <ele>829</ele>
        <time>2017-12-15T22:55:45Z</time>
      </trkpt>
      <trkpt lat="44.74909" lon="5.74237">
        <ele>831.8</ele>
        <time>2017-12-15T22:55:47Z</time>
      </trkpt>
      <trkpt lat="44.74885" lon="5.74267">
        <ele>833</ele>
        <time>2017-12-15T22:56:01Z</time>
      </trkpt>
      <trkpt lat="44.74871" lon="5.74282">
        <ele>833</ele>
        <time>2017-12-15T22:56:14Z</time>
      </trkpt>
      <trkpt lat="44.74859" lon="5.74292">
        <ele>833.6</ele>
        <time>2017-12-15T22:56:17Z</time>
      </trkpt>
      <trkpt lat="44.74778" lon="5.74339">
        <ele>837.4</ele>
        <time>2017-12-15T22:56:28Z</time>
      </trkpt>
      <trkpt lat="44.74718" lon="5.74374">
        <ele>839.4</ele>
        <time>2017-12-15T22:56:36Z</time>
      </trkpt>
      <trkpt lat="44.74704" lon="5.74381">
        <ele>839.7</ele>
        <time>2017-12-15T22:56:45Z</time>
      </trkpt>
      <trkpt lat="44.7469" lon="5.74384">
        <ele>840.7</ele>
        <time>2017-12-15T22:56:55Z</time>
      </trkpt>
      <trkpt lat="44.74675" lon="5.74386">
        <ele>841.6</ele>
        <time>2017-12-15T22:57:04Z</time>
      </trkpt>
      <trkpt lat="44.74661" lon="5.7439">
        <ele>842.2</ele>
        <time>2017-12-15T22:57:11Z</time>
      </trkpt>
      <trkpt lat="44.74646" lon="5.74397">
        <ele>842.2</ele>
        <time>2017-12-15T22:57:30Z</time>
      </trkpt>
      <trkpt lat="44.74624" lon="5.74412">
        <ele>842.1</ele>
        <time>2017-12-15T22:57:46Z</time>
      </trkpt>
      <trkpt lat="44.74575" lon="5.74444">
        <ele>843.2</ele>
        <time>2017-12-15T22:58:04Z</time>
      </trkpt>
      <trkpt lat="44.74561" lon="5.74454">
        <ele>843.7</ele>
        <time>2017-12-15T22:58:12Z</time>
      </trkpt>
      <trkpt lat="44.74551" lon="5.74466">
        <ele>843.6</ele>
        <time>2017-12-15T22:58:17Z</time>
      </trkpt>
      <trkpt lat="44.74541" lon="5.74481">
        <ele>843.4</ele>
        <time>2017-12-15T22:58:19Z</time>
      </trkpt>
      <trkpt lat="44.74533" lon="5.74492">
        <ele>843.7</ele>
        <time>2017-12-15T22:58:29Z</time>
      </trkpt>
      <trkpt lat="44.74524" lon="5.74499">
        <ele>844.8</ele>
        <time>2017-12-15T22:58:48Z</time>
      </trkpt>
      <trkpt lat="44.74491" lon="5.74511">
        <ele>848.8</ele>
        <time>2017-12-15T22:58:58Z</time>
      </trkpt>
      <trkpt lat="44.74484" lon="5.74514">
        <ele>849.1</ele>
        <time>2017-12-15T22:59:12Z</time>
      </trkpt>
      <trkpt lat="44.74477" lon="5.74519">
        <ele>849.6</ele>
        <time>2017-12-15T22:59:26Z</time>
      </trkpt>
      <trkpt lat="44.74473" lon="5.74529">
        <ele>849.9</ele>
        <time>2017-12-15T22:59:43Z</time>
      </trkpt>
      <trkpt lat="44.74472" lon="5.74546">
        <ele>849.4</ele>
        <time>2017-12-15T22:59:54Z</time>
      </trkpt>
      <trkpt lat="44.74473" lon="5.74592">
        <ele>847.3</ele>
        <time>2017-12-15T23:00:13Z</time>
      </trkpt>
      <trkpt lat="44.74462" lon="5.74638">
        <ele>845.8</ele>
        <time>2017-12-15T23:00:30Z</time>
      </trkpt>
      <trkpt lat="44.74454" lon="5.74681">
        <ele>848.6</ele>
        <time>2017-12-15T23:00:37Z</time>
      </trkpt>
      <trkpt lat="44.7445" lon="5.74694">
        <ele>849.6</ele>
        <time>2017-12-15T23:00:57Z</time>
      </trkpt>
      <trkpt lat="44.74442" lon="5.74712">
        <ele>852</ele>
        <time>2017-12-15T23:01:11Z</time>
      </trkpt>
      <trkpt lat="44.74424" lon="5.74743">
        <ele>854.8</ele>
        <time>2017-12-15T23:01:14Z</time>
      </trkpt>
      <trkpt lat="44.74395" lon="5.74778">
        <ele>856.7</ele>
        <time>2017-12-15T23:01:20Z</time>
      </trkpt>
      <trkpt lat="44.74371" lon="5.74804">
        <ele>857.9</ele>
        <time>2017-12-15T23:01:29Z</time>
      </trkpt>
      <trkpt lat="44.74362" lon="5.74819">
        <ele>859</ele>
        <time>2017-12-15T23:01:33Z</time>
      </trkpt>
      <trkpt lat="44.74356" lon="5.74834">
        <ele>860.5</ele>
        <time>2017-12-15T23:01:42Z</time>
      </trkpt>
      <trkpt lat="44.74353" lon="5.74853">
        <ele>863</ele>
        <time>2017-12-15T23:01:58Z</time>
      </trkpt>
      <trkpt lat="44.74354" lon="5.74876">
        <ele>865.4</ele>
        <time>2017-12-15T23:02:09Z</time>
      </trkpt>
      <trkpt lat="44.74363" lon="5.74958">
        <ele>866</ele>
        <time>2017-12-15T23:02:24Z</time>
      </trkpt>
      <trkpt lat="44.74363" lon="5.74965">
        <ele>865.7</ele>
        <time>2017-12-15T23:02:30Z</time>
      </trkpt>
      <trkpt lat="44.74357" lon="5.7498">
        <ele>865.7</ele>
        <time>2017-12-15T23:02:44Z</time>
      </trkpt>
      <trkpt lat="44.74346" lon="5.7501">
        <ele>865.2</ele>
        <time>2017-12-15T23:02:55Z</time>
      </trkpt>
      <trkpt lat="44.74333" lon="5.75048">
        <ele>866.3</ele>
        <time>2017-12-15T23:03:10Z</time>
      </trkpt>
      <trkpt lat="44.74326" lon="5.75099">
        <ele>862.7</ele>
        <time>2017-12-15T23:03:16Z</time>
      </trkpt>
      <trkpt lat="44.74322" lon="5.75116">
        <ele>861.7</ele>
        <time>2017-12-15T23:03:35Z</time>
      </trkpt>
      <trkpt lat="44.74314" lon="5.75137">
        <ele>861.8</ele>
        <time>2017-12-15T23:03:45Z</time>
      </trkpt>
      <trkpt lat="44.74303" lon="5.75159">
        <ele>861.5</ele>
        <time>2017-12-15T23:03:49Z</time>
      </trkpt>
      <trkpt lat="44.74276" lon="5.75205">
        <ele>864</ele>
        <time>2017-12-15T23:03:51Z</time>
      </trkpt>
      <trkpt lat="44.74243" lon="5.75264">
        <ele>867.1</ele>
        <time>2017-12-15T23:03:55Z</time>
      </trkpt>
      <trkpt lat="44.74224" lon="5.75301">
        <ele>865.2</ele>
        <time>2017-12-15T23:04:06Z</time>
      </trkpt>
      <trkpt lat="44.74162" lon="5.75421">
        <ele>868.7</ele>
        <time>2017-12-15T23:04:10Z</time>
      </trkpt>
      <trkpt lat="44.74142" lon="5.75473">
        <ele>867</ele>
        <time>2017-12-15T23:04:15Z</time>
      </trkpt>
      <trkpt lat="44.74134" lon="5.75497">
        <ele>867.3</ele>
        <time>2017-12-15T23:04:35Z</time>
      </trkpt>
      <trkpt lat="44.74124" lon="5.75518">
        <ele>869.9</ele>
        <time>2017-12-15T23:04:40Z</time>
      </trkpt>
      <trkpt lat="44.74115" lon="5.75546">
        <ele>870.6</ele>
        <time>2017-12-15T23:04:56Z</time>
      </trkpt>
      <trkpt lat="44.74108" lon="5.75577">
        <ele>869.9</ele>
        <time>2017-12-15T23:05:10Z</time>
      </trkpt>
      <trkpt lat="44.74103" lon="5.75595">
        <ele>869.3</ele>
        <time>2017-12-15T23:05:18Z</time>
      </trkpt>
      <trkpt lat="44.74095" lon="5.7561">
        <ele>869.2</ele>
        <time>2017-12-15T23:05:30Z</time>
      </trkpt>
      <trkpt lat="44.74081" lon="5.75628">
        <ele>870.5</ele>
        <time>2017-12-15T23:05:48Z</time>
      </trkpt>
      <trkpt lat="44.74059" lon="5.75652">
        <ele>873.2</ele>
        <time>2017-12-15T23:06:07Z</time>
      </trkpt>
      <trkpt lat="44.74046" lon="5.75669">
        <ele>873.7</ele>
        <time>2017-12-15T23:06:19Z</time>
      </trkpt>
      <trkpt lat="44.74034" lon="5.75692">
        <ele>872.9</ele>
        <time>2017-12-15T23:06:28Z</time>
      </trkpt>
      <trkpt lat="44.74022" lon="5.75716">
        <ele>872.7</ele>
        <time>2017-12-15T23:06:39Z</time>
      </trkpt>
      <trkpt lat="44.74013" lon="5.75742">
        <ele>872.1</ele>
        <time>2017-12-15T23:06:56Z</time>
      </trkpt>
      <trkpt lat="44.74013" lon="5.75756">
        <ele>870.9</ele>
        <time>2017-12-15T23:07:00Z</time>
      </trkpt>
      <trkpt lat="44.74019" lon="5.75772">
        <ele>869.7</ele>
        <time>2017-12-15T23:07:06Z</time>
      </trkpt>
      <trkpt lat="44.74048" lon="5.75823">
        <ele>871.7</ele>
        <time>2017-12-15T23:07:08Z</time>
      </trkpt>
      <trkpt lat="44.74068" lon="5.75857">
        <ele>874.7</ele>
        <time>2017-12-15T23:07:25Z</time>
      </trkpt>
      <trkpt lat="44.7408" lon="5.75879">
        <ele>876.2</ele>
        <time>2017-12-15T23:07:44Z</time>
      </trkpt>
      <trkpt lat="44.74089" lon="5.75905">
        <ele>877.6</ele>
        <time>2017-12-15T23:08:02Z</time>
      </trkpt>
      <trkpt lat="44.74097" lon="5.75935">
        <ele>879.3</ele>
        <time>2017-12-15T23:08:07Z</time>
      </trkpt>
      <trkpt lat="44.74111" lon="5.7598">
        <ele>882.6</ele>
        <time>2017-12-15T23:08:20Z</time>
      </trkpt>
      <trkpt lat="44.74115" lon="5.76017">
        <ele>884.3</ele>
        <time>2017-12-15T23:08:32Z</time>
      </trkpt>
      <trkpt lat="44.74113" lon="5.76128">
        <ele>891</ele>
        <time>2017-12-15T23:08:37Z</time>
      </trkpt>
      <trkpt lat="44.74114" lon="5.76179">
        <ele>893.2</ele>
        <time>2017-12-15T23:08:56Z</time>
      </trkpt>
      <trkpt lat="44.74118" lon="5.76211">
        <ele>894.2</ele>
        <time>2017-12-15T23:09:02Z</time>
      </trkpt>
      <trkpt lat="44.74129" lon="5.76246">
        <ele>895.8</ele>
        <time>2017-12-15T23:09:07Z</time>
      </trkpt>
      <trkpt lat="44.74142" lon="5.76272">
        <ele>897.5</ele>
        <time>2017-12-15T23:09:16Z</time>
      </trkpt>
      <trkpt lat="44.74163" lon="5.76303">
        <ele>898.8</ele>
        <time>2017-12-15T23:09:26Z</time>
      </trkpt>
      <trkpt lat="44.74171" lon="5.76318">
        <ele>900</ele>
        <time>2017-12-15T23:09:44Z</time>
      </trkpt>
      <trkpt lat="44.74175" lon="5.76336">
        <ele>901.4</ele>
        <time>2017-12-15T23:10:00Z</time>
      </trkpt>
      <trkpt lat="44.74181" lon="5.76381">
        <ele>904.8</ele>
        <time>2017-12-15T23:10:04Z</time>
      </trkpt>
      <trkpt lat="44.74181" lon="5.76436">
        <ele>905.7</ele>
        <time>2017-12-15T23:10:09Z</time>
      </trkpt>
      <trkpt lat="44.74168" lon="5.76502">
        <ele>905.9</ele>
        <time>2017-12-15T23:10:26Z</time>
      </trkpt>
      <trkpt lat="44.74163" lon="5.76542">
        <ele>907.2</ele>
        <time>2017-12-15T23:10:33Z</time>
      </trkpt>
      <trkpt lat="44.74163" lon="5.76548">
        <ele>907.4</ele>
        <time>2017-12-15T23:10:50Z</time>
      </trkpt>
      <trkpt lat="44.74166" lon="5.76552">
        <ele>907</ele>
        <time>2017-12-15T23:10:53Z</time>
      </trkpt>
      <trkpt lat="44.74195" lon="5.76565">
        <ele>904.3</ele>
        <time>2017-12-15T23:10:59Z</time>
      </trkpt>
      <trkpt lat="44.74258" lon="5.76593">
        <ele>904.9</ele>
        <time>2017-12-15T23:11:03Z</time>
      </trkpt>
      <trkpt lat="44.74291" lon="5.76625">
        <ele>908.7</ele>
        <time>2017-12-15T23:11:09Z</time>
      </trkpt>
      <trkpt lat="44.74341" lon="5.76677">
        <ele>911.8</ele>
        <time>2017-12-15T23:11:26Z</time>
      </trkpt>
      <trkpt lat="44.74422" lon="5.76764">
        <ele>914.5</ele>
        <time>2017-12-15T23:11:31Z</time>
      </trkpt>
      <trkpt lat="44.74454" lon="5.76796">
        <ele>915.3</ele>
        <time>2017-12-15T23:11:38Z</time>
      </trkpt>
      <trkpt lat="44.7448" lon="5.76816">
        <ele>915.8</ele>
        <time>2017-12-15T23:11:57Z</time>
      </trkpt>
      <trkpt lat="44.74486" lon="5.76821">
        <ele>916.1</ele>
        <time>2017-12-15T23:12:17Z</time>
      </trkpt>
      <trkpt lat="44.74499" lon="5.76821">
        <ele>916.1</ele>
        <time>2017-12-15T23:12:24Z</time>
      </trkpt>
      <trkpt lat="44.74537" lon="5.76814">
        <ele>917.5</ele>
        <time>2017-12-15T23:12:42Z</time>
      </trkpt>
      <trkpt lat="44.74556" lon="5.76809">
        <ele>919.2</ele>
        <time>2017-12-15T23:12:56Z</time>
      </trkpt>
      <trkpt lat="44.74575" lon="5.76809">
        <ele>921.2</ele>
        <time>2017-12-15T23:13:12Z</time>
      </trkpt>
      <trkpt lat="44.7459" lon="5.76806">
        <ele>923.7</ele>
        <time>2017-12-15T23:13:20Z</time>
      </trkpt>
      <trkpt lat="44.74597" lon="5.76801">
        <ele>925.3</ele>
        <time>2017-12-15T23:13:29Z</time>
      </trkpt>
      <trkpt lat="44.74603" lon="5.76788">
        <ele>926.3</ele>
        <time>2017-12-15T23:13:45Z</time>
      </trkpt>
      <trkpt lat="44.74622" lon="5.76749">
        <ele>925</ele>
        <time>2017-12-15T23:13:47Z</time>
      </trkpt>
      <trkpt lat="44.74629" lon="5.76741">
        <ele>923.9</ele>
        <time>2017-12-15T23:13:58Z</time>
      </trkpt>
      <trkpt lat="44.74638" lon="5.76737">
        <ele>923.7</ele>
        <time>2017-12-15T23:14:15Z</time>
      </trkpt>
      <trkpt lat="44.74657" lon="5.76743">
        <ele>922.8</ele>
        <time>2017-12-15T23:14:33Z</time>
      </trkpt>
      <trkpt lat="44.74706" lon="5.7677">
        <ele>922.9</ele>
        <time>2017-12-15T23:14:45Z</time>
      </trkpt>
      <trkpt lat="44.74759" lon="5.76799">
        <ele>925.5</ele>
        <time>2017-12-15T23:14:47Z</time>
      </trkpt>
      <trkpt lat="44.74783" lon="5.76809">
        <ele>926.3</ele>
        <time>2017-12-15T23:14:52Z</time>
      </trkpt>
      <trkpt lat="44.74802" lon="5.76812">
        <ele>927.1</ele>
        <time>2017-12-15T23:14:59Z</time>
      </trkpt>
      <trkpt lat="44.74855" lon="5.76808">
        <ele>925.4</ele>
        <time>2017-12-15T23:15:07Z</time>
      </trkpt>
      <trkpt lat="44.7489" lon="5.76805">
        <ele>926</ele>
        <time>2017-12-15T23:15:16Z</time>
      </trkpt>
      <trkpt lat="44.74904" lon="5.768">
        <ele>926.4</ele>
        <time>2017-12-15T23:15:34Z</time>
      </trkpt>
      <trkpt lat="44.74993" lon="5.76729">
        <ele>932.3</ele>
        <time>2017-12-15T23:15:42Z</time>
      </trkpt>
      <trkpt lat="44.75008" lon="5.7671">
        <ele>933.6</ele>
        <time>2017-12-15T23:15:59Z</time>
      </trkpt>
      <trkpt lat="44.75033" lon="5.76685">
        <ele>935.6</ele>
        <time>2017-12-15T23:16:01Z</time>
      </trkpt>
      <trkpt lat="44.75062" lon="5.76662">
        <ele>939.6</ele>
        <time>2017-12-15T23:16:07Z</time>
      </trkpt>
      <trkpt lat="44.75074" lon="5.76657">
        <ele>941</ele>
        <time>2017-12-15T23:16:21Z</time>
      </trkpt>
      <trkpt lat="44.75114" lon="5.76634">
        <ele>943.9</ele>
        <time>2017-12-15T23:16:28Z</time>
      </trkpt>
      <trkpt lat="44.75121" lon="5.76628">
        <ele>943.9</ele>
        <time>2017-12-15T23:16:39Z</time>
      </trkpt>
      <trkpt lat="44.75131" lon="5.76622">
        <ele>944.2</ele>
        <time>2017-12-15T23:16:52Z</time>
      </trkpt>
      <trkpt lat="44.75151" lon="5.76609">
        <ele>944.8</ele>
        <time>2017-12-15T23:16:54Z</time>
      </trkpt>
      <trkpt lat="44.7517" lon="5.76596">
        <ele>945.8</ele>
        <time>2017-12-15T23:17:10Z</time>
      </trkpt>
      <trkpt lat="44.75178" lon="5.76587">
        <ele>946.7</ele>
        <time>2017-12-15T23:17:24Z</time>
      </trkpt>
      <trkpt lat="44.75186" lon="5.76569">
        <ele>948.3</ele>
        <time>2017-12-15T23:17:32Z</time>
      </trkpt>
      <trkpt lat="44.75188" lon="5.76542">
        <ele>949.6</ele>
        <time>2017-12-15T23:17:45Z</time>
      </trkpt>
      <trkpt lat="44.75183" lon="5.76525">
        <ele>949.7</ele>
        <time>2017-12-15T23:18:02Z</time>
      </trkpt>
      <trkpt lat="44.75148" lon="5.76454">
        <ele>953.5</ele>
        <time>2017-12-15T23:18:04Z</time>
      </trkpt>
      <trkpt lat="44.75129" lon="5.76428">
        <ele>953.6</ele>
        <time>2017-12-15T23:18:23Z</time>
      </trkpt>
      <trkpt lat="44.75115" lon="5.7641">
        <ele>953.2</ele>
        <time>2017-12-15T23:18:25Z</time>
      </trkpt>
      <trkpt lat="44.7511" lon="5.764">
        <ele>953</ele>
        <time>2017-12-15T23:18:27Z</time>
      </trkpt>
      <trkpt lat="44.75111" lon="5.76383">
        <ele>954.2</ele>
        <time>2017-12-15T23:18:30Z</time>
      </trkpt>
      <trkpt lat="44.75115" lon="5.76378">
        <ele>955.1</ele>
        <time>2017-12-15T23:18:42Z</time>
      </trkpt>
      <trkpt lat="44.75122" lon="5.76378">
        <ele>956.5</ele>
        <time>2017-12-15T23:18:54Z</time>
      </trkpt>
      <trkpt lat="44.75138" lon="5.76399">
        <ele>958.1</ele>
        <time>2017-12-15T23:19:11Z</time>
      </trkpt>
      <trkpt lat="44.75154" lon="5.76422">
        <ele>959.1</ele>
        <time>2017-12-15T23:19:21Z</time>
      </trkpt>
      <trkpt lat="44.75217" lon="5.76467">
        <ele>963</ele>
        <time>2017-12-15T23:19:39Z</time>
      </trkpt>
      <trkpt lat="44.75239" lon="5.76469">
        <ele>966.5</ele>
        <time>2017-12-15T23:19:47Z</time>
      </trkpt>
      <trkpt lat="44.75251" lon="5.76471">
        <ele>968.4</ele>
        <time>2017-12-15T23:20:07Z</time>
      </trkpt>
      <trkpt lat="44.75261" lon="5.7648">
        <ele>968.9</ele>
        <time>2017-12-15T23:20:26Z</time>
      </trkpt>
      <trkpt lat="44.75267" lon="5.76488">
        <ele>968.8</ele>
        <time>2017-12-15T23:20:36Z</time>
      </trkpt>
      <trkpt lat="44.75272" lon="5.76494">
        <ele>968.8</ele>
        <time>2017-12-15T23:20:55Z</time>
      </trkpt>
      <trkpt lat="44.75289" lon="5.7651">
        <ele>969.6</ele>
        <time>2017-12-15T23:21:00Z</time>
      </trkpt>
      <trkpt lat="44.75301" lon="5.76517">
        <ele>970.7</ele>
        <time>2017-12-15T23:21:16Z</time>
      </trkpt>
      <trkpt lat="44.75305" lon="5.76518">
        <ele>971.3</ele>
        <time>2017-12-15T23:21:27Z</time>
      </trkpt>
      <trkpt lat="44.75326" lon="5.76521">
        <ele>974.7</ele>
        <time>2017-12-15T23:21:39Z</time>
      </trkpt>
      <trkpt lat="44.75368" lon="5.76529">
        <ele>981.3</ele>
        <time>2017-12-15T23:21:42Z</time>
      </trkpt>
      <trkpt lat="44.75382" lon="5.76535">
        <ele>983.4</ele>
        <time>2017-12-15T23:21:45Z</time>
      </trkpt>
      <trkpt lat="44.75389" lon="5.76541">
        <ele>984.1</ele>
        <time>2017-12-15T23:22:04Z</time>
      </trkpt>
      <trkpt lat="44.7542" lon="5.76575">
        <ele>987.9</ele>
        <time>2017-12-15T23:22:15Z</time>
      </trkpt>
      <trkpt lat="44.75434" lon="5.76591">
        <ele>990.1</ele>
        <time>2017-12-15T23:22:23Z</time>
      </trkpt>
      <trkpt lat="44.7545" lon="5.76624">
        <ele>990.9</ele>
        <time>2017-12-15T23:22:40Z</time>
      </trkpt>
      <trkpt lat="44.75458" lon="5.7665">
        <ele>988.9</ele>
        <time>2017-12-15T23:22:53Z</time>
      </trkpt>
      <trkpt lat="44.75468" lon="5.76657">
        <ele>990.1</ele>
        <time>2017-12-15T23:23:09Z</time>
      </trkpt>
      <trkpt lat="44.7553" lon="5.76671">
        <ele>996.5</ele>
        <time>2017-12-15T23:23:28Z</time>
      </trkpt>
      <trkpt lat="44.75566" lon="5.76683">
        <ele>998.8</ele>
        <time>2017-12-15T23:23:37Z</time>
      </trkpt>
      <trkpt lat="44.75598" lon="5.76689">
        <ele>1004.3</ele>
        <time>2017-12-15T23:23:47Z</time>
      </trkpt>
      <trkpt lat="44.75604" lon="5.76698">
        <ele>1005.3</ele>
        <time>2017-12-15T23:24:00Z</time>
      </trkpt>
      <trkpt lat="44.75606" lon="5.76718">
        <ele>1006.2</ele>
        <time>2017-12-15T23:24:20Z</time>
      </trkpt>
      <trkpt lat="44.756" lon="5.76727">
        <ele>1004.7</ele>
        <time>2017-12-15T23:24:31Z</time>
      </trkpt>
      <trkpt lat="44.75595" lon="5.76745">
        <ele>1003.8</ele>
        <time>2017-12-15T23:24:42Z</time>
      </trkpt>
      <trkpt lat="44.75593" lon="5.76758">
        <ele>1003.2</ele>
        <time>2017-12-15T23:25:01Z</time>
      </trkpt>
      <trkpt lat="44.75595" lon="5.76766">
        <ele>1004</ele>
        <time>2017-12-15T23:25:04Z</time>
      </trkpt>
      <trkpt lat="44.75614" lon="5.76799">
        <ele>1010</ele>
        <time>2017-12-15T23:25:19Z</time>
      </trkpt>
      <trkpt lat="44.75634" lon="5.76826">
        <ele>1012.3</ele>
        <time>2017-12-15T23:25:29Z</time>
      </trkpt>
      <trkpt lat="44.75654" lon="5.76843">
        <ele>1015.2</ele>
        <time>2017-12-15T23:25:39Z</time>
      </trkpt>
      <trkpt lat="44.7566" lon="5.76847">
        <ele>1016.2</ele>
        <time>2017-12-15T23:25:42Z</time>
      </trkpt>
      <trkpt lat="44.75666" lon="5.76847">
        <ele>1018.3</ele>
        <time>2017-12-15T23:25:56Z</time>
      </trkpt>
      <trkpt lat="44.75679" lon="5.76841">
        <ele>1025.1</ele>
        <time>2017-12-15T23:26:02Z</time>
      </trkpt>
      <trkpt lat="44.75692" lon="5.76837">
        <ele>1031.1</ele>
        <time>2017-12-15T23:26:11Z</time>
      </trkpt>
      <trkpt lat="44.75712" lon="5.76843">
        <ele>1035.7</ele>
        <time>2017-12-15T23:26:14Z</time>
      </trkpt>
      <trkpt lat="44.75716" lon="5.76852">
        <ele>1034.9</ele>
        <time>2017-12-15T23:26:24Z</time>
      </trkpt>
      <trkpt lat="44.75717" lon="5.76868">
        <ele>1031.8</ele>
        <time>2017-12-15T23:26:43Z</time>
      </trkpt>
      <trkpt lat="44.75715" lon="5.76908">
        <ele>1023.2</ele>
        <time>2017-12-15T23:26:49Z</time>
      </trkpt>
      <trkpt lat="44.75731" lon="5.76951">
        <ele>1020.4</ele>
        <time>2017-12-15T23:27:02Z</time>
      </trkpt>
      <trkpt lat="44.7574" lon="5.76956">
        <ele>1021.7</ele>
        <time>2017-12-15T23:27:18Z</time>
      </trkpt>
      <trkpt lat="44.75746" lon="5.76956">
        <ele>1023</ele>
        <time>2017-12-15T23:27:24Z</time>
      </trkpt>
      <trkpt lat="44.75756" lon="5.76954">
        <ele>1025.4</ele>
        <time>2017-12-15T23:27:28Z</time>
      </trkpt>
      <trkpt lat="44.75769" lon="5.76945">
        <ele>1029.3</ele>
        <time>2017-12-15T23:27:46Z</time>
      </trkpt>
      <trkpt lat="44.75775" lon="5.76937">
        <ele>1032.6</ele>
        <time>2017-12-15T23:28:05Z</time>
      </trkpt>
      <trkpt lat="44.75792" lon="5.76922">
        <ele>1039.7</ele>
        <time>2017-12-15T23:28:07Z</time>
      </trkpt>
      <trkpt lat="44.75802" lon="5.7692">
        <ele>1041.7</ele>
        <time>2017-12-15T23:28:23Z</time>
      </trkpt>
      <trkpt lat="44.75811" lon="5.76926">
        <ele>1042.6</ele>
        <time>2017-12-15T23:28:42Z</time>
      </trkpt>
      <trkpt lat="44.75824" lon="5.76952">
        <ele>1041.1</ele>
        <time>2017-12-15T23:29:00Z</time>
      </trkpt>
      <trkpt lat="44.75869" lon="5.77036">
        <ele>1049.3</ele>
        <time>2017-12-15T23:29:19Z</time>
      </trkpt>
      <trkpt lat="44.75875" lon="5.77056">
        <ele>1050</ele>
        <time>2017-12-15T23:29:32Z</time>
      </trkpt>
      <trkpt lat="44.75879" lon="5.7709">
        <ele>1050.5</ele>
        <time>2017-12-15T23:29:48Z</time>
      </trkpt>
      <trkpt lat="44.75873" lon="5.77117">
        <ele>1049.6</ele>
        <time>2017-12-15T23:29:55Z</time>
      </trkpt>
      <trkpt lat="44.75854" lon="5.77161">
        <ele>1051.9</ele>
        <time>2017-12-15T23:30:15Z</time>
      </trkpt>
      <trkpt lat="44.75843" lon="5.77187">
        <ele>1056.2</ele>
        <time>2017-12-15T23:30:35Z</time>
      </trkpt>
      <trkpt lat="44.75838" lon="5.77192">
        <ele>1056.4</ele>
        <time>2017-12-15T23:30:40Z</time>
      </trkpt>
      <trkpt lat="44.75816" lon="5.77197">
        <ele>1052.1</ele>
        <time>2017-12-15T23:30:53Z</time>
      </trkpt>
      <trkpt lat="44.75803" lon="5.77199">
        <ele>1049.3</ele>
        <time>2017-12-15T23:31:05Z</time>
      </trkpt>
      <trkpt lat="44.75799" lon="5.77204">
        <ele>1049.2</ele>
        <time>2017-12-15T23:31:24Z</time>
      </trkpt>
      <trkpt lat="44.75796" lon="5.77224">
        <ele>1052.2</ele>
        <time>2017-12-15T23:31:41Z</time>
      </trkpt>
      <trkpt lat="44.7579" lon="5.77277">
        <ele>1060.2</ele>
        <time>2017-12-15T23:31:44Z</time>
      </trkpt>
      <trkpt lat="44.75773" lon="5.77401">
        <ele>1072.2</ele>
        <time>2017-12-15T23:32:01Z</time>
      </trkpt>
      <trkpt lat="44.75769" lon="5.77408">
        <ele>1071.7</ele>
        <time>2017-12-15T23:32:19Z</time>
      </trkpt>
      <trkpt lat="44.7575" lon="5.77424">
        <ele>1066.6</ele>
        <time>2017-12-15T23:32:29Z</time>
      </trkpt>
      <trkpt lat="44.75738" lon="5.77434">
        <ele>1065.5</ele>
        <time>2017-12-15T23:32:42Z</time>
      </trkpt>
      <trkpt lat="44.75732" lon="5.77443">
        <ele>1065.5</ele>
        <time>2017-12-15T23:32:48Z</time>
      </trkpt>
      <trkpt lat="44.75732" lon="5.7746">
        <ele>1069.4</ele>
        <time>2017-12-15T23:33:03Z</time>
      </trkpt>
      <trkpt lat="44.75735" lon="5.77466">
        <ele>1071.7</ele>
        <time>2017-12-15T23:33:09Z</time>
      </trkpt>
      <trkpt lat="44.75739" lon="5.77469">
        <ele>1073.7</ele>
        <time>2017-12-15T23:33:13Z</time>
      </trkpt>
      <trkpt lat="44.75747" lon="5.77468">
        <ele>1076</ele>
        <time>2017-12-15T23:33:18Z</time>
      </trkpt>
      <trkpt lat="44.75761" lon="5.77453">
        <ele>1078</ele>
        <time>2017-12-15T23:33:20Z</time>
      </trkpt>
      <trkpt lat="44.75774" lon="5.77437">
        <ele>1079.8</ele>
        <time>2017-12-15T23:33:34Z</time>
      </trkpt>
      <trkpt lat="44.75792" lon="5.77414">
        <ele>1084.2</ele>
        <time>2017-12-15T23:33:49Z</time>
      </trkpt>
      <trkpt lat="44.758" lon="5.77381">
        <ele>1081.8</ele>
        <time>2017-12-15T23:34:00Z</time>
      </trkpt>
      <trkpt lat="44.75802" lon="5.77356">
        <ele>1078.6</ele>
        <time>2017-12-15T23:34:08Z</time>
      </trkpt>
      <trkpt lat="44.7581" lon="5.77328">
        <ele>1077.7</ele>
        <time>2017-12-15T23:34:14Z</time>
      </trkpt>
      <trkpt lat="44.75821" lon="5.77299">
        <ele>1075.5</ele>
        <time>2017-12-15T23:34:16Z</time>
      </trkpt>
      <trkpt lat="44.75829" lon="5.77296">
        <ele>1077.2</ele>
        <time>2017-12-15T23:34:34Z</time>
      </trkpt>
      <trkpt lat="44.75834" lon="5.77299">
        <ele>1079.4</ele>
        <time>2017-12-15T23:34:37Z</time>
      </trkpt>
      <trkpt lat="44.75846" lon="5.77322">
        <ele>1087.5</ele>
        <time>2017-12-15T23:34:46Z</time>
      </trkpt>
      <trkpt lat="44.75857" lon="5.77335">
        <ele>1093.7</ele>
        <time>2017-12-15T23:34:49Z</time>
      </trkpt>
      <trkpt lat="44.75867" lon="5.77338">
        <ele>1096.9</ele>
        <time>2017-12-15T23:35:01Z</time>
      </trkpt>
      <trkpt lat="44.75884" lon="5.77337">
        <ele>1099.6</ele>
        <time>2017-12-15T23:35:14Z</time>
      </trkpt>
      <trkpt lat="44.75898" lon="5.77332">
        <ele>1101.2</ele>
        <time>2017-12-15T23:35:25Z</time>
      </trkpt>
      <trkpt lat="44.75926" lon="5.77315">
        <ele>1105.8</ele>
        <time>2017-12-15T23:35:38Z</time>
      </trkpt>
      <trkpt lat="44.75934" lon="5.77305">
        <ele>1106.6</ele>
        <time>2017-12-15T23:35:55Z</time>
      </trkpt>
      <trkpt lat="44.7594" lon="5.77286">
        <ele>1104.9</ele>
        <time>2017-12-15T23:36:02Z</time>
      </trkpt>
      <trkpt lat="44.7595" lon="5.77262">
        <ele>1105.3</ele>
        <time>2017-12-15T23:36:04Z</time>
      </trkpt>
      <trkpt lat="44.75963" lon="5.77246">
        <ele>1108.2</ele>
        <time>2017-12-15T23:36:06Z</time>
      </trkpt>
      <trkpt lat="44.76002" lon="5.77188">
        <ele>1110.4</ele>
        <time>2017-12-15T23:36:18Z</time>
      </trkpt>
      <trkpt lat="44.76016" lon="5.77166">
        <ele>1109.2</ele>
        <time>2017-12-15T23:36:30Z</time>
      </trkpt>
      <trkpt lat="44.76019" lon="5.77161">
        <ele>1109.9</ele>
        <time>2017-12-15T23:36:41Z</time>
      </trkpt>
      <trkpt lat="44.76025" lon="5.77159">
        <ele>1110.8</ele>
        <time>2017-12-15T23:36:43Z</time>
      </trkpt>
      <trkpt lat="44.76041" lon="5.77157">
        <ele>1108.6</ele>
        <time>2017-12-15T23:36:54Z</time>
      </trkpt>
      <trkpt lat="44.76048" lon="5.77169">
        <ele>1104.9</ele>
        <time>2017-12-15T23:37:11Z</time>
      </trkpt>
      <trkpt lat="44.76052" lon="5.772">
        <ele>1105.1</ele>
        <time>2017-12-15T23:37:22Z</time>
      </trkpt>
      <trkpt lat="44.76059" lon="5.77227">
        <ele>1107.3</ele>
        <time>2017-12-15T23:37:34Z</time>
      </trkpt>
      <trkpt lat="44.7606" lon="5.7723">
        <ele>1107.4</ele>
        <time>2017-12-15T23:37:42Z</time>
      </trkpt>
      <trkpt lat="44.76068" lon="5.77243">
        <ele>1106.2</ele>
        <time>2017-12-15T23:37:52Z</time>
      </trkpt>
      <trkpt lat="44.76094" lon="5.77291">
        <ele>1101.2</ele>
        <time>2017-12-15T23:38:08Z</time>
      </trkpt>
      <trkpt lat="44.76103" lon="5.77315">
        <ele>1096.8</ele>
        <time>2017-12-15T23:38:20Z</time>
      </trkpt>
      <trkpt lat="44.76102" lon="5.77347">
        <ele>1093.9</ele>
        <time>2017-12-15T23:38:33Z</time>
      </trkpt>
      <trkpt lat="44.7609" lon="5.77375">
        <ele>1095.8</ele>
        <time>2017-12-15T23:38:39Z</time>
      </trkpt>
      <trkpt lat="44.76074" lon="5.7742">
        <ele>1095.9</ele>
        <time>2017-12-15T23:38:58Z</time>
      </trkpt>
      <trkpt lat="44.76069" lon="5.77459">
        <ele>1091.7</ele>
        <time>2017-12-15T23:39:05Z</time>
      </trkpt>
      <trkpt lat="44.76059" lon="5.77495">
        <ele>1096.8</ele>
        <time>2017-12-15T23:39:23Z</time>
      </trkpt>
      <trkpt lat="44.76057" lon="5.77512">
        <ele>1098.9</ele>
        <time>2017-12-15T23:39:43Z</time>
      </trkpt>
      <trkpt lat="44.7606" lon="5.77521">
        <ele>1097.6</ele>
        <time>2017-12-15T23:39:59Z</time>
      </trkpt>
      <trkpt lat="44.76075" lon="5.77546">
        <ele>1090.4</ele>
        <time>2017-12-15T23:40:18Z</time>
      </trkpt>
      <trkpt lat="44.76095" lon="5.77573">
        <ele>1081.8</ele>
        <time>2017-12-15T23:40:21Z</time>
      </trkpt>
      <trkpt lat="44.7612" lon="5.7761">
        <ele>1073</ele>
        <time>2017-12-15T23:40:35Z</time>
      </trkpt>
      <trkpt lat="44.7613" lon="5.77618">
        <ele>1068.5</ele>
        <time>2017-12-15T23:40:37Z</time>
      </trkpt>
      <trkpt lat="44.7614" lon="5.77621">
        <ele>1063.5</ele>
        <time>2017-12-15T23:40:49Z</time>
      </trkpt>
      <trkpt lat="44.76144" lon="5.77631">
        <ele>1062.6</ele>
        <time>2017-12-15T23:41:03Z</time>
      </trkpt>
      <trkpt lat="44.76144" lon="5.77639">
        <ele>1063.4</ele>
        <time>2017-12-15T23:41:07Z</time>
      </trkpt>
      <trkpt lat="44.7613" lon="5.77682">
        <ele>1074.6</ele>
        <time>2017-12-15T23:41:25Z</time>
      </trkpt>
      <trkpt lat="44.76124" lon="5.77714">
        <ele>1081.5</ele>
        <time>2017-12-15T23:41:29Z</time>
      </trkpt>
      <trkpt lat="44.76124" lon="5.77737">
        <ele>1085.6</ele>
        <time>2017-12-15T23:41:43Z</time>
      </trkpt>
      <trkpt lat="44.7613" lon="5.77749">
        <ele>1086</ele>
        <time>2017-12-15T23:41:47Z</time>
      </trkpt>
      <trkpt lat="44.76133" lon="5.77751">
        <ele>1085.5</ele>
        <time>2017-12-15T23:41:58Z</time>
      </trkpt>
      <trkpt lat="44.7615" lon="5.77752">
        <ele>1082.3</ele>
        <time>2017-12-15T23:42:09Z</time>
      </trkpt>
      <trkpt lat="44.76172" lon="5.77746">
        <ele>1077</ele>
        <time>2017-12-15T23:42:28Z</time>
      </trkpt>
      <trkpt lat="44.76186" lon="5.77734">
        <ele>1070.6</ele>
        <time>2017-12-15T23:42:46Z</time>
      </trkpt>
      <trkpt lat="44.76198" lon="5.77732">
        <ele>1069.1</ele>
        <time>2017-12-15T23:43:05Z</time>
      </trkpt>
      <trkpt lat="44.76208" lon="5.77742">
        <ele>1074.5</ele>
        <time>2017-12-15T23:43:20Z</time>
      </trkpt>
      <trkpt lat="44.76219" lon="5.77752">
        <ele>1080.1</ele>
        <time>2017-12-15T23:43:26Z</time>
      </trkpt>
      <trkpt lat="44.76231" lon="5.77748">
        <ele>1079</ele>
        <time>2017-12-15T23:43:31Z</time>
      </trkpt>
      <trkpt lat="44.7625" lon="5.77715">
        <ele>1066.4</ele>
        <time>2017-12-15T23:43:36Z</time>
      </trkpt>
      <trkpt lat="44.76259" lon="5.77702">
        <ele>1062.9</ele>
        <time>2017-12-15T23:43:54Z</time>
      </trkpt>
      <trkpt lat="44.76264" lon="5.777">
        <ele>1062.9</ele>
        <time>2017-12-15T23:44:14Z</time>
      </trkpt>
      <trkpt lat="44.76271" lon="5.77704">
        <ele>1065.2</ele>
        <time>2017-12-15T23:44:34Z</time>
      </trkpt>
      <trkpt lat="44.76282" lon="5.7772">
        <ele>1071.7</ele>
        <time>2017-12-15T23:44:40Z</time>
      </trkpt>
      <trkpt lat="44.76286" lon="5.77723">
        <ele>1073.2</ele>
        <time>2017-12-15T23:44:45Z</time>
      </trkpt>
      <trkpt lat="44.76291" lon="5.77723">
        <ele>1073.7</ele>
        <time>2017-12-15T23:45:01Z</time>
      </trkpt>
      <trkpt lat="44.76296" lon="5.7772">
        <ele>1073.2</ele>
        <time>2017-12-15T23:45:15Z</time>
      </trkpt>
      <trkpt lat="44.76299" lon="5.77713">
        <ele>1071.3</ele>
        <time>2017-12-15T23:45:31Z</time>
      </trkpt>
      <trkpt lat="44.76305" lon="5.77684">
        <ele>1063.3</ele>
        <time>2017-12-15T23:45:45Z</time>
      </trkpt>
      <trkpt lat="44.76306" lon="5.77663">
        <ele>1058</ele>
        <time>2017-12-15T23:45:49Z</time>
      </trkpt>
      <trkpt lat="44.76311" lon="5.77654">
        <ele>1056.3</ele>
        <time>2017-12-15T23:46:02Z</time>
      </trkpt>
      <trkpt lat="44.76317" lon="5.77645">
        <ele>1054.8</ele>
        <time>2017-12-15T23:46:04Z</time>
      </trkpt>
      <trkpt lat="44.76335" lon="5.77629">
        <ele>1053.5</ele>
        <time>2017-12-15T23:46:17Z</time>
      </trkpt>
      <trkpt lat="44.76362" lon="5.7761">
        <ele>1052.8</ele>
        <time>2017-12-15T23:46:23Z</time>
      </trkpt>
      <trkpt lat="44.76369" lon="5.77609">
        <ele>1053.6</ele>
        <time>2017-12-15T23:46:41Z</time>
      </trkpt>
      <trkpt lat="44.76378" lon="5.7761">
        <ele>1055.2</ele>
        <time>2017-12-15T23:46:43Z</time>
      </trkpt>
      <trkpt lat="44.76393" lon="5.77606">
        <ele>1055.9</ele>
        <time>2017-12-15T23:46:45Z</time>
      </trkpt>
      <trkpt lat="44.76433" lon="5.77584">
        <ele>1052.1</ele>
        <time>2017-12-15T23:46:50Z</time>
      </trkpt>
      <trkpt lat="44.76467" lon="5.77561">
        <ele>1043.5</ele>
        <time>2017-12-15T23:47:02Z</time>
      </trkpt>
      <trkpt lat="44.76487" lon="5.7755">
        <ele>1038</ele>
        <time>2017-12-15T23:47:07Z</time>
      </trkpt>
      <trkpt lat="44.76504" lon="5.77548">
        <ele>1035.1</ele>
        <time>2017-12-15T23:47:11Z</time>
      </trkpt>
      <trkpt lat="44.76513" lon="5.77544">
        <ele>1032.6</ele>
        <time>2017-12-15T23:47:23Z</time>
      </trkpt>
      <trkpt lat="44.76536" lon="5.77522">
        <ele>1026.7</ele>
        <time>2017-12-15T23:47:41Z</time>
      </trkpt>
      <trkpt lat="44.7657" lon="5.77503">
        <ele>1024.5</ele>
        <time>2017-12-15T23:47:51Z</time>
      </trkpt>
      <trkpt lat="44.76583" lon="5.77491">
        <ele>1023.7</ele>
        <time>2017-12-15T23:48:05Z</time>
      </trkpt>
      <trkpt lat="44.76614" lon="5.77452">
        <ele>1021</ele>
        <time>2017-12-15T23:48:09Z</time>
      </trkpt>
      <trkpt lat="44.76631" lon="5.77439">
        <ele>1019.5</ele>
        <time>2017-12-15T23:48:17Z</time>
      </trkpt>
      <trkpt lat="44.76646" lon="5.77435">
        <ele>1018.2</ele>
        <time>2017-12-15T23:48:19Z</time>
      </trkpt>
      <trkpt lat="44.76696" lon="5.77445">
        <ele>1013.9</ele>
        <time>2017-12-15T23:48:27Z</time>
      </trkpt>
      <trkpt lat="44.76711" lon="5.77446">
        <ele>1013.2</ele>
        <time>2017-12-15T23:48:41Z</time>
      </trkpt>
      <trkpt lat="44.76718" lon="5.77443">
        <ele>1013.2</ele>
        <time>2017-12-15T23:48:52Z</time>
      </trkpt>
      <trkpt lat="44.76737" lon="5.77427">
        <ele>1013.9</ele>
        <time>2017-12-15T23:49:07Z</time>
      </trkpt>
      <trkpt lat="44.76756" lon="5.77416">
        <ele>1014</ele>
        <time>2017-12-15T23:49:13Z</time>
      </trkpt>
      <trkpt lat="44.76767" lon="5.77416">
        <ele>1014</ele>
        <time>2017-12-15T23:49:15Z</time>
      </trkpt>
      <trkpt lat="44.76779" lon="5.77421">
        <ele>1013.9</ele>
        <time>2017-12-15T23:49:20Z</time>
      </trkpt>
      <trkpt lat="44.76801" lon="5.7745">
        <ele>1013.2</ele>
        <time>2017-12-15T23:49:29Z</time>
      </trkpt>
      <trkpt lat="44.76834" lon="5.77493">
        <ele>1009.8</ele>
        <time>2017-12-15T23:49:33Z</time>
      </trkpt>
      <trkpt lat="44.76904" lon="5.77586">
        <ele>1000.2</ele>
        <time>2017-12-15T23:49:38Z</time>
      </trkpt>
      <trkpt lat="44.76932" lon="5.77621">
        <ele>996.7</ele>
        <time>2017-12-15T23:49:43Z</time>
      </trkpt>
      <trkpt lat="44.76961" lon="5.77642">
        <ele>994.5</ele>
        <time>2017-12-15T23:49:49Z</time>
      </trkpt>
      <trkpt lat="44.76965" lon="5.77654">
        <ele>992</ele>
        <time>2017-12-15T23:50:06Z</time>
      </trkpt>
      <trkpt lat="44.76963" lon="5.77666">
        <ele>989.2</ele>
        <time>2017-12-15T23:50:17Z</time>
      </trkpt>
      <trkpt lat="44.76955" lon="5.77673">
        <ele>987.3</ele>
        <time>2017-12-15T23:50:37Z</time>
      </trkpt>
      <trkpt lat="44.76948" lon="5.77674">
        <ele>987.1</ele>
        <time>2017-12-15T23:50:52Z</time>
      </trkpt>
      <trkpt lat="44.76936" lon="5.77669">
        <ele>987.8</ele>
        <time>2017-12-15T23:50:57Z</time>
      </trkpt>
      <trkpt lat="44.76896" lon="5.77643">
        <ele>989</ele>
        <time>2017-12-15T23:51:07Z</time>
      </trkpt>
      <trkpt lat="44.76868" lon="5.7763">
        <ele>987.6</ele>
        <time>2017-12-15T23:51:17Z</time>
      </trkpt>
      <trkpt lat="44.76838" lon="5.77621">
        <ele>985.4</ele>
        <time>2017-12-15T23:51:24Z</time>
      </trkpt>
      <trkpt lat="44.76809" lon="5.7763">
        <ele>981.8</ele>
        <time>2017-12-15T23:51:27Z</time>
      </trkpt>
      <trkpt lat="44.76766" lon="5.7764">
        <ele>979.4</ele>
        <time>2017-12-15T23:51:31Z</time>
      </trkpt>
      <trkpt lat="44.76743" lon="5.77648">
        <ele>978.2</ele>
        <time>2017-12-15T23:51:36Z</time>
      </trkpt>
      <trkpt lat="44.76715" lon="5.77676">
        <ele>976.8</ele>
        <time>2017-12-15T23:51:54Z</time>
      </trkpt>
      <trkpt lat="44.76692" lon="5.77719">
        <ele>975.6</ele>
        <time>2017-12-15T23:52:05Z</time>
      </trkpt>
      <trkpt lat="44.76684" lon="5.77756">
        <ele>974.1</ele>
        <time>2017-12-15T23:52:15Z</time>
      </trkpt>
      <trkpt lat="44.76688" lon="5.77818">
        <ele>967.9</ele>
        <time>2017-12-15T23:52:34Z</time>
      </trkpt>
      <trkpt lat="44.76692" lon="5.77878">
        <ele>958.9</ele>
        <time>2017-12-15T23:52:54Z</time>
      </trkpt>
      <trkpt lat="44.76692" lon="5.77901">
        <ele>956</ele>
        <time>2017-12-15T23:53:06Z</time>
      </trkpt>
      <trkpt lat="44.76667" lon="5.77946">
        <ele>954.9</ele>
        <time>2017-12-15T23:53:15Z</time>
      </trkpt>
      <trkpt lat="44.76648" lon="5.77991">
        <ele>954.2</ele>
        <time>2017-12-15T23:53:22Z</time>
      </trkpt>
      <trkpt lat="44.76642" lon="5.78011">
        <ele>953</ele>
        <time>2017-12-15T23:53:28Z</time>
      </trkpt>
      <trkpt lat="44.76642" lon="5.78026">
        <ele>951.9</ele>
        <time>2017-12-15T23:53:39Z</time>
      </trkpt>
      <trkpt lat="44.76644" lon="5.78034">
        <ele>951.6</ele>
        <time>2017-12-15T23:53:47Z</time>
      </trkpt>
      <trkpt lat="44.76657" lon="5.78055">
        <ele>950.7</ele>
        <time>2017-12-15T23:53:58Z</time>
      </trkpt>
      <trkpt lat="44.76698" lon="5.78104">
        <ele>948.7</ele>
        <time>2017-12-15T23:54:08Z</time>
      </trkpt>
      <trkpt lat="44.76708" lon="5.78112">
        <ele>948</ele>
        <time>2017-12-15T23:54:22Z</time>
      </trkpt>
      <trkpt lat="44.76738" lon="5.78129">
        <ele>945.9</ele>
        <time>2017-12-15T23:54:32Z</time>
      </trkpt>
      <trkpt lat="44.76748" lon="5.78136">
        <ele>945.1</ele>
        <time>2017-12-15T23:54:47Z</time>
      </trkpt>
      <trkpt lat="44.76756" lon="5.78142">
        <ele>944.8</ele>
        <time>2017-12-15T23:55:07Z</time>
      </trkpt>
      <trkpt lat="44.76818" lon="5.78174">
        <ele>941.6</ele>
        <time>2017-12-15T23:55:14Z</time>
      </trkpt>
      <trkpt lat="44.76839" lon="5.78177">
        <ele>940.3</ele>
        <time>2017-12-15T23:55:22Z</time>
      </trkpt>
      <trkpt lat="44.76893" lon="5.78173">
        <ele>935.2</ele>
        <time>2017-12-15T23:55:28Z</time>
      </trkpt>
      <trkpt lat="44.76942" lon="5.78171">
        <ele>933.5</ele>
        <time>2017-12-15T23:55:48Z</time>
      </trkpt>
      <trkpt lat="44.76984" lon="5.78177">
        <ele>931.5</ele>
        <time>2017-12-15T23:56:01Z</time>
      </trkpt>
      <trkpt lat="44.77036" lon="5.78184">
        <ele>927.5</ele>
        <time>2017-12-15T23:56:12Z</time>
      </trkpt>
      <trkpt lat="44.77059" lon="5.78185">
        <ele>925.3</ele>
        <time>2017-12-15T23:56:18Z</time>
      </trkpt>
      <trkpt lat="44.77114" lon="5.78183">
        <ele>920.3</ele>
        <time>2017-12-15T23:56:26Z</time>
      </trkpt>
      <trkpt lat="44.77206" lon="5.78192">
        <ele>913.2</ele>
        <time>2017-12-15T23:56:28Z</time>
      </trkpt>
      <trkpt lat="44.77236" lon="5.78187">
        <ele>911.1</ele>
        <time>2017-12-15T23:56:32Z</time>
      </trkpt>
      <trkpt lat="44.77279" lon="5.78175">
        <ele>908.2</ele>
        <time>2017-12-15T23:56:42Z</time>
      </trkpt>
      <trkpt lat="44.77294" lon="5.78174">
        <ele>907.1</ele>
        <time>2017-12-15T23:56:55Z</time>
      </trkpt>
      <trkpt lat="44.7733" lon="5.78179">
        <ele>905.2</ele>
        <time>2017-12-15T23:56:57Z</time>
      </trkpt>
      <trkpt lat="44.77376" lon="5.78177">
        <ele>901.4</ele>
        <time>2017-12-15T23:57:16Z</time>
      </trkpt>
      <trkpt lat="44.77407" lon="5.78171">
        <ele>899.4</ele>
        <time>2017-12-15T23:57:25Z</time>
      </trkpt>
      <trkpt lat="44.77419" lon="5.78174">
        <ele>898.9</ele>
        <time>2017-12-15T23:57:45Z</time>
      </trkpt>
      <trkpt lat="44.77451" lon="5.78195">
        <ele>897.8</ele>
        <time>2017-12-15T23:58:03Z</time>
      </trkpt>
      <trkpt lat="44.77482" lon="5.78212">
        <ele>897.4</ele>
        <time>2017-12-15T23:58:11Z</time>
      </trkpt>
      <trkpt lat="44.77524" lon="5.78216">
        <ele>896.1</ele>
        <time>2017-12-15T23:58:26Z</time>
      </trkpt>
      <trkpt lat="44.77565" lon="5.78209">
        <ele>893.7</ele>
        <time>2017-12-15T23:58:33Z</time>
      </trkpt>
      <trkpt lat="44.776" lon="5.78198">
        <ele>891.8</ele>
        <time>2017-12-15T23:58:44Z</time>
      </trkpt>
      <trkpt lat="44.77634" lon="5.7818">
        <ele>890.2</ele>
        <time>2017-12-15T23:58:50Z</time>
      </trkpt>
      <trkpt lat="44.77649" lon="5.78172">
        <ele>889.3</ele>
        <time>2017-12-15T23:59:06Z</time>
      </trkpt>
      <trkpt lat="44.77669" lon="5.78173">
        <ele>888.2</ele>
        <time>2017-12-15T23:59:08Z</time>
      </trkpt>
      <trkpt lat="44.77706" lon="5.78196">
        <ele>888</ele>
        <time>2017-12-15T23:59:27Z</time>
      </trkpt>
      <trkpt lat="44.77721" lon="5.78198">
        <ele>888</ele>
        <time>2017-12-15T23:59:31Z</time>
      </trkpt>
      <trkpt lat="44.77751" lon="5.78193">
        <ele>887.9</ele>
        <time>2017-12-15T23:59:47Z</time>
      </trkpt>
      <trkpt lat="44.77795" lon="5.78181">
        <ele>887.5</ele>
        <time>2017-12-15T23:59:59Z</time>
      </trkpt>
      <trkpt lat="44.77834" lon="5.78167">
        <ele>888</ele>
        <time>2017-12-16T00:00:15Z</time>
      </trkpt>
      <trkpt lat="44.77891" lon="5.78134">
        <ele>887.9</ele>
        <time>2017-12-16T00:00:34Z</time>
      </trkpt>
      <trkpt lat="44.77943" lon="5.78102">
        <ele>886.4</ele>
        <time>2017-12-16T00:00:41Z</time>
      </trkpt>
      <trkpt lat="44.77962" lon="5.78077">
        <ele>884.1</ele>
        <time>2017-12-16T00:01:00Z</time>
      </trkpt>
      <trkpt lat="44.77972" lon="5.78062">
        <ele>883.2</ele>
        <time>2017-12-16T00:01:06Z</time>
      </trkpt>
      <trkpt lat="44.77981" lon="5.78052">
        <ele>882.2</ele>
        <time>2017-12-16T00:01:09Z</time>
      </trkpt>
      <trkpt lat="44.77992" lon="5.78044">
        <ele>881</ele>
        <time>2017-12-16T00:01:12Z</time>
      </trkpt>
      <trkpt lat="44.78031" lon="5.78026">
        <ele>876.4</ele>
        <time>2017-12-16T00:01:26Z</time>
      </trkpt>
      <trkpt lat="44.78071" lon="5.78009">
        <ele>873.3</ele>
        <time>2017-12-16T00:01:42Z</time>
      </trkpt>
      <trkpt lat="44.78079" lon="5.78002">
        <ele>873.7</ele>
        <time>2017-12-16T00:01:51Z</time>
      </trkpt>
      <trkpt lat="44.78083" lon="5.77994">
        <ele>874.4</ele>
        <time>2017-12-16T00:01:56Z</time>
      </trkpt>
      <trkpt lat="44.78086" lon="5.77983">
        <ele>876.2</ele>
        <time>2017-12-16T00:02:04Z</time>
      </trkpt>
      <trkpt lat="44.78086" lon="5.77966">
        <ele>877.5</ele>
        <time>2017-12-16T00:02:17Z</time>
      </trkpt>
      <trkpt lat="44.78081" lon="5.7785">
        <ele>878</ele>
        <time>2017-12-16T00:02:25Z</time>
      </trkpt>
      <trkpt lat="44.78076" lon="5.77743">
        <ele>873.4</ele>
        <time>2017-12-16T00:02:27Z</time>
      </trkpt>
      <trkpt lat="44.78077" lon="5.7769">
        <ele>871.7</ele>
        <time>2017-12-16T00:02:43Z</time>
      </trkpt>
      <trkpt lat="44.78079" lon="5.77659">
        <ele>870.5</ele>
        <time>2017-12-16T00:03:02Z</time>
      </trkpt>
      <trkpt lat="44.78079" lon="5.77602">
        <ele>867.7</ele>
        <time>2017-12-16T00:03:18Z</time>
      </trkpt>
      <trkpt lat="44.78072" lon="5.77455">
        <ele>863.5</ele>
        <time>2017-12-16T00:03:32Z</time>
      </trkpt>
      <trkpt lat="44.78073" lon="5.7743">
        <ele>862.4</ele>
        <time>2017-12-16T00:03:34Z</time>
      </trkpt>
      <trkpt lat="44.78077" lon="5.77396">
        <ele>861.1</ele>
        <time>2017-12-16T00:03:43Z</time>
      </trkpt>
      <trkpt lat="44.78085" lon="5.77361">
        <ele>860.1</ele>
        <time>2017-12-16T00:03:52Z</time>
      </trkpt>
      <trkpt lat="44.78101" lon="5.77327">
        <ele>858.9</ele>
        <time>2017-12-16T00:04:04Z</time>
      </trkpt>
      <trkpt lat="44.78138" lon="5.77274">
        <ele>858.5</ele>
        <time>2017-12-16T00:04:08Z</time>
      </trkpt>
      <trkpt lat="44.78149" lon="5.77252">
        <ele>856.9</ele>
        <time>2017-12-16T00:04:24Z</time>
      </trkpt>
      <trkpt lat="44.78181" lon="5.77168">
        <ele>851.8</ele>
        <time>2017-12-16T00:04:33Z</time>
      </trkpt>
      <trkpt lat="44.782" lon="5.77139">
        <ele>850.6</ele>
        <time>2017-12-16T00:04:38Z</time>
      </trkpt>
      <trkpt lat="44.78223" lon="5.77119">
        <ele>850.9</ele>
        <time>2017-12-16T00:04:40Z</time>
      </trkpt>
      <trkpt lat="44.78234" lon="5.77105">
        <ele>850.8</ele>
        <time>2017-12-16T00:04:47Z</time>
      </trkpt>
      <trkpt lat="44.78249" lon="5.77068">
        <ele>850.7</ele>
        <time>2017-12-16T00:05:06Z</time>
      </trkpt>
      <trkpt lat="44.78257" lon="5.77047">
        <ele>849.5</ele>
        <time>2017-12-16T00:05:11Z</time>
      </trkpt>
      <trkpt lat="44.78271" lon="5.77022">
        <ele>849.2</ele>
        <time>2017-12-16T00:05:25Z</time>
      </trkpt>
      <trkpt lat="44.7832" lon="5.76957">
        <ele>848.1</ele>
        <time>2017-12-16T00:05:31Z</time>
      </trkpt>
      <trkpt lat="44.78336" lon="5.76945">
        <ele>848.2</ele>
        <time>2017-12-16T00:05:34Z</time>
      </trkpt>
      <trkpt lat="44.78347" lon="5.76939">
        <ele>848.1</ele>
        <time>2017-12-16T00:05:40Z</time>
      </trkpt>
      <trkpt lat="44.78369" lon="5.76931">
        <ele>848.3</ele>
        <time>2017-12-16T00:05:56Z</time>
      </trkpt>
      <trkpt lat="44.78391" lon="5.76919">
        <ele>848.2</ele>
        <time>2017-12-16T00:06:13Z</time>
      </trkpt>
      <trkpt lat="44.78416" lon="5.76901">
        <ele>847.4</ele>
        <time>2017-12-16T00:06:33Z</time>
      </trkpt>
      <trkpt lat="44.78441" lon="5.76874">
        <ele>847</ele>
        <time>2017-12-16T00:06:49Z</time>
      </trkpt>
      <trkpt lat="44.78463" lon="5.76847">
        <ele>846.5</ele>
        <time>2017-12-16T00:07:09Z</time>
      </trkpt>
      <trkpt lat="44.7847" lon="5.76839">
        <ele>846.2</ele>
        <time>2017-12-16T00:07:27Z</time>
      </trkpt>
      <trkpt lat="44.78487" lon="5.76825">
        <ele>846.4</ele>
        <time>2017-12-16T00:07:36Z</time>
      </trkpt>
      <trkpt lat="44.78512" lon="5.7681">
        <ele>846.1</ele>
        <time>2017-12-16T00:07:54Z</time>
      </trkpt>
      <trkpt lat="44.78569" lon="5.76776">
        <ele>844.9</ele>
        <time>2017-12-16T00:08:00Z</time>
      </trkpt>
      <trkpt lat="44.78612" lon="5.76755">
        <ele>844.1</ele>
        <time>2017-12-16T00:08:04Z</time>
      </trkpt>
      <trkpt lat="44.78691" lon="5.76732">
        <ele>842.4</ele>
        <time>2017-12-16T00:08:19Z</time>
      </trkpt>
      <trkpt lat="44.78723" lon="5.76723">
        <ele>842</ele>
        <time>2017-12-16T00:08:36Z</time>
      </trkpt>
      <trkpt lat="44.78766" lon="5.76706">
        <ele>841.7</ele>
        <time>2017-12-16T00:08:52Z</time>
      </trkpt>
      <trkpt lat="44.78797" lon="5.7669">
        <ele>841.5</ele>
        <time>2017-12-16T00:09:01Z</time>
      </trkpt>
      <trkpt lat="44.78807" lon="5.7668">
        <ele>841.8</ele>
        <time>2017-12-16T00:09:18Z</time>
      </trkpt>
      <trkpt lat="44.78822" lon="5.76655">
        <ele>843.7</ele>
        <time>2017-12-16T00:09:33Z</time>
      </trkpt>
      <trkpt lat="44.7884" lon="5.76592">
        <ele>841.5</ele>
        <time>2017-12-16T00:09:44Z</time>
      </trkpt>
      <trkpt lat="44.78864" lon="5.76533">
        <ele>839.9</ele>
        <time>2017-12-16T00:09:59Z</time>
      </trkpt>
      <trkpt lat="44.78882" lon="5.76498">
        <ele>838</ele>
        <time>2017-12-16T00:10:18Z</time>
      </trkpt>
      <trkpt lat="44.789" lon="5.76472">
        <ele>836.6</ele>
        <time>2017-12-16T00:10:24Z</time>
      </trkpt>
      <trkpt lat="44.78927" lon="5.76442">
        <ele>835.5</ele>
        <time>2017-12-16T00:10:28Z</time>
      </trkpt>
      <trkpt lat="44.78939" lon="5.76427">
        <ele>834.7</ele>
        <time>2017-12-16T00:10:40Z</time>
      </trkpt>
      <trkpt lat="44.78953" lon="5.76407">
        <ele>833.6</ele>
        <time>2017-12-16T00:10:53Z</time>
      </trkpt>
      <trkpt lat="44.7897" lon="5.76376">
        <ele>832</ele>
        <time>2017-12-16T00:11:13Z</time>
      </trkpt>
      <trkpt lat="44.79013" lon="5.76303">
        <ele>829.8</ele>
        <time>2017-12-16T00:11:30Z</time>
      </trkpt>
      <trkpt lat="44.79053" lon="5.7624">
        <ele>827.4</ele>
        <time>2017-12-16T00:11:38Z</time>
      </trkpt>
      <trkpt lat="44.79085" lon="5.76201">
        <ele>825.2</ele>
        <time>2017-12-16T00:11:47Z</time>
      </trkpt>
      <trkpt lat="44.79138" lon="5.76149">
        <ele>822.4</ele>
        <time>2017-12-16T00:11:53Z</time>
      </trkpt>
      <trkpt lat="44.7917" lon="5.76117">
        <ele>821.5</ele>
        <time>2017-12-16T00:12:05Z</time>
      </trkpt>
      <trkpt lat="44.79196" lon="5.7608">
        <ele>819.8</ele>
        <time>2017-12-16T00:12:17Z</time>
      </trkpt>
      <trkpt lat="44.79218" lon="5.76043">
        <ele>818</ele>
        <time>2017-12-16T00:12:37Z</time>
      </trkpt>
      <trkpt lat="44.79241" lon="5.76003">
        <ele>816.6</ele>
        <time>2017-12-16T00:12:51Z</time>
      </trkpt>
      <trkpt lat="44.79258" lon="5.75984">
        <ele>816.5</ele>
        <time>2017-12-16T00:13:00Z</time>
      </trkpt>
      <trkpt lat="44.79283" lon="5.75967">
        <ele>817.1</ele>
        <time>2017-12-16T00:13:10Z</time>
      </trkpt>
      <trkpt lat="44.79286" lon="5.75962">
        <ele>816.6</ele>
        <time>2017-12-16T00:13:23Z</time>
      </trkpt>
      <trkpt lat="44.79288" lon="5.75952">
        <ele>814.7</ele>
        <time>2017-12-16T00:13:36Z</time>
      </trkpt>
      <trkpt lat="44.79295" lon="5.75949">
        <ele>815.3</ele>
        <time>2017-12-16T00:13:49Z</time>
      </trkpt>
      <trkpt lat="44.79317" lon="5.75935">
        <ele>816.6</ele>
        <time>2017-12-16T00:13:56Z</time>
      </trkpt>
      <trkpt lat="44.79348" lon="5.7591">
        <ele>817.1</ele>
        <time>2017-12-16T00:14:08Z</time>
      </trkpt>
      <trkpt lat="44.79396" lon="5.75866">
        <ele>816.5</ele>
        <time>2017-12-16T00:14:21Z</time>
      </trkpt>
      <trkpt lat="44.79414" lon="5.75844">
        <ele>815.3</ele>
        <time>2017-12-16T00:14:40Z</time>
      </trkpt>
      <trkpt lat="44.79464" lon="5.75773">
        <ele>811.5</ele>
        <time>2017-12-16T00:14:57Z</time>
      </trkpt>
      <trkpt lat="44.79505" lon="5.75723">
        <ele>809.1</ele>
        <time>2017-12-16T00:15:14Z</time>
      </trkpt>
      <trkpt lat="44.79537" lon="5.75692">
        <ele>807.6</ele>
        <time>2017-12-16T00:15:17Z</time>
      </trkpt>
      <trkpt lat="44.79554" lon="5.7568">
        <ele>807.5</ele>
        <time>2017-12-16T00:15:22Z</time>
      </trkpt>
      <trkpt lat="44.79571" lon="5.75671">
        <ele>807.3</ele>
        <time>2017-12-16T00:15:32Z</time>
      </trkpt>
      <trkpt lat="44.7959" lon="5.75664">
        <ele>808.7</ele>
        <time>2017-12-16T00:15:39Z</time>
      </trkpt>
      <trkpt lat="44.79608" lon="5.75653">
        <ele>809.4</ele>
        <time>2017-12-16T00:15:43Z</time>
      </trkpt>
      <trkpt lat="44.79617" lon="5.75646">
        <ele>809.2</ele>
        <time>2017-12-16T00:15:58Z</time>
      </trkpt>
      <trkpt lat="44.79632" lon="5.7563">
        <ele>808.5</ele>
        <time>2017-12-16T00:16:06Z</time>
      </trkpt>
      <trkpt lat="44.7966" lon="5.75592">
        <ele>805.4</ele>
        <time>2017-12-16T00:16:22Z</time>
      </trkpt>
      <trkpt lat="44.79675" lon="5.75576">
        <ele>805</ele>
        <time>2017-12-16T00:16:35Z</time>
      </trkpt>
      <trkpt lat="44.79695" lon="5.75562">
        <ele>806</ele>
        <time>2017-12-16T00:16:52Z</time>
      </trkpt>
      <trkpt lat="44.79729" lon="5.75538">
        <ele>805.6</ele>
        <time>2017-12-16T00:17:04Z</time>
      </trkpt>
      <trkpt lat="44.79756" lon="5.75516">
        <ele>806.6</ele>
        <time>2017-12-16T00:17:11Z</time>
      </trkpt>
      <trkpt lat="44.79773" lon="5.75505">
        <ele>808.2</ele>
        <time>2017-12-16T00:17:31Z</time>
      </trkpt>
      <trkpt lat="44.7979" lon="5.75498">
        <ele>808.7</ele>
        <time>2017-12-16T00:17:38Z</time>
      </trkpt>
      <trkpt lat="44.79808" lon="5.75494">
        <ele>808.3</ele>
        <time>2017-12-16T00:17:52Z</time>
      </trkpt>
      <trkpt lat="44.79859" lon="5.75487">
        <ele>807.4</ele>
        <time>2017-12-16T00:17:54Z</time>
      </trkpt>
      <trkpt lat="44.79938" lon="5.75476">
        <ele>804.7</ele>
        <time>2017-12-16T00:18:04Z</time>
      </trkpt>
      <trkpt lat="44.79962" lon="5.75473">
        <ele>803.6</ele>
        <time>2017-12-16T00:18:14Z</time>
      </trkpt>
      <trkpt lat="44.79989" lon="5.75466">
        <ele>802.6</ele>
        <time>2017-12-16T00:18:31Z</time>
      </trkpt>
      <trkpt lat="44.80015" lon="5.75458">
        <ele>800.6</ele>
        <time>2017-12-16T00:18:33Z</time>
      </trkpt>
      <trkpt lat="44.80041" lon="5.75455">
        <ele>798</ele>
        <time>2017-12-16T00:18:42Z</time>
      </trkpt>
      <trkpt lat="44.80061" lon="5.75455">
        <ele>796.2</ele>
        <time>2017-12-16T00:18:58Z</time>
      </trkpt>
      <trkpt lat="44.80081" lon="5.7546">
        <ele>794.6</ele>
        <time>2017-12-16T00:19:07Z</time>
      </trkpt>
      <trkpt lat="44.80115" lon="5.75463">
        <ele>792.1</ele>
        <time>2017-12-16T00:19:15Z</time>
      </trkpt>
      <trkpt lat="44.80142" lon="5.7546">
        <ele>791</ele>
        <time>2017-12-16T00:19:25Z</time>
      </trkpt>
      <trkpt lat="44.8016" lon="5.75456">
        <ele>790.6</ele>
        <time>2017-12-16T00:19:45Z</time>
      </trkpt>
      <trkpt lat="44.80192" lon="5.75444">
        <ele>790</ele>
        <time>2017-12-16T00:19:59Z</time>
      </trkpt>
      <trkpt lat="44.80209" lon="5.75431">
        <ele>790.3</ele>
        <time>2017-12-16T00:20:10Z</time>
      </trkpt>
      <trkpt lat="44.80236" lon="5.75406">
        <ele>792.1</ele>
        <time>2017-12-16T00:20:27Z</time>
      </trkpt>
      <trkpt lat="44.80267" lon="5.75372">
        <ele>796.1</ele>
        <time>2017-12-16T00:20:46Z</time>
      </trkpt>
      <trkpt lat="44.80286" lon="5.7534">
        <ele>798.5</ele>
        <time>2017-12-16T00:20:52Z</time>
      </trkpt>
      <trkpt lat="44.80345" lon="5.75192">
        <ele>804.7</ele>
        <time>2017-12-16T00:20:59Z</time>
      </trkpt>
      <trkpt lat="44.80357" lon="5.75168">
        <ele>806.4</ele>
        <time>2017-12-16T00:21:07Z</time>
      </trkpt>
      <trkpt lat="44.80371" lon="5.75148">
        <ele>808.2</ele>
        <time>2017-12-16T00:21:25Z</time>
      </trkpt>
      <trkpt lat="44.80401" lon="5.7511">
        <ele>812.2</ele>
        <time>2017-12-16T00:21:44Z</time>
      </trkpt>
      <trkpt lat="44.80413" lon="5.75087">
        <ele>813.1</ele>
        <time>2017-12-16T00:21:59Z</time>
      </trkpt>
      <trkpt lat="44.80428" lon="5.75053">
        <ele>812.6</ele>
        <time>2017-12-16T00:22:03Z</time>
      </trkpt>
      <trkpt lat="44.80437" lon="5.75031">
        <ele>811.9</ele>
        <time>2017-12-16T00:22:23Z</time>
      </trkpt>
      <trkpt lat="44.80449" lon="5.75014">
        <ele>812.6</ele>
        <time>2017-12-16T00:22:37Z</time>
      </trkpt>
      <trkpt lat="44.80476" lon="5.74987">
        <ele>814.7</ele>
        <time>2017-12-16T00:22:44Z</time>
      </trkpt>
      <trkpt lat="44.80496" lon="5.74973">
        <ele>815.5</ele>
        <time>2017-12-16T00:23:01Z</time>
      </trkpt>
      <trkpt lat="44.80504" lon="5.74969">
        <ele>816.1</ele>
        <time>2017-12-16T00:23:20Z</time>
      </trkpt>
      <trkpt lat="44.80518" lon="5.74966">
        <ele>817.3</ele>
        <time>2017-12-16T00:23:29Z</time>
      </trkpt>
      <trkpt lat="44.80531" lon="5.74966">
        <ele>818.2</ele>
        <time>2017-12-16T00:23:32Z</time>
      </trkpt>
      <trkpt lat="44.80544" lon="5.74969">
        <ele>818.1</ele>
        <time>2017-12-16T00:23:41Z</time>
      </trkpt>
      <trkpt lat="44.8057" lon="5.7498">
        <ele>818.2</ele>
        <time>2017-12-16T00:23:57Z</time>
      </trkpt>
      <trkpt lat="44.80582" lon="5.74985">
        <ele>818</ele>
        <time>2017-12-16T00:24:02Z</time>
      </trkpt>
      <trkpt lat="44.80591" lon="5.74987">
        <ele>818.3</ele>
        <time>2017-12-16T00:24:07Z</time>
      </trkpt>
      <trkpt lat="44.80604" lon="5.74984">
        <ele>818.6</ele>
        <time>2017-12-16T00:24:18Z</time>
      </trkpt>
      <trkpt lat="44.80624" lon="5.74969">
        <ele>817.8</ele>
        <time>2017-12-16T00:24:34Z</time>
      </trkpt>
      <trkpt lat="44.80668" lon="5.74921">
        <ele>817.2</ele>
        <time>2017-12-16T00:24:48Z</time>
      </trkpt>
      <trkpt lat="44.80699" lon="5.74891">
        <ele>815.9</ele>
        <time>2017-12-16T00:24:57Z</time>
      </trkpt>
      <trkpt lat="44.80748" lon="5.74851">
        <ele>812.7</ele>
        <time>2017-12-16T00:25:17Z</time>
      </trkpt>
      <trkpt lat="44.80762" lon="5.74843">
        <ele>812.1</ele>
        <time>2017-12-16T00:25:23Z</time>
      </trkpt>
      <trkpt lat="44.80793" lon="5.74829">
        <ele>810.7</ele>
        <time>2017-12-16T00:25:36Z</time>
      </trkpt>
      <trkpt lat="44.80821" lon="5.7482">
        <ele>809.5</ele>
        <time>2017-12-16T00:25:45Z</time>
      </trkpt>
      <trkpt lat="44.80857" lon="5.74811">
        <ele>808.4</ele>
        <time>2017-12-16T00:25:54Z</time>
      </trkpt>
      <trkpt lat="44.80892" lon="5.74808">
        <ele>807</ele>
        <time>2017-12-16T00:25:59Z</time>
      </trkpt>
      <trkpt lat="44.80907" lon="5.74808">
        <ele>805.9</ele>
        <time>2017-12-16T00:26:19Z</time>
      </trkpt>
      <trkpt lat="44.80923" lon="5.74813">
        <ele>804.9</ele>
        <time>2017-12-16T00:26:22Z</time>
      </trkpt>
      <trkpt lat="44.80938" lon="5.74822">
        <ele>803.9</ele>
        <time>2017-12-16T00:26:35Z</time>
      </trkpt>
      <trkpt lat="44.8101" lon="5.74872">
        <ele>799.7</ele>
        <time>2017-12-16T00:26:48Z</time>
      </trkpt>
      <trkpt lat="44.81036" lon="5.74892">
        <ele>798.7</ele>
        <time>2017-12-16T00:27:04Z</time>
      </trkpt>
      <trkpt lat="44.81049" lon="5.74902">
        <ele>798.5</ele>
        <time>2017-12-16T00:27:17Z</time>
      </trkpt>
      <trkpt lat="44.81063" lon="5.74909">
        <ele>798.2</ele>
        <time>2017-12-16T00:27:36Z</time>
      </trkpt>
      <trkpt lat="44.81077" lon="5.7491">
        <ele>797.7</ele>
        <time>2017-12-16T00:27:54Z</time>
      </trkpt>
      <trkpt lat="44.81092" lon="5.74905">
        <ele>797.3</ele>
        <time>2017-12-16T00:28:10Z</time>
      </trkpt>
      <trkpt lat="44.81115" lon="5.74885">
        <ele>795.5</ele>
        <time>2017-12-16T00:28:28Z</time>
      </trkpt>
      <trkpt lat="44.81148" lon="5.74864">
        <ele>793.3</ele>
        <time>2017-12-16T00:28:44Z</time>
      </trkpt>
      <trkpt lat="44.81183" lon="5.74849">
        <ele>791.3</ele>
        <time>2017-12-16T00:29:03Z</time>
      </trkpt>
      <trkpt lat="44.81215" lon="5.74833">
        <ele>789</ele>
        <time>2017-12-16T00:29:21Z</time>
      </trkpt>
      <trkpt lat="44.81247" lon="5.74816">
        <ele>785.9</ele>
        <time>2017-12-16T00:29:38Z</time>
      </trkpt>
      <trkpt lat="44.81253" lon="5.74815">
        <ele>785.5</ele>
        <time>2017-12-16T00:29:50Z</time>
      </trkpt>
      <trkpt lat="44.81264" lon="5.74818">
        <ele>784.9</ele>
        <time>2017-12-16T00:29:55Z</time>
      </trkpt>
      <trkpt lat="44.81278" lon="5.7483">
        <ele>784.7</ele>
        <time>2017-12-16T00:30:15Z</time>
      </trkpt>
      <trkpt lat="44.81288" lon="5.74845">
        <ele>784.6</ele>
        <time>2017-12-16T00:30:23Z</time>
      </trkpt>
      <trkpt lat="44.81304" lon="5.74875">
        <ele>783.3</ele>
        <time>2017-12-16T00:30:38Z</time>
      </trkpt>
      <trkpt lat="44.81314" lon="5.74899">
        <ele>781.8</ele>
        <time>2017-12-16T00:30:42Z</time>
      </trkpt>
      <trkpt lat="44.81337" lon="5.74971">
        <ele>780.4</ele>
        <time>2017-12-16T00:30:49Z</time>
      </trkpt>
      <trkpt lat="44.81368" lon="5.75072">
        <ele>776.2</ele>
        <time>2017-12-16T00:30:54Z</time>
      </trkpt>
      <trkpt lat="44.81376" lon="5.75085">
        <ele>775.5</ele>
        <time>2017-12-16T00:31:14Z</time>
      </trkpt>
      <trkpt lat="44.81387" lon="5.75095">
        <ele>774.6</ele>
        <time>2017-12-16T00:31:17Z</time>
      </trkpt>
      <trkpt lat="44.814" lon="5.75102">
        <ele>773.9</ele>
        <time>2017-12-16T00:31:36Z</time>
      </trkpt>
      <trkpt lat="44.81412" lon="5.75104">
        <ele>773.1</ele>
        <time>2017-12-16T00:31:55Z</time>
      </trkpt>
      <trkpt lat="44.81434" lon="5.75105">
        <ele>772.2</ele>
        <time>2017-12-16T00:31:59Z</time>
      </trkpt>
      <trkpt lat="44.81472" lon="5.75099">
        <ele>771.6</ele>
        <time>2017-12-16T00:32:08Z</time>
      </trkpt>
      <trkpt lat="44.81493" lon="5.75097">
        <ele>771.5</ele>
        <time>2017-12-16T00:32:15Z</time>
      </trkpt>
      <trkpt lat="44.81618" lon="5.75073">
        <ele>774.9</ele>
        <time>2017-12-16T00:32:21Z</time>
      </trkpt>
      <trkpt lat="44.81685" lon="5.75055">
        <ele>775.6</ele>
        <time>2017-12-16T00:32:28Z</time>
      </trkpt>
    </trkseg>
  </trk>
</gpx>